     2              OBSERVATION DATA    GPS                 RINEX VERSION / TYPE
teqc 1997Jul24 19970902 21:15:54UTC                         PGM / RUN BY / DATE
                                                            COMMENT
BIT 2 OF LLI FLAGS DATA COLLECTED UNDER A-S CONDITION       COMMENT
BIT 2 OF LLI FLAGS DATA COLLECTED UNDER A-S CONDITION       COMMENT
Original Marker Name: 55496.YUMA                            COMMENT
Campaign Name: Salt. Tr. Crust. Monit. May-Jun 1986         COMMENT
4-Character Station Name: YUMA                              COMMENT
6-Character Antenna Code: TI4100                            COMMENT
Vertical Measurement Point: PAE                             COMMENT
Vertical Offset to Rinex Ref. Point: 0.0000                 COMMENT
Radial Measurement Point: RRP                               COMMENT
Radial Offset to Rinex Ref. Point: 0.0000                   COMMENT
Antenna Height from Field Measurement: 1.4140 m             COMMENT
Original XYZ: -2197478.5462 -4889611.5158 3444783.6672      COMMENT
New XYZ position is based on association with SCEC monument COMMENT
E1C9S0R6+0011. Position of that monument is believed to be  COMMENT
valid to within 1 m horizontally; vertical accuracy         COMMENT
should be no worse than 3-times this value.                 COMMENT
                                                            COMMENT
Revised Rinex header created by UCSD GPS archive for        COMMENT
GSAC on 12-Apr-1999 (1999:102) 01:24:05 GMT                 COMMENT
For assistance contact dagnew@ucsd.edu or hjohnson@ucsd.edu COMMENT
                                                            COMMENT
YUMA NCMN 1983                                              MARKER NAME
5 NATIONAL GEODETIC SURVEY                                  OBSERVER / AGENCY
UT04 TI 4100 1.0                                            REC # / TYPE / VERS
108 TI 4100                                                 ANT # / TYPE
 -2196778.0000 -4887337.0000  3448425.0000                  APPROX POSITION XYZ
        1.4140        0.0000        0.0000                  ANTENNA: DELTA H/E/N
     1     1     0                                          WAVELENGTH FACT L1/2
     4    P1    P2    L1    L2                              # / TYPES OF OBSERV
     6                                                      INTERVAL
  1986     6    16    23     3   11.000000                  TIME OF FIRST OBS
  1986     6    17     0    50   59.000000                  TIME OF LAST OBS
     0                                                      # OF SATELLITES
                                                            END OF HEADER
 86  6 16 23  3 11.0800000  0  1G 6
                  20293126.629       -7528.837 9
 86  6 16 23  3 17.0800000  0  1G 6
                  20291291.991      -17147.017 9
 86  6 16 23  3 23.0800000  0  1G 6
                  20289491.422      -26757.301 8
 86  6 16 23  3 29.0800000  0  1G 6
  20287665.337    20287668.801      -36359.174 9    252506.420 9
 86  6 16 23  3 35.0800000  0  1G 6
  20285839.081    20285843.884      -45952.964 9    245030.736 8
 86  6 16 23  3 41.0800000  0  1G 6
  20284014.862    20284020.186      -55538.743 8    237561.314 9
 86  6 16 23  3 47.0800000  0  1G 6
  20282192.997    20282197.262      -65116.393 9    230098.211 9
 86  6 16 23  3 53.0800000  0  1G 6
  20280372.212    20280376.508      -74685.898 8    222641.454 8
 86  6 16 23  3 59.0800000  0  1G 6
  20278553.291    20278557.328      -84247.161 8    215191.126 8
 86  6 16 23  4 29.0800000  0  1G11
                  20340528.973     -470183.196 3
 86  6 16 23  4 35.0800000  0  3G 8G 9G11
                  20055500.356     -364354.659 9
                  20266732.274     -608911.990 8
                  20338255.087     -482075.157 5
 86  6 16 23  4 41.0800000  0  4G 6G 8G 9G11
                  20265831.806     -478811.192 6
                  20057400.223     -354388.773 1
                  20265334.601     -638370.873 8
                  20336005.920     -493946.173 9
 86  6 16 23  4 47.0800000  0  4G 6G 8G 9G11
                  20264032.620     -488306.137 1
                  20059323.896     -344399.489 6
                  20263845.994     -667373.965 8
                  20333737.886     -505796.234 9
 86  6 16 23  4 53.0800000  0  4G 6G 8G 9G11
                  20262249.134     -497793.494 5
  20061228.436    20061234.674     -334385.331 6    897567.950 7
                  20261555.704     -715945.617 8
                  20331499.785     -517625.317 9
 86  6 16 23  4 59.0800000  0  4G 6G 8G 9G11
  20260444.905    20260451.470     -507271.693 7    939750.729 8
  20063138.444    20063142.667     -324347.046 3    905389.991 1
                  20260248.550     -744947.196 8
                  20329250.926     -529433.313 9
 86  6 16 23  5  5.0800000  0  3G 8G 9G11
  20065053.758    20065059.128     -314284.606 6    913230.873 6
                  20258768.199     -773944.954 8
                  20327006.341     -541220.221 8
 86  6 16 23  5 11.0800000  0  4G 6G 8G 9G11
  20256843.291    20256846.557     -526202.553 9    924999.891 9
  20066973.419    20066977.854     -304198.010 9    921090.550 8
                  20256237.817     -827347.854 8
                  20324771.159     -552986.068 7
 86  6 16 23  5 17.0800000  0  4G 6G 8G 9G11
  20255046.402    20255048.902     -535655.314 2    917634.115 6
  20068897.332    20068900.674     -294087.277 1    928969.057 2
                  20255273.719     -856445.671 8
                  20322532.279     -564730.710 9
 86  6 16 23  5 23.0800000  0  4G 6G 8G 9G11
  20253246.069    20253250.047     -545099.521 7    910274.987 7
  20070827.555    20070831.063     -283952.393 1    936866.349 1
                  20252152.277     -885444.156 8
                  20320304.111     -576454.202 9
 86  6 16 23  5 29.0800000  0  4G 6G 8G 9G11
  20251451.981    20251455.375     -554535.272 3    902922.460 1
  20072760.659    20072765.606     -273793.468 7    944782.391 4
                  20249837.063     -933694.428 8
                  20318103.301     -588156.829 7
 86  6 16 23  5 35.0800000  0  4G 6G 8G 9G11
  20249657.963    20249661.415     -563962.428 1    895576.634 4
  20074696.713    20074700.946     -263610.444 4    952717.228 5
                  20248500.918     -962696.250 8
  20315880.905    20315883.251     -599838.081 8   1209811.189 6
 86  6 16 23  5 41.0800000  0  4G 6G 8G 9G11
  20247864.799    20247868.897     -573381.037 8    888237.460 7
  20076639.697    20076642.568     -253403.387 1    960670.793 1
                  20246991.262     -991694.251 8
  20313661.221    20313666.819     -611498.103 8   1200725.454 7
 86  6 16 23  5 47.0800000  0  4G 6G 8G 9G11
  20246075.071    20246078.224     -582791.061 2    880904.974 1
  20078588.391    20078589.168     -243172.293 4    968643.059 1
                  20244609.267    -1040491.065 8
  20311444.954    20311451.309     -623136.895 8   1191656.268 7
 86  6 16 23  5 53.0800000  0  4G 6G 8G 9G11
  20244285.365    20244289.232     -592192.585 9    873579.112 9
  20080538.093    20080542.141     -232917.304 8    976633.960 7
                  20249643.664    -1050252.296 8
  20309235.256    20309241.340     -634754.584 9   1182603.520 7
 86  6 16 23  5 59.0800000  0  4G 6G 8G 9G11
  20242497.836    20242501.930     -601585.581 8    866259.887 9
  20082494.057    20082499.146     -222638.367 9    984643.513 7
                  20256350.611    -1060005.261 8
  20307028.655    20307033.679     -646351.141 9   1173567.252 7
 86  6 16 23  6  5.0800000  0  4G 6G 8G 9G11
  20240712.135    20240715.841     -610969.956 8    858947.395 9
  20084454.439    20084459.687     -212335.503 9    992671.732 8
                  20263262.695    -1069749.959 8
  20304827.834    20304831.121     -657926.433 8   1164547.540 7
 86  6 16 23  6 11.0800000  0  4G 6G 8G 9G11
  20238928.126    20238931.954     -620345.718 8    851641.603 9
  20086419.263    20086424.391     -202008.696 9   1000718.592 8
                  20269855.707    -1079486.389 8
  20302627.366    20302632.035     -669480.442 8   1155544.438 8
 86  6 16 23  6 17.0800000  0  4G 6G 8G 9G11
  20237145.454    20237149.412     -629712.864 8    844342.542 8
  20088388.821    20088394.177     -191658.020 9   1008784.044 7
                  20276625.557    -1089214.554 8
  20300432.393    20300438.189     -681013.249 8   1146557.820 7
 86  6 16 23  6 23.0800000  0  4G 6G 8G 9G11
  20235363.930    20235368.237     -639071.437 9    837050.143 9
  20090363.490    20090368.517     -181283.567 9   1016868.043 8
                  20283395.573    -1098934.451 8
  20298243.078    20298247.366     -692524.907 8   1137587.711 7
 86  6 16 23  6 29.0800000  0  4G 6G 8G 9G11
  20233585.359    20233589.163     -648421.476 8    829764.405 9
  20092342.433    20092346.443     -170885.334 9   1024970.561 8
                  20290081.801    -1108646.082 8
  20296054.930    20296060.901     -704015.415 8   1128634.079 7
 86  6 16 23  6 35.0800000  0  4G 6G 8G 9G11
  20231806.947    20231811.801     -657762.932 8    822485.350 8
  20094324.875    20094330.368     -160463.410 8   1033091.534 7
                  20296943.860    -1118349.446 8
  20293872.899    20293878.855     -715484.728 8   1119696.948 7
 86  6 16 23  6 41.0800000  0  4G 6G 8G 9G11
  20230030.728    20230035.370     -667095.740 8    815213.039 7
  20096313.706    20096317.718     -150017.666 7   1041231.074 6
                  20303807.237    -1128044.543 8
  20291694.781    20291699.567     -726932.807 8   1110776.375 7
 86  6 16 23  6 47.0800000  0  4G 6G 8G 9G11
  20228256.671    20228261.157     -676419.847 8    807947.497 8
  20098305.652    20098310.073     -139548.192 7   1049389.107 6
                  20310585.673    -1137731.373 8
  20289519.886    20289525.081     -738359.595 8   1101872.393 7
 86  6 16 23  6 53.0800000  0  4G 6G 8G 9G11
  20226484.388    20226487.831     -685735.216 8    800688.768 8
  20100302.507    20100306.711     -129054.871 8   1057565.714 7
                  20317276.193    -1147409.937 8
  20287350.035    20287354.195     -749765.068 8   1092985.008 7
 86  6 16 23  6 59.0800000  0  4G 6G 8G 9G11
  20224713.173    20224716.516     -695041.786 8    793436.901 8
  20102303.850    20102309.304     -118537.817 7   1065760.840 6
                  20324057.121    -1157080.233 8
  20285183.124    20285189.546     -761149.198 9   1084114.278 6
 86  6 16 23  7  5.0800000  0  4G 6G 8G 9G11
  20222943.614    20222947.975     -704339.494 9    786191.934 8
  20104308.838    20104314.537     -107996.824 8   1073974.585 7
                  20331015.681    -1166742.264 8
  20283021.166    20283025.898     -772511.850 8   1075260.264 7
 86  6 16 23  7 11.0800000  0  4G 6G 8G 9G11
  20221176.251    20221179.758     -713628.201 9    778953.978 8
  20106319.691    20106324.383      -97431.958 7   1082206.967 7
                  20337886.326    -1176396.027 8
  20280862.891    20280868.253     -783852.993 8   1066423.020 8
 86  6 16 23  7 17.0800000  0  4G 6G 8G 9G11
  20219410.376    20219414.365     -722907.958 8    771723.003 8
  20108333.989    20108339.117      -86843.259 7   1090457.890 6
                  20344672.705    -1186041.523 8
  20278709.472    20278715.234     -795172.659 9   1057602.514 7
 86  6 16 23  7 23.0800000  0  3G 6G 8G11
  20217645.829    20217649.468     -732178.722 9    764499.044 8
  20110353.456    20110359.137      -76230.763 7   1098727.361 7
  20276558.745    20276564.398     -806470.789 3   1048798.771 4
 86  6 16 23  7 29.0800000  0  3G 6G 8G11
  20215883.463    20215887.999     -741440.575 9    757282.006 8
  20112378.969    20112383.319      -65594.537 8   1107015.357 8
  20274413.691    20274417.840     -817747.495 8   1040011.730 7
 86  6 16 23  7 35.0800000  0  3G 6G 8G11
  20214122.847    20214125.759     -750693.651 9    750071.825 8
  20114407.032    20114411.384      -54934.675 7   1115321.730 7
  20272270.967    20272276.305     -829002.835 8   1031241.351 7
 86  6 16 23  7 41.0800000  0  3G 6G 8G11
  20212362.734    20212368.675     -759937.877 9    742868.530 8
  20116438.666    20116444.348      -44251.208 7   1123646.505 7
  20270134.311    20270138.839     -840236.823 8   1022487.601 6
 86  6 16 23  7 47.0800000  0  3G 6G 8G11
  20210605.950    20210610.998     -769173.301 8    735672.098 8
  20118476.028    20118481.752      -33544.298 7   1131989.546 7
  20267999.603    20268005.417     -851449.516 8   1013750.436 7
 86  6 16 23  7 53.0800000  0  3G 6G 8G11
  20208850.339    20208853.706     -778400.002 9    728482.471 9
  20120518.266    20120520.901      -22813.969 6   1140350.848 6
  20265869.687    20265875.666     -862640.900 9   1005029.882 8
 86  6 16 23  7 59.0800000  0  3G 6G 8G11
  20207096.820    20207102.478     -787617.876 4    721299.706 5
  20122564.817    20122570.058      -12060.199 6   1148730.408 5
  20263744.492    20263749.591     -873810.936 9    996325.964 2
 86  6 16 23  8  5.0800000  0  3G 6G 8G11
  20205343.612    20205347.442     -796826.807 9    714123.921 8
  20124615.194    20124620.935       -1282.905 8   1157128.303 7
  20261621.682    20261628.284     -884959.467 8    987638.801 8
 86  6 16 23  8 11.0800000  0  4G 6G 8G 9G11
  20203593.276    20203597.345     -806026.801 8    706955.088 9
  20126671.014    20126676.983        9517.974 8   1165544.563 8
                  22685690.694    -1852215.521 9
  20259506.211    20259509.679     -896086.538 8    978968.360 7
 86  6 16 23  8 17.0800000  0  4G 6G 8G 9G11
  20201843.695    20201849.578     -815217.750 9    699793.317 7
  20128731.244    20128736.394       20342.350 9   1173979.153 7
                  22682291.710    -1870095.810 9
  20257392.257    20257399.045     -907192.073 8    970314.693 7
 86  6 16 23  8 23.0800000  0  4G 6G 8G 9G11
  20200096.975    20200101.785     -824399.660 9    692638.584 8
  20130795.306    20130800.334       31190.195 8   1182432.015 8
                  22678915.679    -1887977.665 8
  20255282.223    20255288.124     -918276.112 9    961677.788 7
 86  6 16 23  8 29.0800000  0  4G 6G 8G 9G11
  20198350.946    20198355.928     -833572.628 8    685490.815 7
  20132864.583    20132869.050       42061.445 9   1190903.115 7
  22675512.224    22675517.725    -1905859.694 8   2530436.404 8
  20253178.772    20253183.056     -929338.620 8    953057.655 7
 86  6 16 23  8 35.0800000  0  4G 6G 8G 9G11
  20196607.046    20196612.199     -842736.535 8    678350.112 8
  20134936.890    20134941.987       52956.161 9   1199392.518 8
  22672108.718    22672114.720    -1923742.506 8   2516501.748 7
  20251077.725    20251082.023     -940379.620 8    944454.271 7
 86  6 16 23  8 41.0800000  0  4G 6G 8G 9G11
  20194864.426    20194868.910     -851891.460 9    671216.408 9
  20137014.782    20137019.700       63874.228 9   1207900.094 7
  22668705.863    22668711.737    -1941626.251 9   2502566.383 7
  20248979.797    20248985.998     -951399.178 9    935867.603 6
 86  6 16 23  8 47.0800000  0  4G 6G 8G 9G11
  20193124.449    20193129.538     -861037.396 8    664089.704 8
  20139097.728    20139102.206       74815.643 8   1216425.873 8
  22665302.472    22665308.045    -1959510.807 9   2488630.375 7
  20246886.991    20246891.161     -962397.241 8    927297.695 7
 86  6 16 23  8 53.0800000  0  4G 6G 8G 9G11
  20191385.836    20191390.617     -870174.197 8    656970.122 8
  20141183.808    20141188.865       85780.441 8   1224969.877 7
  22661898.508    22661903.896    -1977396.144 8   2474693.765 7
  20244798.193    20244802.577     -973373.700 9    918744.613 8
 86  6 16 23  8 59.0800000  0  4G 6G 8G 9G11
  20189649.029    20189653.656     -879301.843 9    649857.674 8
  20143275.332    20143280.426       96768.719 9   1233532.171 8
  22658496.068    22658501.334    -1995282.211 9   2460756.563 7
  20242715.290    20242718.672     -984328.489 8    910208.410 7
 86  6 16 23  9  5.0800000  0  4G 6G 8G 9G11
  20785498.629    20785502.748     -888429.204 9    642769.916 7
  20742953.215    20742956.854      107764.682 9   1242124.929 8
  23252675.538    23252681.113    -2013175.049 8   2446838.587 8
  20838217.604    20838222.808     -995269.954 8    901707.068 6
 86  6 16 23  9 11.0800000  0  4G 6G 8G 9G11
  20783764.608    20783767.644     -897538.415 9    635671.842 8
  20745052.296    20745058.038      118799.686 8   1250723.631 7
  23249271.857    23249277.529    -2031062.496 9   2432900.322 8
  20836141.348    20836147.070    -1006181.456 9    893204.611 7
 86  6 16 23  9 17.0800000  0  4G 6G 8G 9G11
  20782033.510    20782036.413     -906638.381 9    628580.949 7
  20747156.206    20747161.943      129858.099 8   1259340.567 7
  23245868.149    23245872.365    -2048950.664 8   2418961.503 6
  20834068.767    20834074.409    -1017071.238 7    884719.067 7
 86  6 16 23  9 23.0800000  0  4G 6G 8G 9G11
  20780302.294    20780307.118     -915729.144 9    621497.248 7
  20749264.332    20749269.567      140939.822 9   1267975.674 7
  23242463.895    23242469.181    -2066839.456 8   2405022.178 7
  20831999.333    20832006.655    -1027939.345 8    876250.420 7
 86  6 16 23  9 29.0800000  0  4G 6G 8G 9G11
  20778574.985    20778578.109     -924810.677 9    614420.713 9
  20751378.265    20751382.957      152044.824 9   1276628.916 7
  23239059.815    23239065.139    -2084728.993 9   2391082.298 7
  20829936.420    20829940.952    -1038785.839 8    867798.614 7
 86  6 16 23  9 35.0800000  0  4G 6G 8G 9G11
  20776848.262    20776852.694     -933883.023 9    607351.360 8
  20753495.913    20753500.799      163173.019 8   1285300.233 8
  23235653.481    23235659.299    -2102619.227 8   2377141.853 7
  20827876.918    20827880.612    -1049610.696 9    859363.672 7
 86  6 16 23  9 41.0800000  0  4G 6G 8G 9G11
  20775123.581    20775127.681     -942946.241 8    600289.120 8
  20755618.384    20755623.116      174324.374 9   1293989.598 7
  23232251.138    23232254.873    -2120510.243 7   2363200.823 8
  20825821.080    20825826.070    -1060413.907 8    850945.579 7
 86  6 16 23  9 47.0800000  0  4G 6G 8G 9G11
  20773400.863    20773405.839     -952000.226 8    593234.052 8
  20757744.520    20757750.294      185498.853 8   1302696.989 8
  23228845.668    23228849.995    -2138402.051 8   2349259.165 7
  20823769.036    20823775.804    -1071195.483 8    842544.355 7
 86  6 16 23  9 53.0800000  0  4G 6G 8G 9G11
  20771679.563    20771683.970     -961044.939 9    586186.229 8
  20759875.521    20759880.753      196696.515 8   1311422.429 8
  23225441.989    23225446.233    -2156294.578 8   2335316.957 9
  20821721.447    20821726.890    -1081955.344 8    834160.068 8
 86  6 16 23  9 59.0800000  0  4G 6G 8G 9G11
  20769959.680    20769963.215     -970080.358 9    579145.651 8
  20762011.673    20762015.859      207917.306 9   1320165.909 8
  23222036.685    23222041.115    -2174187.799 8   2321374.184 7
  20819677.607    20819682.749    -1092693.480 7    825792.683 8
 86  6 16 23 10  5.0800000  0  4G 6G 8G 9G11
  20768242.663    20768246.803     -979106.427 9    572112.352 8
  20764151.212    20764154.775      219161.261 9   1328927.422 8
  23218631.727    23218636.036    -2192081.523 8   2307431.035 7
  20817638.486    20817643.574    -1103409.855 9    817442.267 7
 86  6 16 23 10 11.0800000  0  4G 6G 8G 9G11
  20766526.330    20766530.203     -988123.222 8    565086.288 9
  20766294.051    20766299.814      230428.317 8   1337706.957 8
  23215226.273    23215230.763    -2209975.974 8   2293487.319 7
  20815603.948    20815608.773    -1114104.529 7    809108.757 8
 86  6 16 23 10 17.0800000  0  4G 6G 8G 9G11
  20764813.581    20764817.184     -997130.652 9    558067.498 8
  20768443.465    20768448.565      241718.473 8   1346504.466 7
  23211819.824    23211825.989    -2227870.981 9   2279543.173 8
  20813571.925    20813578.321    -1124777.467 9    800792.192 6
 86  6 16 23 10 23.0800000  0  4G 6G 8G 9G11
  20763100.908    20763104.665    -1006128.765 9    551055.987 7
  20770596.013    20770599.997      253031.685 8   1355319.974 7
  23208415.398    23208420.229    -2245766.641 9   2265598.510 7
  20811545.619    20811551.432    -1135428.692 9    792492.539 7
 86  6 16 23 10 29.0800000  0  4G 6G 8G 9G11
  20761390.003    20761393.118    -1015117.559 9    544051.742 7
  20772752.982    20772757.584      264367.878 9   1364153.348 8
  23205010.183    23205013.210    -2263662.907 9   2251653.359 7
  20809522.531    20809528.628    -1146058.245 8    784209.775 7
 86  6 16 23 10 35.0800000  0  4G 6G 8G 9G11
  20759680.866    20759684.899    -1024096.960 9    537054.795 7
  20774914.108    20774921.138      275727.073 8   1373004.676 9
  23201605.153    23201608.916    -2281559.897 9   2237707.675 7
  20807504.718    20807510.022    -1156666.105 8    775943.918 8
 86  6 16 23 10 41.0800000  0  4G 6G 8G 9G11
  20757974.824    20757977.579    -1033066.998 9    530065.161 8
  20777080.787    20777085.437      287109.257 8   1381873.919 8
  23198198.475    23198203.271    -2299457.398 9   2223761.601 7
  20805489.516    20805495.479    -1167252.153 8    767695.041 7
 86  6 16 23 10 47.0800000  0  4G 6G 8G 9G11
  20756268.876    20756274.270    -1042027.616 9    523082.861 7
  20779251.129    20779256.970      298514.411 8   1390761.046 7
  23194792.300    23194796.264    -2317355.536 9   2209814.993 8
  20803479.616    20803485.623    -1177816.386 8    759463.188 7
 86  6 16 23 10 53.0800000  0  4G 6G 8G 9G11
  20754565.822    20754569.730    -1050978.796 9    516107.915 8
  20781426.173    20781430.853      309942.504 8   1399666.060 8
  23191386.080    23191391.088    -2335254.268 8   2195867.943 7
  20801471.783    20801478.507    -1188358.771 9    751248.347 7
 86  6 16 23 10 59.0800000  0  4G 6G 8G 9G11
  20752865.212    20752868.257    -1059920.527 9    509140.342 7
  20783604.832    20783609.068      321393.542 8   1408588.946 7
  23187981.274    23187984.087    -2353153.553 8   2181920.453 8
  20799471.762    20799476.670    -1198879.369 8    743050.483 7
 86  6 16 23 11  5.0800000  0  4G 6G 8G 9G11
  20751164.615    20751168.198    -1068852.815 9    502180.112 8
  20785788.730    20785792.699      332867.438 9   1417529.637 7
  23184573.625    23184578.098    -2371053.508 8   2167972.448 7
  20797472.985    20797479.089    -1209378.269 9    734869.538 8
 86  6 16 23 11 11.0800000  0  4G 6G 8G 9G11
  20749467.380    20749470.335    -1077775.711 9    495227.210 8
  20787976.634    20787980.976      344364.147 9   1426488.101 7
  23181166.896    23181173.404    -2388954.072 9   2154023.984 8
  20795478.365    20795484.723    -1219855.440 8    726705.509 8
 86  6 16 23 11 17.0800000  0  4G 6G 8G 9G11
  20747771.166    20747773.191    -1086689.147 9    488281.684 7
  20790167.649    20790172.490      355883.686 9   1435464.383 8
  23177760.678    23177764.805    -2406855.052 8   2140075.172 8
  20793491.221    20793496.155    -1230310.773 8    718558.503 7
 86  6 16 23 11 23.0800000  0  4G 6G 8G 9G11
  20746076.649    20746079.326    -1095592.997 9    481343.619 8
  20792363.947    20792369.697      367426.103 9   1444458.461 8
  23174353.617    23174358.914    -2424756.611 9   2126125.925 7
  20791504.192    20791509.519    -1240744.216 8    710428.548 8
 86  6 16 23 11 29.0800000  0  4G 6G 8G 9G11
  20744384.319    20744388.364    -1104487.198 9    474413.073 9
  20794564.633    20794569.360      378991.382 8   1453470.371 7
  23170947.402    23170951.615    -2442658.627 9   2112176.316 8
  20789523.369    20789528.644    -1251155.706 8    702315.699 8
 86  6 16 23 11 35.0800000  0  4G 6G 8G 9G11
  20742693.695    20742696.204    -1113371.893 9    467489.935 8
  20796770.119    20796775.256      390579.554 8   1462500.101 8
  23167541.577    23167545.272    -2460561.065 8   2098226.380 7
  20787546.255    20787552.589    -1261545.226 8    694219.981 8
 86  6 16 23 11 41.0800000  0  4G 6G 8G 9G11
  20741004.813    20741007.785    -1122246.881 8    460574.344 9
  20798979.897    20798983.549      402190.565 8   1471547.641 8
  23164134.306    23164138.648    -2478463.817 9   2084276.173 7
  20785573.336    20785579.461    -1271912.778 7    686141.377 7
 86  6 16 23 11 47.0800000  0  4G 6G 8G 9G11
  20739316.844    20739319.484    -1131112.248 9    453666.280 8
  20801194.701    20801198.921      413824.379 9   1480612.953 8
  23160727.316    23160732.751    -2496367.065 8   2070325.609 7
  20783604.798    20783609.899    -1282258.433 8    678079.829 7
 86  6 16 23 11 53.0800000  0  4G 6G 8G 9G11
  20737632.626    20737635.763    -1139967.929 9    446765.749 8
  20803413.313    20803416.393      425480.940 9   1489695.983 8
  23157319.205    23157323.666    -2514270.688 8   2056374.751 8
  20781639.628    20781644.350    -1292582.148 7    670035.372 7
 86  6 16 23 11 59.0800000  0  4G 6G 8G 9G11
  20735949.235    20735952.675    -1148814.124 9    439872.620 8
  20805635.034    20805639.168      437160.093 9   1498796.615 8
  23153912.890    23153917.581    -2532174.891 9   2042423.430 8
  20779680.494    20779686.022    -1302884.080 8    662007.899 7
 86  6 16 23 12  5.0800000  0  4G 6G 8G 9G11
  20734267.991    20734271.247    -1157650.711 9    432986.962 8
  20807861.859    20807865.769      448861.948 8   1507914.957 8
  23150505.471    23150510.677    -2550079.592 8   2028471.718 8
  20777723.308    20777728.601    -1313164.117 7    653997.491 7
 86  6 16 23 12 11.0800000  0  4G 6G 8G 9G11
  20732587.869    20732591.659    -1166477.582 9    426108.886 8
  20810092.318    20810096.936      460586.489 9   1517050.954 8
  23147098.549    23147104.087    -2567984.725 9   2014519.696 8
  20775771.681    20775776.927    -1323422.183 7    646004.198 8
 86  6 16 23 12 17.0800000  0  4G 6G 8G 9G11
  20730909.916    20730912.920    -1175294.732 9    419238.373 9
  20812329.037    20812332.489      472333.692 9   1526204.618 8
  23143690.592    23143697.452    -2585890.176 8   2000567.397 8
  20773822.937    20773829.490    -1333658.223 8    638028.067 7
 86  6 16 23 12 23.0800000  0  4G 6G 8G 9G11
  20729233.827    20729237.313    -1184102.215 8    412375.407 8
  20814568.119    20814573.498      484103.498 9   1535375.884 7
  23140283.499    23140289.506    -2603796.087 9   1986614.755 9
  20771880.400    20771886.137    -1343872.335 8    630069.037 8
 86  6 16 23 12 29.0800000  0  4G 6G 8G 9G11
  20727559.220    20727563.253    -1192900.096 8    405519.923 8
  20816811.877    20816816.135      495895.774 9   1544564.675 7
  23136874.551    23136880.152    -2621702.434 8   1972661.765 9
  20769941.129    20769944.685    -1354064.605 8    622127.002 7
 86  6 16 23 12 35.0800000  0  4G 6G 8G 9G11
  20725887.794    20725891.738    -1201688.423 8    398671.881 8
  20819059.364    20819064.019      507710.485 9   1553770.940 8
  23133467.458    23133473.597    -2639609.331 8   1958708.351 8
  20768005.189    20768009.814    -1364235.032 8    614201.993 7
 86  6 16 23 12 41.0800000  0  4G 6G 8G 9G11
  20724216.503    20724219.975    -1210467.076 9    391831.368 9
  20821312.375    20821317.208      519547.663 9   1562994.720 8
  23130059.644    23130065.765    -2657516.669 7   1944754.611 8
  20766073.561    20766079.677    -1374383.569 8    606294.039 7
 86  6 16 23 12 47.0800000  0  4G 6G 8G 9G11
  20722548.047    20722552.043    -1219236.089 9    384998.376 9
  20823570.690    20823574.180      531407.243 9   1572235.946 7
  23126652.474    23126658.918    -2675424.417 7   1930800.514 9
  20764147.201    20764152.298    -1384510.255 8    598403.141 7
 86  6 16 23 12 53.0800000  0  4G 6G 8G 9G11
  20720880.955    20720884.781    -1227995.354 9    378172.969 8
  20825830.549    20825834.914      543289.286 9   1581494.678 8
  23123246.214    23123250.469    -2693332.611 9   1916846.098 7
  20762224.033    20762229.366    -1394614.982 8    590529.325 8
 86  6 16 23 12 59.0800000  0  4G 6G 8G 9G11
  20719216.261    20719219.833    -1236744.884 9    371355.162 8
  20828096.076    20828100.181      555193.767 9   1590770.900 7
  23119836.753    23119842.340    -2711241.195 8   1902891.365 9
  20760304.335    20760311.451    -1404697.696 8    582672.671 8
 86  6 16 23 13  5.0800000  0  4G 6G 8G 9G11
  20717553.527    20717557.048    -1245484.562 9    364545.031 8
  20830365.599    20830370.606      567120.719 9   1600064.626 7
  23116430.030    23116434.388    -2729150.075 7   1888936.417 8
  20758390.231    20758395.596    -1414758.387 8    574833.185 9
 86  6 16 23 13 11.0800000  0  4G 6G 8G 9G11
  20715891.067    20715895.513    -1254214.364 8    357742.585 9
  20832639.101    20832645.247      579070.141 9   1609375.857 8
  23113022.376    23113026.483    -2747059.249 7   1874981.208 8
  20756480.384    20756486.661    -1424797.035 8    567010.861 7
 86  6 16 23 13 17.0800000  0  4G 6G 8G 9G11
  20714232.392    20714234.976    -1262934.324 9    350947.813 8
  20834917.772    20834922.506      591042.023 9   1618704.600 7
  23109613.305    23109617.678    -2764968.668 8   1861025.827 8
  20754574.966    20754579.599    -1434813.636 9    559205.726 7
 86  6 16 23 13 23.0800000  0  4G 6G 8G 9G11
  20712574.956    20712578.655    -1271644.327 9    344160.799 8
  20837200.497    20837204.181      603036.377 9   1628050.854 8
  23106203.173    23106210.728    -2782878.257 7   1847070.312 9
  20752671.955    20752678.708    -1444808.168 9    551417.783 8
 86  6 16 23 13 29.0800000  0  4G 6G 8G 9G11
  20710919.985    20710922.750    -1280344.401 9    337381.536 8
  20839486.297    20839491.652      615053.207 9   1637414.598 8
  23102797.825    23102802.404    -2800788.060 7   1833114.651 7
  20750775.387    20750780.654    -1454780.526 7    543647.112 8
 86  6 16 23 13 35.0800000  0  4G 6G 8G 9G11
  20709265.043    20709269.735    -1289034.422 9    330610.080 9
  20841777.332    20841783.082      627092.491 9   1646795.869 8
  23099389.013    23099394.556    -2818697.967 7   1819158.888 8
  20748880.504    20748885.742    -1464730.739 7    535893.710 7
 86  6 16 23 13 41.0800000  0  4G 6G 8G 9G11
  20707614.223    20707618.701    -1297714.514 8    323846.376 9
  20844072.231    20844078.620      639154.076 9   1656194.510 8
  23095980.434    23095986.827    -2836608.185 6   1805202.893 8
  20746991.165    20746998.288    -1474658.888 8    528157.505 8
 86  6 16 23 13 47.0800000  0  4G 6G 8G 9G11
  20705963.424    20705968.148    -1306384.700 9    317090.382 8
  20846372.508    20846377.124      651237.932 8   1665610.498 8
  23092572.274    23092578.492    -2854518.655 6   1791246.692 8
  20745107.023    20745111.973    -1484564.930 8    520438.509 7
 86  6 16 23 13 53.0800000  0  4G 6G 8G 9G11
  20704316.729    20704320.955    -1315045.000 9    310342.095 9
  20848675.372    20848680.247      663344.064 8   1675043.851 8
  23089165.034    23089170.163    -2872429.330 7   1777290.339 8
  20743226.403    20743231.084    -1494448.887 8    512736.738 8
 86  6 16 23 13 59.0800000  0  4G 6G 8G 9G11
  20702668.592    20702674.106    -1323695.323 9    303601.597 8
  20850983.626    20850989.086      675472.439 9   1684494.524 8
  23085755.678    23085761.084    -2890340.237 7   1763333.797 9
  20741349.601    20741355.501    -1504310.721 8    505052.196 8
 86  6 16 23 14  5.0800000  0  4G 6G 8G 9G11
  20701025.333    20701028.856    -1332335.700 9    296868.828 9
  20853295.715    20853301.152      687622.975 9   1693962.471 7
  23082347.134    23082354.615    -2908251.453 7   1749377.019 8
  20739476.521    20739482.741    -1514150.496 8    497384.836 8
 86  6 16 23 14 11.0800000  0  4G 6G 8G 9G11
  20699382.376    20699387.980    -1340966.181 9    290143.784 8
  20855613.546    20855617.370      699795.632 9   1703447.667 8
  23078938.063    23078943.366    -2926162.953 7   1735420.026 7
  20737607.867    20737614.057    -1523968.242 9    489734.659 8
 86  6 16 23 14 17.0800000  0  4G 6G 8G 9G11
  20697742.921    20697747.587    -1349586.653 9    283426.542 8
  20857933.629    20857938.078      711990.459 9   1712950.129 8
  23075529.290    23075535.952    -2944074.655 6   1721462.853 7
  20735743.946    20735750.275    -1533763.841 8    482101.732 8
 86  6 16 23 14 23.0800000  0  4G 6G 8G 9G11
  20696104.716    20696108.223    -1358197.069 9    276717.122 7
  20860257.833    20860262.130      724207.473 9   1722469.877 8
  23072122.005    23072128.093    -2961986.528 7   1707505.579 8
  20733884.861    20733890.058    -1543537.229 9    474486.107 7
 86  6 16 23 14 29.0800000  0  4G 6G 8G 9G11
  20694466.661    20694471.673    -1366797.394 9    270015.569 8
  20862587.359    20862592.084      736446.728 9   1732006.950 7
  23068713.058    23068718.979    -2979898.449 7   1693548.266 8
  20732028.699    20732033.930    -1553288.411 7    466887.786 7
 86  6 16 23 14 35.0800000  0  4G 6G 8G 9G11
  20692832.351    20692836.982    -1375387.588 9    263321.918 8
  20864920.920    20864926.196      748708.175 9   1741561.322 8
  23065305.247    23065309.476    -2997810.474 7   1679590.838 8
  20730178.014    20730183.572    -1563017.358 8    459306.798 7
 86  6 16 23 14 41.0800000  0  4G 6G 8G 9G11
  20691198.506    20691204.242    -1383967.591 8    256636.204 8
  20867258.490    20867261.699      760991.730 9   1751132.929 7
  23061894.939    23061900.718    -3015722.509 7   1665633.426 8
  20728330.260    20728336.486    -1572724.036 9    451743.152 7
 86  6 16 23 14 47.0800000  0  4G 6G 8G 9G11
  20689569.111    20689574.658    -1392537.486 9    249958.363 8
  20869599.120    20869604.757      773297.363 9   1760721.730 8
  23058487.551    23058492.697    -3033634.614 7   1651675.965 9
  20726487.493    20726493.233    -1582408.540 8    444196.800 7
 86  6 16 23 14 53.0800000  0  4G 6G 8G 9G11
  20687939.018    20687944.654    -1401097.249 9    243288.419 8
  20871945.321    20871949.843      785625.073 9   1770327.747 8
  23055078.315    23055084.230    -3051546.853 6   1637718.389 7
  20724648.756    20724654.333    -1592070.869 8    436667.707 7
 86  6 16 23 14 59.0800000  0  4G 6G 8G 9G11
  20686312.337    20686318.275    -1409646.882 9    236626.361 8
  20874296.511    20874300.757      797974.763 9   1779950.876 7
  23051668.992    23051675.947    -3069459.216 7   1623760.701 8
  20722814.712    20722819.450    -1601711.035 8    429155.888 7
 86  6 16 23 15  5.0800000  0  4G 6G 8G 9G11
  20684687.381    20684691.782    -1418186.451 8    229972.156 8
  20876650.261    20876654.571      810346.424 9   1789591.133 8
  23048258.334    23048267.623    -3087371.816 7   1609802.864 9
  20720984.373    20720988.797    -1611329.000 7    421661.395 8
 86  6 16 23 15 11.0800000  0  4G 6G 8G 9G11
  20683064.120    20683070.101    -1426715.856 8    223325.874 8
  20879007.709    20879013.177      822739.982 9   1799248.451 8
  23044852.288    23044859.797    -3105284.489 6   1595844.944 8
  20719158.941    20719163.823    -1620924.809 8    414184.140 7
 86  6 16 23 15 17.0800000  0  4G 6G 8G 9G11
  20681443.958    20681448.914    -1435235.161 9    216687.452 9
  20881370.700    20881375.020      835155.458 9   1808922.841 7
  23041443.458    23041450.444    -3123197.243 6   1581886.981 7
  20717336.060    20717341.344    -1630498.436 8    406724.168 8
 86  6 16 23 15 23.0800000  0  4G 6G 8G 9G11
  20679824.589    20679829.057    -1443744.270 9    210056.982 8
  20883737.793    20883742.490      847592.847 9   1818614.307 7
  23038034.633    23038041.593    -3141110.091 7   1567928.935 8
  20715518.830    20715524.510    -1640049.868 8    399281.494 7
 86  6 16 23 15 29.0800000  0  4G 6G 8G 9G11
  20678207.826    20678211.606    -1452243.211 7    203434.436 8
  20886108.178    20886112.831      860052.067 9   1828322.799 8
  23034625.789    23034633.854    -3159022.996 6   1553970.827 8
  20713705.060    20713711.383    -1649579.084 8    391856.133 8
 86  6 16 23 15 35.0800000  0  4G 6G 8G 9G11
  20676591.826    20676596.369    -1460731.957 8    196819.821 8
  20888483.838    20888487.609      872533.086 9   1838048.263 7
  23031218.844    23031223.378    -3176936.077 7   1540012.606 8
  20711896.972    20711902.173    -1659086.119 8    384448.075 7
 86  6 16 23 15 41.0800000  0  4G 6G 8G 9G11
  20674978.370    20674983.286    -1469210.533 8    190213.155 8
  20890862.225    20890866.813      885035.930 9   1847790.736 8
  23027808.477    23027814.791    -3194849.217 7   1526054.336 7
  20710091.946    20710097.940    -1668570.918 8    377057.312 7
 86  6 16 23 15 47.0800000  0  4G 6G 8G 9G11
  20673367.286    20673371.531    -1477678.887 9    183614.443 8
  20893246.642    20893251.118      897560.598 9   1857550.223 7
  23024399.859    23024406.582    -3212762.384 7   1512096.042 7
  20708290.933    20708296.916    -1678033.514 7    369683.868 7
 86  6 16 23 15 53.0800000  0  4G 6G 8G 9G11
  20671757.546    20671762.250    -1486136.880 9    177023.791 8
  20895634.015    20895637.577      910107.071 8   1867326.683 8
  23020991.152    23020998.224    -3230675.528 7   1498137.757 8
  20706495.213    20706499.643    -1687473.825 7    362327.780 7
 86  6 16 23 15 59.0800000  0  4G 6G 8G 9G11
  20670149.968    20670153.872    -1494584.625 7    170441.130 9
  20898024.987    20898029.917      922675.310 9   1877120.116 7
  23017583.999    23017589.087    -3248588.658 7   1484179.496 9
  20704702.340    20704707.994    -1696891.909 8    354989.029 8
 86  6 16 23 16  5.0800000  0  4G 6G 8G 9G11
  20668543.603    20668548.908    -1503022.048 9    163866.517 8
  20900421.022    20900425.457      935265.266 9   1886930.477 7
  23014174.630    23014180.020    -3266501.758 6   1470221.233 7
  20702914.535    20702919.162    -1706287.697 7    347667.645 7
 86  6 16 23 16 11.0800000  0  4G 6G 8G 9G11
  20666941.116    20666946.274    -1511449.189 9    157299.917 8
  20902820.912    20902825.862      947876.941 9   1896757.753 8
  23010765.285    23010770.694    -3284414.825 7   1456263.015 7
  20701130.206    20701136.440    -1715661.237 7    340363.602 7
 86  6 16 23 16 17.0800000  0  4G 6G 8G 9G11
  20665339.130    20665343.772    -1519865.935 9    150741.419 8
  20905224.494    20905230.360      960510.351 9   1906601.960 8
  23007357.491    23007362.199    -3302327.895 8   1442304.798 7
  20699351.127    20699357.656    -1725012.463 8    333076.921 7
 86  6 16 23 16 23.0800000  0  4G 6G 8G 9G11
  20663739.826    20663744.376    -1528272.317 8    144191.004 9
  20907632.996    20907637.552      973165.445 9   1916463.074 8
  23003948.621    23003953.446    -3320240.903 8   1428346.609 8
  20697575.511    20697581.964    -1734341.373 8    325807.650 7
 86  6 16 23 16 29.0800000  0  4G 6G 8G 9G11
  20662142.269    20662146.591    -1536668.241 8    137648.720 8
  20910045.365    20910049.856      985842.268 9   1926341.115 7
  23000540.357    23000547.097    -3338153.776 7   1414388.530 8
  20695804.104    20695811.260    -1743647.874 9    318555.840 7
 86  6 16 23 16 35.0800000  0  4G 6G 8G 9G11
  20660547.194    20660551.071    -1545053.765 9    131114.550 8
  20912462.330    20912465.605      998540.739 9   1936236.022 8
  22997130.308    22997136.392    -3356066.504 8   1400430.580 8
  20694037.656    20694043.640    -1752932.046 7    311321.425 8
 86  6 16 23 16 41.0800000  0  4G 6G 8G 9G11
  20658952.380    20658956.839    -1553428.813 9    124588.545 8
  20914882.653    20914887.349     1011260.841 9   1946147.790 8
  22993723.544    22993727.714    -3373979.103 8   1386472.716 7
  20692275.280    20692279.950    -1762193.858 8    304104.439 8
 86  6 16 23 16 47.0800000  0  4G 6G 8G 9G11
  20657360.839    20657365.608    -1561793.377 9    118070.700 9
  20917308.671    20917311.944     1024002.607 9   1956076.438 8
  22990313.761    22990318.921    -3391891.521 8   1372514.997 8
  20690518.183    20690523.343    -1771433.263 8    296904.906 7
 86  6 16 23 16 53.0800000  0  4G 6G 8G 9G11
  20655772.560    20655775.833    -1570147.336 9    111561.127 8
  20919736.122    20919741.175     1036766.090 8   1966022.010 8
  22986904.286    22986911.032    -3409803.695 8   1358557.479 8
  20688764.533    20688769.662    -1780650.157 8    289722.918 6
 86  6 16 23 16 59.0800000  0  4G 6G 8G 9G11
  20654184.130    20654187.761    -1578490.773 8    105059.749 8
  20922169.970    20922173.762     1049551.194 9   1975984.418 8
  22983495.531    22983502.096    -3427715.648 8   1344600.135 8
  20687013.432    20687018.350    -1789844.569 8    282558.445 7
 86  6 16 23 17  5.0800000  0  4G 6G 8G 9G11
  20652598.420    20652602.278    -1586823.646 9     98566.604 9
  20924605.977    20924610.508     1062357.864 9   1985963.638 7
  22980088.403    22980092.834    -3445627.352 7   1330642.962 9
  20685269.018    20685275.319    -1799016.626 8    275411.394 8
 86  6 16 23 17 11.0800000  0  4G 6G 8G 9G11
  20651015.188    20651018.999    -1595145.990 9     92081.666 8
  20927047.850    20927050.932     1075186.128 9   1995959.690 8
  22976681.084    22976685.002    -3463538.866 8   1316685.957 8
  20683527.257    20683533.115    -1808166.203 9    268281.870 7
 86  6 16 23 17 17.0800000  0  4G 6G 8G 9G11
  20649433.198    20649437.020    -1603457.689 9     85605.013 8
  20929491.936    20929496.481     1088035.908 9   2005972.498 8
  22973271.375    22973275.568    -3481450.111 8   1302729.138 7
  20681790.378    20681795.896    -1817293.335 7    261169.811 7
 86  6 16 23 17 23.0800000  0  4G 6G 8G 9G11
  20647852.905    20647857.469    -1611758.683 9     79136.712 9
  20931942.766    20931945.018     1100907.268 9   2016002.125 7
  22969862.923    22969868.406    -3499361.082 8   1288772.550 8
  20680057.963    20680063.333    -1826397.967 8    254075.299 8
 86  6 16 23 17 29.0800000  0  4G 6G 8G 9G11
  20646275.499    20646278.593    -1620049.009 8     72676.717 7
  20934395.476    20934400.599     1113800.211 8   2026048.575 7
  22966454.739    22966459.419    -3517271.694 8   1274816.231 7
  20678329.955    20678335.753    -1835479.982 8    246998.424 8
 86  6 16 23 17 35.0800000  0  4G 6G 8G 9G11
  20644700.415    20644703.650    -1628328.571 9     66225.113 8
  20936852.794    20936856.862     1126714.706 9   2036111.819 8
  22963046.330    22963052.446    -3535181.998 8   1260860.167 7
  20676605.637    20676611.240    -1844539.467 8    239939.084 8
 86  6 16 23 17 41.0800000  0  4G 6G 8G 9G11
  20643126.788    20643130.281    -1636597.446 9     59781.835 8
  20939314.310    20939318.888     1139650.645 9   2046191.766 8
  22959638.871    22959644.992    -3553091.934 8   1246904.358 7
  20674886.644    20674890.987    -1853576.409 7    232897.315 7
 86  6 16 23 17 47.0800000  0  4G 6G 8G 9G11
  20641556.074    20641559.348    -1644855.688 8     53346.837 8
  20941780.106    20941784.779     1152608.035 9   2056288.436 8
  22956229.809    22956236.153    -3571001.653 9   1232948.754 8
  20673170.968    20673176.632    -1862590.860 7    225873.069 8
 86  6 16 23 17 53.0800000  0  4G 6G 8G 9G11
  20639986.010    20639989.822    -1653103.389 8     46920.068 9
  20944249.424    20944254.937     1165586.657 9   2066401.633 8
  22952821.374    22952827.836    -3588911.209 8   1218993.279 8
  20671459.417    20671465.176    -1871582.951 7    218866.259 7
 86  6 16 23 17 59.0800000  0  4G 6G 8G 9G11
  20638418.964    20638422.278    -1661340.449 9     40501.587 8
  20946723.321    20946727.910     1178586.566 9   2076531.430 8
  22949414.163    22949419.798    -3606820.468 8   1205038.023 8
  20669752.559    20669759.052    -1880552.580 8    211876.941 7
 86  6 16 23 18  5.0800000  0  4G 6G 8G 9G11
  20636852.473    20636856.652    -1669566.858 9     34091.399 9
  20949200.147    20949207.154     1191607.727 8   2086677.785 7
  22946005.027    22946011.394    -3624729.499 8   1191082.943 7
  20668049.131    20668055.032    -1889499.753 8    204905.115 7
 86  6 16 23 18 11.0800000  0  4G 6G 8G 9G11
  20635289.913    20635292.838    -1677782.638 9     27689.495 8
  20951683.202    20951687.623     1204650.089 8   2096840.665 8
  22942598.417    22942604.478    -3642638.228 7   1177128.083 6
  20666351.293    20666357.122    -1898424.488 8    197950.789 7
 86  6 16 23 18 17.0800000  0  4G 6G 8G 9G11
  20633726.720    20633730.719    -1685987.798 8     21295.862 8
  20954169.195    20954174.326     1217713.632 9   2107020.052 7
  22939189.707    22939196.647    -3660546.775 7   1163173.397 7
  20664658.042    20664662.445    -1907326.773 7    191013.935 7
 86  6 16 23 18 23.0800000  0  4G 6G 8G 9G11
  20632168.916    20632172.327    -1694182.260 9     14910.567 9
  20956659.319    20956664.806     1230798.318 9   2117215.907 8
  22935781.950    22935786.641    -3678455.057 8   1149218.904 8
  20662968.300    20662975.250    -1916206.636 7    184094.576 7
 86  6 16 23 18 29.0800000  0  4G 6G 8G 9G11
  20630611.701    20630615.151    -1702366.053 9      8533.589 8
  20959153.716    20959157.316     1243904.137 9   2127428.231 8
  22932374.187    22932379.691    -3696363.094 8   1135264.612 8
  20661283.025    20661288.259    -1925064.120 8    177192.644 7
 86  6 16 23 18 35.0800000  0  4G 6G 8G 9G11
  20629055.891    20629059.660    -1710539.086 9      2165.004 8
  20961651.262    20961656.577     1257031.097 9   2137657.024 7
  22928967.340    22928971.390    -3714270.791 9   1121310.570 8
  20659602.270    20659608.144    -1933899.171 8    170308.199 7
 86  6 16 23 18 41.0800000  0  4G 6G 8G 9G11
  20627502.252    20627505.763    -1718701.363 9     -4195.199 8
  20964153.586    20964158.241     1270179.205 9   2147902.309 8
  22925558.822    22925564.806    -3732178.123 8   1107356.817 7
  20657923.739    20657929.594    -1942711.736 8    163441.267 7
 86  6 16 23 18 47.0800000  0  4G 6G 8G 9G11
  20625951.770    20625955.448    -1726852.899 9    -10547.052 8
  20966659.726    20966662.798     1283348.385 9   2158164.004 7
  22922151.199    22922156.660    -3750085.104 8   1093403.315 7
  20656251.191    20656256.480    -1951501.791 8    156591.869 7
 86  6 16 23 18 53.0800000  0  4G 6G 8G 9G11
  20624402.714    20624406.940    -1734993.616 8    -16890.468 8
  20969169.385    20969173.264     1296538.678 9   2168442.148 8
  22918744.158    22918748.777    -3767991.746 8   1079450.101 7
  20654582.258    20654588.156    -1960269.316 8    149760.047 7
 86  6 16 23 18 59.0800000  0  4G 6G 8G 9G11
  20622853.588    20622859.884    -1743123.528 8    -23225.459 8
  20971682.719    20971687.616     1309749.986 9   2178736.665 7
  22915336.659    22915340.751    -3785897.959 8   1065497.214 7
  20652918.555    20652924.059    -1969014.384 8    142945.716 8
 86  6 16 23 19  5.0800000  0  4G 6G 8G 9G11
  20621309.727    20621315.007    -1751242.624 8    -29552.016 8
  20974201.298    20974205.585     1322982.346 9   2189047.607 7
  22911928.927    22911933.452    -3803803.813 8   1051544.605 7
  20651259.320    20651265.025    -1977736.957 8    136148.923 7
 86  6 16 23 19 11.0800000  0  4G 6G 8G 9G11
  20619765.871    20619770.816    -1759350.824 8    -35870.092 7
  20976722.969    20976727.700     1336235.752 9   2199374.912 7
  22908522.805    22908527.750    -3821709.256 8   1037592.324 7
  20649603.539    20649609.005    -1986436.962 7    129369.690 7
 86  6 16 23 19 17.0800000  0  4G 6G 8G 9G11
  20618226.358    20618230.819    -1767448.015 9    -42179.603 8
  20979249.200    20979253.821     1349510.274 9   2209718.706 8
  22905114.816    22905119.306    -3839614.113 8   1023640.499 6
  20647953.256    20647957.713    -1995114.296 8    122608.140 7
 86  6 16 23 19 23.0800000  0  4G 6G 8G 9G11
  20616687.915    20616691.203    -1775534.179 8    -48480.502 8
  20981779.514    20981784.782     1362805.949 9   2220078.961 7
  22901707.394    22901713.363    -3857518.339 8   1009689.167 7
  20646305.957    20646309.458    -2003768.865 8    115864.334 7
 86  6 16 23 19 29.0800000  0  4G 6G 8G 9G11
  20615150.797    20615155.238    -1783609.197 8    -54772.716 8
  20984313.672    20984318.399     1376122.774 9   2230455.721 8
  22898300.186    22898306.585    -3875421.949 8    995738.298 7
  20644662.455    20644668.138    -2012400.668 8    109138.246 8
 86  6 16 23 19 35.0800000  0  4G 6G 8G 9G11
  20613615.220    20613620.177    -1791673.108 8    -61056.282 9
  20986850.873    20986855.998     1389460.697 9   2240848.905 7
  22894893.594    22894899.418    -3893324.903 9    981787.962 7
  20643023.301    20643030.582    -2021009.718 8    102429.898 7
 86  6 16 23 19 41.0800000  0  4G 6G 8G 9G11
  20612082.904    20612088.125    -1799725.903 8    -67331.188 9
  20989392.518    20989398.203     1402819.638 9   2251258.458 8
  22891487.259    22891491.449    -3911227.249 8    967838.108 7
  20641390.970    20641396.958    -2029596.115 8     95739.206 7
 86  6 16 23 19 47.0800000  0  4G 6G 8G 9G11
  20610553.912    20610557.761    -1807767.655 8    -73597.493 8
  20991939.202    20991944.371     1416199.537 8   2261684.361 8
  22888081.116    22888085.747    -3929128.968 8    953888.702 7
  20639761.640    20639766.633    -2038159.799 7     89066.212 7
 86  6 16 23 19 53.0800000  0  4G 6G 8G 9G11
  20609024.459    20609029.380    -1815798.415 9    -79855.225 9
  20994489.403    20994494.917     1429600.388 9   2272126.575 7
  22884674.106    22884679.432    -3947030.131 9    939939.753 6
  20638135.601    20638140.746    -2046700.787 9     82410.901 7
 86  6 16 23 19 59.0800000  0  4G 6G 8G 9G11
  20607497.928    20607502.781    -1823818.129 9    -86104.348 9
  20997043.806    20997048.454     1443022.106 8   2282585.046 7
  22881267.256    22881272.699    -3964930.725 8    925991.246 7
  20636513.941    20636519.139    -2055219.113 8     75773.256 7
 86  6 16 23 20  5.0800000  0  4G 6G 8G 9G11
  20605974.884    20605978.774    -1831826.759 8    -92344.828 8
  20999602.422    20999605.716     1456464.655 9   2293059.772 8
  22877861.213    22877866.041    -3982830.812 8    912043.149 7
  20634897.914    20634903.547    -2063714.772 8     69153.260 7
 86  6 16 23 20 11.0800000  0  4G 6G 8G 9G11
  20604453.194    20604459.044    -1839824.323 9    -98576.706 8
  21002164.005    21002167.439     1469927.988 7   2303550.674 8
  22874454.824    22874459.120    -4000730.320 8    898095.466 7
  20633285.893    20633291.425    -2072187.815 7     62550.898 7
 86  6 16 23 20 17.0800000  0  4G 6G 8G 9G11
  20602932.660    20602937.253    -1847810.766 9   -104799.893 8
  21004730.425    21004734.932     1483412.140 9   2314057.801 8
  22871049.735    22871054.133    -4018629.178 9    884148.319 7
  20631678.220    20631682.000    -2080638.219 8     55966.174 6
 86  6 16 23 20 23.0800000  0  4G 6G 8G 9G11
  20601415.806    20601420.144    -1855786.112 9   -111014.455 8
  21007299.317    21007304.755     1496917.030 9   2324581.085 7
  22867643.921    22867648.133    -4036527.426 9    870201.644 6
  20630074.329    20630079.461    -2089065.949 8     49399.105 7
 86  6 16 23 20 29.0800000  0  4G 6G 8G 9G11
  20599898.852    20599904.327    -1863750.403 8   -117220.395 8
  21009873.608    21009878.672     1510442.634 8   2335120.527 8
  22864237.051    22864242.265    -4054425.107 8    856255.392 7
  20628474.599    20628478.778    -2097471.100 8     42849.651 8
 86  6 16 23 20 35.0800000  0  4G 6G 8G 9G11
  20598387.299    20598390.933    -1871703.585 9   -123417.680 8
  21012451.122    21012455.633     1523988.924 9   2345676.078 7
  22860831.137    22860838.017    -4072322.190 8    842309.613 7
  20626878.861    20626884.404    -2105853.623 8     36317.814 7
 86  6 16 23 20 41.0800000  0  4G 6G 8G 9G11
  20596876.512    20596879.804    -1879645.653 8   -129606.303 8
  21015032.824    21015037.067     1537555.896 8   2356247.736 7
  22857425.961    22857432.189    -4090218.643 8    828364.337 7
  20625287.796    20625294.298    -2114213.505 8     29803.620 7
 86  6 16 23 20 47.0800000  0  4G 6G 8G 9G11
  20595366.298    20595370.242    -1887576.524 8   -135786.200 8
  21017618.638    21017623.412     1551143.474 8   2366835.464 7
  22854021.501    22854025.450    -4108114.394 8    814419.613 6
  20623702.081    20623705.295    -2122550.665 8     23307.138 7
 86  6 16 23 20 53.0800000  0  4G 6G 8G 9G11
  20593859.227    20593864.253    -1895496.232 9   -141957.398 9
  21020209.421    21020213.069     1564751.682 9   2377439.260 8
  22850615.493    22850620.578    -4126009.523 9    800475.362 7
  20622120.303    20622124.586    -2130865.142 8     16828.324 7
 86  6 16 23 20 59.0800000  0  4G 6G 8G 9G11
  20592354.072    20592357.760    -1903404.851 9   -148119.950 8
  21022802.017    21022806.172     1578380.399 8   2388059.032 7
  22847209.292    22847215.609    -4143904.130 9    786531.509 8
  20620541.848    20620545.695    -2139157.059 8     10367.091 8
 86  6 16 23 21  5.0800000  0  4G 6G 8G 9G11
  20590851.109    20590855.978    -1911302.340 8   -154273.846 8
  21025399.364    21025403.762     1592029.596 9   2398694.768 7
  22843803.954    22843809.414    -4161798.133 8    772588.132 8
  20618968.190    20618973.846    -2147426.385 9      3923.457 7
 86  6 16 23 21 11.0800000  0  4G 6G 8G 9G11
  20589350.683    20589354.675    -1919188.737 8   -160419.076 8
  21027998.994    21028004.710     1605699.238 8   2409346.429 8
  22840400.135    22840405.612    -4179691.582 8    758645.205 7
  20617398.423    20617403.505    -2155673.120 9     -2502.561 7
 86  6 16 23 21 17.0800000  0  4G 6G 8G 9G11
  20587851.625    20587855.807    -1927063.969 9   -166555.629 8
  21030605.830    21030609.445     1619389.286 9   2420014.007 7
  22836995.992    22837000.877    -4197584.353 7    744702.780 6
  20615834.842    20615839.656    -2163897.214 7     -8910.925 7
 86  6 16 23 21 23.0800000  0  4G 6G 8G 9G11
  20586355.082    20586359.502    -1934927.943 9   -172683.399 8
  21033215.095    21033219.990     1633099.808 8   2430697.527 7
  22833590.439    22833595.186    -4215476.427 9    730760.920 7
  20614272.424    20614278.622    -2172098.562 9    -15301.585 7
 86  6 16 23 21 29.0800000  0  4G 6G 8G 9G11
  20584861.629    20584865.218    -1942780.623 9   -178802.378 8
  21035827.532    21035832.039     1646830.810 9   2441397.011 7
  22830184.568    22830192.289    -4233367.786 8    716819.606 7
  20612717.617    20612721.127    -2180277.190 9    -21674.553 7
 86  6 16 23 21 35.0800000  0  4G 6G 8G 9G11
  20583368.978    20583373.023    -1950621.950 8   -184912.492 7
  21038444.472    21038446.759     1660582.367 9   2452112.501 8
  22826780.766    22826786.529    -4251258.378 8    702878.895 8
  20611164.752    20611170.437    -2188433.024 8    -28029.721 7
 86  6 16 23 21 41.0800000  0  4G 6G 8G 9G11
  20581879.410    20581884.635    -1958451.802 8   -191013.675 8
  21041064.990    21041069.869     1674354.478 8   2462844.015 8
  22823376.094    22823381.073    -4269148.083 8    688938.879 7
  20609617.382    20609623.197    -2196565.950 8    -34367.079 7
 86  6 16 23 21 47.0800000  0  4G 6G 8G 9G11
  20580391.534    20580396.339    -1966270.166 8   -197105.902 8
  21043690.051    21043694.986     1688147.146 8   2473591.548 7
  22819972.853    22819977.328    -4287036.821 8    674999.604 7
  20608074.508    20608078.036    -2204675.997 8    -40686.586 7
 86  6 16 23 21 53.0800000  0  4G 6G 8G 9G11
  20578905.555    20578909.970    -1974077.030 8   -203189.168 8
  21046318.563    21046322.258     1701960.364 8   2484355.103 9
  22816568.699    22816575.519    -4304924.542 8    661061.134 8
  20606535.288    20606540.351    -2212763.114 7    -46988.244 8
 86  6 16 23 21 59.0800000  0  4G 6G 8G 9G11
  20577421.833    20577426.724    -1981872.373 9   -209263.467 8
  21048951.883    21048956.060     1715794.093 9   2495134.618 7
  22813164.788    22813170.263    -4322811.291 9    647123.396 7
  20605001.407    20605004.431    -2220827.391 9    -53272.074 7
 86  6 16 23 22  5.0800000  0  4G 6G 8G 9G11
  20575940.689    20575945.074    -1989656.235 9   -215328.822 8
  21051586.130    21051591.746     1729648.206 8   2505930.040 8
  22809761.430    22809766.346    -4340697.187 7    633186.354 7
  20603470.377    20603475.101    -2228868.809 8    -59538.117 8
 86  6 16 23 22 11.0800000  0  4G 6G 8G 9G11
  20574461.457    20574465.534    -1997428.667 8   -221385.249 9
  21054227.556    21054232.164     1743522.683 9   2516741.304 7
  22806357.213    22806363.901    -4358582.190 7    619250.002 7
  20601944.730    20601949.634    -2236887.419 8    -65786.383 7
 86  6 16 23 22 17.0800000  0  4G 6G 8G 9G11
  20572985.380    20572989.428    -2005189.639 9   -227432.757 8
  21056871.105    21056875.265     1757417.421 8   2527568.392 7
  22802956.090    22802959.841    -4376466.327 7    605314.318 7
  20600422.372    20600427.675    -2244883.291 7    -72016.907 6
 86  6 16 23 22 23.0800000  0  4G 6G 8G 9G11
  20571509.795    20571514.375    -2012939.231 8   -233471.407 8
  21059519.565    21059524.863     1771332.422 9   2538411.228 7
  22799550.484    22799557.276    -4394349.645 8    591379.273 9
  20598905.197    20598909.807    -2252856.371 8    -78229.695 7
 86  6 16 23 22 29.0800000  0  4G 6G 8G 9G11
  20570037.871    20570042.204    -2020677.415 8   -239501.153 8
  21062170.668    21062174.162     1785267.547 8   2549269.767 8
  22796148.068    22796154.458    -4412232.195 7    577444.852 8
  20597393.342    20597397.393    -2260806.778 8    -84424.818 7
 86  6 16 23 22 35.0800000  0  4G 6G 8G 9G11
  20568568.093    20568571.787    -2028404.170 9   -245522.000 7
  21064826.311    21064832.175     1799222.849 8   2560144.034 8
  22792744.377    22792752.603    -4430113.885 7    563511.065 8
  20595883.835    20595888.575    -2268734.409 8    -90602.199 7
 86  6 16 23 22 41.0800000  0  4G 6G 8G 9G11
  20567099.732    20567103.677    -2036119.446 8   -251533.908 8
  21067486.693    21067489.577     1813198.325 8   2571034.012 7
  22789341.998    22789348.697    -4447994.734 8    549577.963 8
  20594379.850    20594384.607    -2276639.313 8    -96761.865 7
 86  6 16 23 22 47.0800000  0  4G 6G 8G 9G11
  20565632.637    20565638.166    -2043823.246 8   -257536.864 8
  21070149.090    21070154.493     1827193.920 8   2581939.657 8
  22785940.952    22785947.185    -4465874.669 7    535645.575 8
  20592880.272    20592883.904    -2284521.355 7   -102903.707 8
 86  6 16 23 22 53.0800000  0  4G 6G 8G 9G11
  20564170.044    20564173.669    -2051515.461 9   -263530.816 7
  21072817.619    21072821.179     1841209.649 8   2592861.015 8
  22782539.751    22782544.076    -4483753.637 7    521713.904 7
  20591385.362    20591389.361    -2292380.571 8   -109027.755 7
 86  6 16 23 22 59.0800000  0  4G 6G 8G 9G11
  20562709.038    20562711.957    -2059196.120 8   -269515.731 9
  21075486.875    21075492.604     1855245.500 7   2603798.040 8
  22779136.407    22779142.105    -4501631.677 7    507782.982 8
  20589892.514    20589898.626    -2300216.968 8   -115134.045 7
 86  6 16 23 23  5.0800000  0  4G 6G 8G 9G11
  20561249.315    20561253.414    -2066865.220 8   -275491.656 7
  21078162.467    21078167.755     1869301.461 9   2614750.724 8
  22775733.681    22775739.322    -4519508.717 7    493852.833 7
  20588406.559    20588411.901    -2308030.572 8   -121222.551 6
 86  6 16 23 23 11.0800000  0  4G 6G 8G 9G11
  20559792.234    20559795.195    -2074522.623 9   -281458.457 7
  21080841.567    21080845.051     1883377.555 8   2625719.114 7
  22772331.788    22772338.330    -4537384.666 6    479923.531 9
  20586923.952    20586928.064    -2315821.241 9   -127293.213 6
 86  6 16 23 23 17.0800000  0  4G 6G 8G 9G11
  20558336.452    20558340.405    -2082168.340 8   -287416.163 8
  21083522.773    21083527.716     1897473.836 8   2636703.225 7
  22768928.819    22768937.236    -4555259.573 7    465995.045 8
  20585445.820    20585449.873    -2323588.962 7   -133345.973 7
 86  6 16 23 23 23.0800000  0  4G 6G 8G 9G11
  20556884.087    20556887.617    -2089802.262 9   -293364.658 9
  21086209.621    21086214.551     1911590.236 9   2647703.009 8
  22765528.205    22765536.089    -4573133.375 8    452067.416 9
  20583971.563    20583976.727    -2331333.708 8   -139380.821 7
 86  6 16 23 23 29.0800000  0  4G 6G 8G 9G11
  20555433.514    20555437.805    -2097424.366 9   -299303.973 8
  21088899.129    21088903.879     1925726.794 8   2658718.510 8
  22762128.656    22762135.401    -4591005.986 7    438140.732 9
  20582502.985    20582507.439    -2339055.425 9   -145397.737 7
 86  6 16 23 23 35.0800000  0  4G 6G 8G 9G11
  20553984.912    20553988.943    -2105034.809 9   -305234.194 8
  21091592.463    21091598.204     1939883.330 8   2669749.580 8
  22758728.592    22758733.499    -4608877.452 6    424214.931 7
  20581038.376    20581042.473    -2346754.186 8   -151396.772 8
 86  6 16 23 23 41.0800000  0  4G 6G 8G 9G11
  20552539.623    20552544.311    -2112633.490 9   -311155.232 7
  21094290.384    21094296.102     1954059.920 8   2680796.270 7
  22755326.676    22755332.719    -4626747.823 7    410289.994 8
  20579576.604    20579581.849    -2354430.004 8   -157377.920 7
 86  6 16 23 23 47.0800000  0  4G 6G 8G 9G11
  20551096.958    20551100.559    -2120220.363 9   -317067.084 9
  21096993.122    21096997.804     1968256.519 9   2691858.554 8
  22751927.521    22751933.067    -4644617.033 7    396365.932 8
  20578121.241    20578124.664    -2362082.899 7   -163341.209 7
 86  6 16 23 23 53.0800000  0  4G 6G 8G 9G11
  20549654.088    20549657.882    -2127795.521 8   -322969.807 8
  21099699.239    21099702.695     1982472.972 8   2702936.299 7
  22748526.261    22748532.883    -4662485.219 9    382442.692 8
  20576668.571    20576673.138    -2369712.964 9   -169286.709 6
 86  6 16 23 23 59.0800000  0  4G 6G 8G 9G11
  20548213.751    20548219.354    -2135359.009 8   -328863.426 8
  21102406.309    21102411.260     1996709.259 8   2714029.516 7
  22745126.473    22745133.379    -4680352.353 7    368520.258 8
  20575221.454    20575225.127    -2377320.160 7   -175214.406 7
 86  6 16 23 24  5.0800000  0  4G 6G 8G 9G11
  20546777.200    20546781.108    -2142910.789 9   -334747.926 8
  21105118.988    21105125.024     2010965.287 8   2725138.107 7
  22741725.256    22741732.204    -4698218.445 7    354598.648 8
  20573778.455    20573782.580    -2384904.541 8   -181124.305 7
 86  6 16 23 24 11.0800000  0  4G 6G 8G 9G11
  20545343.230    20545346.943    -2150450.816 8   -340623.268 8
  21107835.399    21107840.974     2025241.197 8   2736262.192 7
  22738328.560    22738332.879    -4716083.418 8    340677.903 8
  20572338.722    20572342.716    -2392466.040 7   -187016.380 7
 86  6 16 23 24 17.0800000  0  4G 6G 8G 9G11
  20543911.051    20543914.622    -2157979.080 9   -346489.454 8
  21110556.175    21110561.332     2039536.775 9   2747401.599 6
  22734927.208    22734933.930    -4733947.397 6    326757.929 9
  20570904.253    20570908.108    -2400004.733 8   -192890.677 7
 86  6 16 23 24 23.0800000  0  4G 6G 8G 9G11
  20542479.463    20542484.267    -2165495.612 8   -352346.494 8
  21113279.157    21113285.171     2053852.092 8   2758556.405 8
  22731528.239    22731533.952    -4751810.170 7    312838.901 8
  20569473.820    20569479.860    -2407520.546 8   -198747.153 7
 86  6 16 23 24 29.0800000  0  4G 6G 8G 9G11
  20541050.515    20541055.539    -2173000.464 9   -358194.420 8
  21116007.767    21116012.736     2068187.062 8   2769726.497 8
  22728130.831    22728136.269    -4769671.850 7    298920.717 9
  20568048.018    20568052.180    -2415013.526 8   -204585.836 7
 86  6 16 23 24 35.0800000  0  4G 6G 8G 9G11
  20539624.940    20539630.433    -2180493.466 8   -364033.124 8
  21118739.183    21118744.666     2082541.672 8   2780911.902 8
  22724732.215    22724736.061    -4787532.461 8    285003.379 8
  20566626.659    20566630.569    -2422483.662 8   -210406.714 7
 86  6 16 23 24 41.0800000  0  4G 6G 8G 9G11
  20538201.418    20538207.331    -2187974.691 9   -369862.651 8
  21121475.090    21121480.636     2096915.929 8   2792112.624 8
  22721333.303    22721338.234    -4805391.981 7    271086.879 8
  20565208.847    20565214.500    -2429930.901 8   -216209.764 6
 86  6 16 23 24 47.0800000  0  4G 6G 8G 9G11
  20536780.132    20536785.496    -2195443.934 8   -375682.837 7
  21124213.994    21124219.534     2111309.851 8   2803328.661 7
  22717934.713    22717938.989    -4823250.311 8    257171.295 9
  20563795.205    20563801.049    -2437355.230 7   -221994.945 7
 86  6 16 23 24 53.0800000  0  4G 6G 8G 9G11
  20535361.567    20535365.398    -2202901.306 9   -381493.777 7
  21126957.543    21126961.990     2125723.533 8   2814560.103 8
  22714537.828    22714541.998    -4841107.243 8    243256.832 8
  20562387.905    20562393.685    -2444756.566 8   -227762.211 6
 86  6 16 23 24 59.0800000  0  4G 6G 8G 9G11
  20533944.670    20533949.938    -2210346.658 9   -387295.342 7
  21129702.370    21129708.799     2140156.853 8   2825806.842 7
  22711138.456    22711143.816    -4858962.842 8    229343.387 8
  20560985.088    20560991.324    -2452134.925 7   -233511.589 6
 86  6 16 23 25  5.0800000  0  4G 6G 8G 9G11
  20532530.653    20532534.587    -2217779.997 9   -393087.559 7
  21132452.929    21132457.974     2154609.866 9   2837068.934 8
  22707740.673    22707746.591    -4876817.157 8    215430.926 9
  20559584.048    20559588.857    -2459490.227 8   -239242.975 7
 86  6 16 23 25 11.0800000  0  4G 6G 8G 9G11
  20531119.180    20531122.855    -2225201.237 9   -398870.335 8
  21135207.507    21135212.914     2169082.625 8   2848346.424 8
  22704344.157    22704349.016    -4894670.133 7    201519.540 9
  20558188.998    20558194.277    -2466822.388 7   -244956.358 7
 86  6 16 23 25 17.0800000  0  4G 6G 8G 9G11
  20529708.698    20529713.232    -2232610.364 8   -404643.674 8
  21137965.384    21137970.639     2183575.061 7   2859639.223 6
  22700946.236    22700952.134    -4912521.680 8    187609.260 8
  20556797.102    20556802.831    -2474131.486 8   -250651.756 6
 86  6 16 23 25 23.0800000  0  4G 6G 8G 9G11
  20528301.283    20528305.313    -2240007.389 9   -410407.596 8
  21140727.200    21140732.818     2198087.068 8   2870947.281 7
  22697549.921    22697555.459    -4930371.794 7    173700.093 8
  20555412.310    20555417.303    -2481417.538 8   -256329.184 7
 86  6 16 23 25 29.0800000  0  4G 6G 8G 9G11
  20526895.339    20526899.566    -2247392.467 8   -416162.189 8
  21143492.164    21143497.577     2212618.554 9   2882270.509 8
  22694152.240    22694158.599    -4948220.642 8    159791.906 8
  20554028.938    20554034.481    -2488680.658 7   -261988.736 7
 86  6 16 23 25 35.0800000  0  4G 6G 8G 9G11
  20525491.691    20525496.877    -2254765.580 8   -421907.474 8
  21146261.022    21146266.789     2227169.437 8   2893608.867 8
  22690756.211    22690763.108    -4966068.255 8    145884.679 8
  20552651.143    20552656.785    -2495920.909 8   -267630.497 7
 86  6 16 23 25 41.0800000  0  4G 6G 8G 9G11
  20524091.508    20524095.697    -2262126.763 9   -427643.472 8
  21149034.429    21149039.881     2241739.676 8   2904962.283 7
  22687360.680    22687366.209    -4983914.592 8    131978.469 8
  20551278.948    20551284.808    -2503138.220 8   -273254.375 6
 86  6 16 23 25 47.0800000  0  4G 6G 8G 9G11
  20522692.607    20522696.883    -2269475.904 9   -433370.060 7
  21151810.213    21151816.115     2256329.284 9   2916330.821 8
  22683966.253    22683970.271    -5001759.621 8    118073.246 8
  20549909.272    20549914.016    -2510332.604 7   -278860.391 7
 86  6 16 23 25 53.0800000  0  4G 6G 8G 9G11
  20521296.927    20521300.686    -2276812.864 8   -439087.186 8
  21154590.613    21154594.852     2270938.380 9   2927714.521 7
  22680570.129    22680574.608    -5019603.197 8    104169.172 8
  20548545.624    20548548.893    -2517503.903 8   -284448.409 6
 86  6 16 23 25 59.0800000  0  4G 6G 8G 9G11
  20519902.723    20519905.647    -2284137.793 9   -444794.916 8
  21157374.666    21157378.971     2285566.854 8   2939113.337 8
  22677174.652    22677179.878    -5037445.389 8     90266.179 8
  20547184.428    20547188.809    -2524652.197 8   -290018.504 7
 86  6 16 23 26  5.0800000  0  4G 6G 8G 9G11
  20518510.619    20518515.263    -2291450.480 9   -450493.114 8
  21160161.400    21160166.250     2300214.709 8   2950527.254 8
  22673780.301    22673784.307    -5055286.147 7     76364.300 8
  20545829.255    20545832.885    -2531777.387 8   -295570.588 7
 86  6 16 23 26 11.0800000  0  4G 6G 8G 9G11
  20517122.544    20517126.441    -2298750.917 8   -456181.768 8
  21162951.988    21162957.844     2314882.006 8   2961956.310 7
  22670385.837    22670389.881    -5073125.333 8     62463.640 8
  20544477.960    20544483.103    -2538879.397 8   -301104.630 7
 86  6 16 23 26 17.0800000  0  4G 6G 8G 9G11
  20515735.248    20515739.399    -2306039.166 9   -461860.932 7
  21165747.174    21165752.891     2329568.626 9   2973400.423 7
  22666989.559    22666996.272    -5090963.067 8     48564.118 8
  20543130.084    20543134.352    -2545958.290 8   -306620.647 7
 86  6 16 23 26 23.0800000  0  4G 6G 8G 9G11
  20514350.175    20514354.252    -2313315.223 9   -467530.574 8
  21168546.337    21168551.570     2344274.559 8   2984859.596 8
  22663595.971    22663601.720    -5108799.348 8     34665.730 8
  20541786.996    20541790.999    -2553014.127 8   -312118.682 7
 86  6 16 23 26 29.0800000  0  4G 6G 8G 9G11
  20512968.620    20512972.630    -2320579.039 9   -473190.696 8
  21171348.888    21171353.003     2358999.762 8   2996333.777 7
  22660203.859    22660207.236    -5126634.196 8     20768.451 8
  20540449.248    20540453.477    -2560046.991 7   -317598.847 8
 86  6 16 23 26 35.0800000  0  4G 6G 8G 9G11
  20511588.442    20511592.599    -2327830.548 8   -478841.216 8
  21174154.167    21174159.676     2373744.298 9   3007823.029 9
  22656809.842    22656813.250    -5144467.466 8      6872.420 8
  20539115.095    20539120.619    -2567056.679 8   -323060.936 7
 86  6 16 23 26 41.0800000  0  4G 6G 8G 9G11
  20510210.949    20510215.813    -2335069.856 9   -484482.231 7
  21176963.501    21176969.437     2388508.050 9   3019327.236 7
  22653415.547    22653420.856    -5162299.243 8     -7022.467 8
  20537786.280    20537791.264    -2574043.329 7   -328505.070 7
 86  6 16 23 26 47.0800000  0  4G 6G 8G 9G11
  20508835.267    20508839.191    -2342296.868 8   -490113.664 8
  21179776.279    21179782.156     2403291.007 9   3030846.421 7
  22650023.086    22650027.706    -5180129.464 8    -20916.136 8
  20536460.325    20536464.719    -2581006.927 7   -333931.237 7
 86  6 16 23 26 53.0800000  0  4G 6G 8G 9G11
  20507462.835    20507467.385    -2349511.478 9   -495735.433 8
  21182594.940    21182598.736     2418093.187 8   3042380.596 8
  22646629.610    22646634.601    -5197958.065 8    -34808.537 8
  20535139.997    20535144.836    -2587947.411 7   -339339.422 6
 86  6 16 23 26 59.0800000  0  4G 6G 8G 9G11
  20506092.520    20506096.189    -2356713.869 8   -501347.687 8
  21185415.101    21185418.877     2432914.474 8   3053929.638 8
  22643237.513    22643243.769    -5215785.076 8    -48699.719 8
  20533823.523    20533827.039    -2594864.927 8   -344729.665 7
 86  6 16 23 27  5.0800000  0  4G 6G 8G 9G11
  20504723.455    20504728.103    -2363904.039 9   -506950.419 8
  21188238.208    21188242.385     2447754.791 8   3065493.516 7
  22639846.824    22639849.005    -5233610.652 8    -62589.763 9
  20532510.878    20532515.808    -2601759.475 8   -350102.045 6
 86  6 16 23 27 11.0800000  0  4G 6G 8G 9G11
  20503357.376    20503362.258    -2371082.004 8   -512543.634 8
  21191066.058    21191069.882     2462614.040 9   3077072.161 8
  22636455.497    22636459.168    -5251434.772 8    -76478.678 8
  20531203.273    20531209.306    -2608631.036 8   -355456.506 7
 86  6 16 23 27 17.0800000  0  4G 6G 8G 9G11
  20501995.143    20501999.238    -2378247.704 9   -518127.292 7
  21193897.675    21193901.933     2477492.264 9   3088665.566 8
  22633062.527    22633067.094    -5269257.489 8    -90366.513 8
  20529900.698    20529905.743    -2615479.547 8   -360793.000 6
 86  6 16 23 27 23.0800000  0  4G 6G 8G 9G11
  20500633.294    20500637.371    -2385401.107 8   -523701.370 9
  21196733.050    21196736.117     2492389.417 9   3100273.745 8
  22629670.370    22629676.491    -5287078.648 8   -104253.129 8
  20528600.799    20528606.091    -2622305.094 8   -366111.608 7
 86  6 16 23 27 29.0800000  0  4G 6G 8G 9G11
  20499274.699    20499278.710    -2392542.281 9   -529265.919 8
  21199571.516    21199576.261     2507305.422 8   3111896.599 8
  22626280.350    22626284.434    -5304898.287 8   -118138.546 8
  20527307.138    20527312.080    -2629107.726 7   -371412.351 7
 86  6 16 23 27 35.0800000  0  4G 6G 8G 9G11
  20497918.190    20497922.623    -2399671.123 9   -534820.863 9
  21202412.645    21202416.523     2522240.347 9   3123534.195 8
  22622888.651    22622895.548    -5322716.344 9   -132022.736 8
  20526016.961    20526021.513    -2635887.358 8   -376695.200 8
 86  6 16 23 27 41.0800000  0  4G 6G 8G 9G11
  20496563.950    20496567.567    -2406787.615 9   -540366.181 7
  21205257.759    21205262.000     2537194.153 9   3135186.513 7
  22619499.073    22619504.344    -5340532.919 8   -145905.759 8
  20524732.049    20524737.723    -2642643.971 9   -381960.081 7
 86  6 16 23 27 47.0800000  0  4G 6G 8G 9G11
  20495212.093    20495214.744    -2413891.657 9   -545901.800 8
  21208107.407    21208111.909     2552166.925 9   3146853.599 8
  22616109.377    22616113.632    -5358347.801 9   -159787.483 8
  20523449.964    20523455.989    -2649377.442 8   -387206.931 8
 86  6 16 23 27 53.0800000  0  4G 6G 8G 9G11
  20493862.023    20493866.703    -2420983.177 9   -551427.651 8
  21210960.173    21210965.319     2567158.632 9   3158535.455 8
  22612719.148    22612724.048    -5376160.898 9   -173667.820 8
  20522172.618    20522177.088    -2656087.769 8   -392435.751 7
 86  6 16 23 27 59.0800000  0  4G 6G 8G 9G11
  20492515.937    20492518.782    -2428062.089 8   -556943.682 8
  21213817.270    21213820.447     2582169.390 9   3170232.146 8
  22609329.372    22609334.486    -5393972.138 9   -187546.698 8
  20520900.638    20520905.516    -2662774.815 8   -397646.437 7
 86  6 16 23 28  5.0800000  0  4G 6G 8G 9G11
  20491170.952    20491174.760    -2435128.426 9   -562449.922 8
  21216677.801    21216681.363     2597199.023 9   3181943.551 7
  22605940.329    22605946.115    -5411781.628 8   -201424.222 8
  20519632.254    20519636.840    -2669438.699 8   -402839.060 7
 86  6 16 23 28 11.0800000  0  4G 6G 8G 9G11
  20489829.410    20489832.542    -2442182.157 9   -567946.329 8
  21219540.127    21219544.796     2612247.600 8   3193669.700 7
  22602551.697    22602556.503    -5429589.336 8   -215300.357 8
  20518368.744    20518373.358    -2676079.330 7   -408013.585 6
 86  6 16 23 28 17.0800000  0  4G 6G 8G 9G11
  20488488.868    20488492.162    -2449223.248 9   -573432.900 8
  21222408.347    21222412.643     2627315.082 9   3205410.598 7
  22599162.250    22599167.708    -5447395.165 8   -229175.019 7
  20517109.358    20517114.367    -2682696.670 7   -413169.957 7
 86  6 16 23 28 23.0800000  0  4G 6G 8G 9G11
  20487150.781    20487154.912    -2456251.676 8   -578909.588 7
  21225279.514    21225283.420     2642401.419 9   3217166.187 7
  22595775.711    22595780.402    -5465199.112 9   -243048.213 8
  20515854.276    20515860.295    -2689290.814 7   -418308.230 8
 86  6 16 23 28 29.0800000  0  4G 6G 8G 9G11
  20485816.745    20485820.403    -2463267.568 9   -584376.511 8
  21228151.980    21228157.426     2657506.550 9   3228936.411 8
  22592388.224    22592392.185    -5483001.311 8   -256920.045 7
  20514603.903    20514608.996    -2695861.834 8   -423428.511 7
 86  6 16 23 28 35.0800000  0  4G 6G 8G 9G11
  20484482.587    20484487.719    -2470270.842 8   -589833.613 8
  21231031.629    21231034.928     2672630.459 8   3240721.265 7
  22588999.988    22589005.337    -5500801.664 8   -270790.450 8
  20513357.658    20513364.229    -2702409.711 9   -428530.741 7
 86  6 16 23 28 41.0800000  0  4G 6G 8G 9G11
  20483154.297    20483157.210    -2477261.527 9   -595280.905 7
  21233912.536    21233917.782     2687773.085 9   3252520.712 7
  22585613.549    22585617.882    -5518600.226 8   -284659.451 7
  20512116.395    20512122.935    -2708934.462 8   -433614.964 6
 86  6 16 23 28 47.0800000  0  4G 6G 8G 9G11
  20481825.341    20481829.893    -2484239.553 9   -600718.321 8
  21236797.079    21236802.810     2702934.363 9   3264334.700 8
  22582226.603    22582232.653    -5536397.006 9   -298527.075 7
  20510879.187    20510884.879    -2715436.076 7   -438681.156 6
 86  6 16 23 28 53.0800000  0  4G 6G 8G 9G11
  20480498.943    20480502.543    -2491204.833 9   -606145.808 8
  21239687.553    21239691.245     2718114.390 9   3276163.277 8
  22578840.628    22578844.849    -5554191.919 9   -312393.226 8
  20509645.756    20509649.677    -2721914.482 8   -443729.261 7
 86  6 16 23 28 59.0800000  0  4G 6G 8G 9G11
  20479176.263    20479180.257    -2498157.438 9   -611563.421 8
  21242578.897    21242583.576     2733313.076 8   3288006.405 8
  22575455.545    22575459.031    -5571984.921 8   -326257.894 8
  20508417.508    20508421.733    -2728369.702 8   -448759.300 8
 86  6 16 23 29  5.0800000  0  4G 6G 8G 9G11
  20477856.110    20477859.910    -2505097.413 9   -616971.192 8
  21245474.562    21245479.036     2748530.287 8   3299863.977 7
  22572069.160    22572073.487    -5589776.059 8   -340121.112 8
  20507194.992    20507199.475    -2734801.812 8   -453771.335 7
 86  6 16 23 29 11.0800000  0  4G 6G 8G 9G11
  20476537.907    20476542.308    -2512024.757 9   -622369.121 7
  21248372.681    21248378.586     2763766.079 9   3311736.021 9
  22568683.743    22568688.814    -5607565.301 8   -353982.857 7
  20505974.190    20505978.594    -2741210.805 8   -458765.338 7
 86  6 16 23 29 17.0800000  0  4G 6G 8G 9G11
  20475221.510    20475226.814    -2518939.419 8   -627757.172 7
  21251276.492    21251281.174     2779020.312 9   3323622.439 8
  22565299.295    22565303.425    -5625352.721 8   -367843.175 8
  20504759.217    20504764.657    -2747596.713 8   -463741.372 7
 86  6 16 23 29 23.0800000  0  4G 6G 8G 9G11
  20473908.329    20473913.087    -2525841.465 8   -633135.386 9
  21254182.690    21254188.186     2794292.981 9   3335523.214 8
  22561915.683    22561919.438    -5643138.333 8   -381702.086 7
  20503548.602    20503553.404    -2753959.580 8   -468699.441 7
 86  6 16 23 29 29.0800000  0  4G 6G 8G 9G11
  20472597.583    20472601.875    -2532730.807 8   -638503.700 9
  21257092.081    21257097.199     2809584.089 9   3347438.361 8
  22558528.755    22558535.606    -5660922.079 8   -395559.539 7
  20502342.512    20502346.346    -2760299.326 8   -473639.496 7
 86  6 16 23 29 35.0800000  0  4G 6G 8G 9G11
  20471289.593    20471292.551    -2539607.544 9   -643862.197 8
  21260006.214    21260010.416     2824893.599 9   3359367.838 8
  22555144.943    22555151.992    -5678704.024 8   -409415.586 7
  20501140.714    20501144.342    -2766616.012 8   -478561.583 7
 86  6 16 23 29 41.0800000  0  4G 6G 8G 9G11
  20469983.036    20469986.085    -2546471.444 9   -649210.688 8
  21262923.161    21262926.472     2840221.505 8   3371311.670 8
  22551762.702    22551767.834    -5696484.101 8   -423270.177 7
  20499942.627    20499947.560    -2772909.505 7   -483465.600 6
 86  6 16 23 29 47.0800000  0  4G 6G 8G 9G11
  20468677.661    20468684.590    -2553322.624 9   -654549.268 8
  21265843.125    21265848.097     2855567.804 9   3383269.814 8
  22548380.041    22548384.860    -5714262.200 8   -437123.242 7
  20498749.610    20498753.558    -2779179.828 8   -488351.575 7
 86  6 16 23 29 53.0800000  0  4G 6G 8G 9G11
  20467378.093    20467381.444    -2560160.973 8   -659877.851 8
  21268766.664    21268772.044     2870932.479 7   3395242.287 8
  22544997.144    22545001.772    -5732038.337 8   -450974.786 7
  20497561.093    20497565.070    -2785427.002 8   -493219.500 7
 86  6 16 23 29 59.0800000  0  4G 6G 8G 9G11
  20466078.660    20466083.106    -2566986.417 9   -665196.386 9
  21271694.582    21271698.173     2886315.590 9   3407229.132 9
  22541614.798    22541620.871    -5749812.392 8   -464824.681 8
  20496376.117    20496380.973    -2791650.915 7   -498069.296 7
 86  6 16 23 30  5.0800000  0  4G 6G 8G 9G11
  20464782.428    20464786.383    -2573798.910 9   -670504.815 8
  21274624.294    21274630.636     2901717.111 9   3419230.301 8
  22538233.112    22538237.462    -5767584.328 9   -478672.953 7
  20495195.843    20495201.110    -2797851.620 8   -502901.002 7
 86  6 16 23 30 11.0800000  0  4G 6G 8G 9G11
  20463489.020    20463491.654    -2580598.531 9   -675803.220 8
  21277558.756    21277564.024     2917137.017 9   3431245.814 8
  22534851.967    22534857.459    -5785354.130 8   -492519.540 7
  20494020.524    20494025.289    -2804029.089 8   -507714.618 7
 86  6 16 23 30 17.0800000  0  4G 6G 8G 9G11
  20462196.414    20462201.366    -2587385.148 8   -681091.488 8
  21280496.394    21280501.850     2932575.249 9   3443275.613 8
  22531470.325    22531474.955    -5803121.838 8   -506364.507 7
  20492849.039    20492855.382    -2810183.286 7   -512510.081 6
 86  6 16 23 30 23.0800000  0  4G 6G 8G 9G11
  20460907.468    20460912.169    -2594158.878 8   -686369.722 8
  21283437.582    21283441.826     2948031.739 9   3455319.632 8
  22528089.981    22528094.563    -5820887.567 9   -520207.920 8
  20491682.500    20491687.237    -2816314.258 7   -517287.455 7
 86  6 16 23 30 29.0800000  0  4G 6G 8G 9G11
  20459621.375    20459626.018    -2600919.659 9   -691637.868 7
  21286382.260    21286387.964     2963506.530 8   3467377.898 9
  22524709.240    22524715.968    -5838651.173 9   -534049.676 7
  20490520.842    20490526.088    -2822421.985 8   -522046.746 7
 86  6 16 23 30 35.0800000  0  4G 6G 8G 9G11
  20458338.708    20458342.017    -2607667.516 8   -696895.931 8
  21289332.367    21289336.922     2978999.531 9   3479450.356 8
  22521329.139    22521335.450    -5856412.699 8   -547889.815 7
  20489362.606    20489369.140    -2828506.571 8   -526787.953 7
 86  6 16 23 30 41.0800000  0  4G 6G 8G 9G11
  20457055.900    20457060.478    -2614402.301 9   -702143.814 8
  21292282.645    21292287.979     2994510.772 9   3491537.039 8
  22517951.409    22517954.520    -5874172.066 9   -561728.289 7
  20488208.395    20488214.941    -2834567.860 8   -531511.050 8
 86  6 16 23 30 47.0800000  0  4G 6G 8G 9G11
  20455777.438    20455780.754    -2621124.130 9   -707381.602 7
  21295238.304    21295242.617     3010040.180 9   3503637.880 8
  22514571.126    22514575.221    -5891929.280 9   -575565.068 8
  20487060.277    20487063.807    -2840605.933 8   -536216.025 8
 86  6 16 23 30 53.0800000  0  4G 6G 8G 9G11
  20454499.915    20454504.697    -2627832.957 9   -712609.264 8
  21298196.178    21298201.017     3025587.733 7   3515752.849 8
  22511191.778    22511196.626    -5909684.331 8   -589400.175 7
  20485914.453    20485922.263    -2846620.819 8   -540902.945 7
 86  6 16 23 30 59.0800000  0  4G 6G 8G 9G11
  20453226.450    20453230.705    -2634528.767 8   -717826.764 8
  21301157.675    21301164.050     3041153.431 8   3527881.964 8
  22507813.764    22507818.123    -5927437.194 9   -603233.563 8
  20484775.614    20484780.989    -2852612.479 7   -545571.764 7
 86  6 16 23 31  5.0800000  0  4G 6G 8G 9G11
  20451954.534    20451956.740    -2641211.456 8   -723034.055 8
  21304123.875    21304128.991     3056737.193 8   3540025.163 8
  22504436.958    22504440.432    -5945187.909 8   -617065.280 7
  20483639.802    20483645.046    -2858580.843 7   -550222.444 8
 86  6 16 23 31 11.0800000  0  4G 6G 8G 9G11
  20450684.825    20450689.053    -2647880.982 9   -728231.098 9
  21307091.581    21307097.505     3072339.176 9   3552182.557 7
  22501059.888    22501063.406    -5962936.324 8   -630895.223 7
  20482507.772    20482513.228    -2864525.875 8   -554854.928 6
 86  6 16 23 31 17.0800000  0  4G 6G 8G 9G11
  20449418.470    20449422.198    -2654537.394 9   -733417.914 8
  21310065.736    21310071.111     3087959.259 8   3564354.032 8
  22497682.284    22497687.363    -5980682.513 8   -644723.407 7
  20481381.926    20481386.876    -2870447.648 8   -559469.292 6
 86  6 16 23 31 23.0800000  0  4G 6G 8G 9G11
  20448154.396    20448158.440    -2661180.659 9   -738594.479 8
  21313039.130    21313046.459     3103597.432 8   3576539.622 7
  22494305.924    22494309.535    -5998426.321 9   -658549.738 8
  20480258.252    20480264.049    -2876346.115 8   -564065.478 7
 86  6 16 23 31 29.0800000  0  4G 6G 8G 9G11
  20446892.856    20446896.508    -2667810.774 9   -743760.799 8
  21316020.555    21316025.704     3119253.535 8   3588739.182 8
  22490927.672    22490934.123    -6016167.891 9   -672374.333 7
  20479141.281    20479145.687    -2882221.357 8   -568643.600 8
 86  6 16 23 31 35.0800000  0  4G 6G 8G 9G11
  20445633.132    20445638.047    -2674427.763 8   -748916.895 7
  21319002.294    21319007.660     3134927.667 9   3600952.797 8
  22487552.698    22487557.675    -6033907.160 8   -686197.129 7
  20478027.537    20478033.181    -2888073.281 7   -573203.549 6
 86  6 16 23 31 41.0800000  0  4G 6G 8G 9G11
  20444376.309    20444381.160    -2681031.582 9   -754062.735 8
  21321988.567    21321994.279     3150619.717 9   3613180.358 8
  22484178.398    22484183.572    -6051644.109 8   -700018.126 7
  20476917.511    20476924.169    -2893901.958 8   -577745.364 8
 86  6 16 23 31 47.0800000  0  4G 6G 8G 9G11
  20443123.451    20443125.934    -2687622.291 9   -759198.344 8
  21324977.687    21324983.922     3166329.647 9   3625421.873 8
  22480803.012    22480809.110    -6069378.835 8   -713837.368 6
  20475814.260    20475819.198    -2899707.466 8   -582269.131 7
 86  6 16 23 31 53.0800000  0  4G 6G 8G 9G11
  20441870.507    20441875.172    -2694199.837 8   -764323.700 8
  21327971.229    21327976.364     3182057.423 9   3637677.270 7
  22477429.725    22477432.862    -6087111.354 9   -727654.908 8
  20474713.084    20474717.488    -2905489.828 8   -586774.843 6
 86  6 16 23 31 59.0800000  0  4G 6G 8G 9G11
  20440620.969    20440626.499    -2700764.242 9   -769438.819 8
  21330968.554    21330973.371     3197802.998 8   3649946.546 7
  22474054.914    22474060.701    -6104841.646 9   -741470.707 8
  20473616.379    20473623.414    -2911248.895 7   -591262.442 7
 86  6 16 23 32  5.0800000  0  4G 6G 8G 9G11
  20439375.774    20439379.117    -2707315.443 8   -774543.653 8
  21333967.314    21333972.422     3213566.374 8   3662229.701 8
  22470680.755    22470685.775    -6122569.540 7   -755284.655 7
  20472525.582    20472530.331    -2916984.758 8   -595731.940 7
 86  6 16 23 32 11.0800000  0  4G 6G 8G 9G11
  20438129.794    20438134.209    -2713853.526 8   -779638.263 8
  21336969.784    21336975.353     3229347.431 8   3674526.620 8
  22467308.307    22467313.304    -6140295.203 7   -769096.859 7
  20471438.769    20471443.973    -2922697.495 7   -600183.414 6
 86  6 16 23 32 17.0800000  0  4G 6G 8G 9G11
  20436888.689    20436892.008    -2720378.453 8   -784722.620 8
  21339977.117    21339981.476     3245146.151 8   3686837.311 8
  22463934.938    22463940.519    -6158018.639 8   -782907.303 7
  20470356.704    20470360.937    -2928387.056 7   -604616.834 6
 86  6 16 23 32 23.0800000  0  4G 6G 8G 9G11
  20435650.345    20435654.308    -2726890.198 9   -789796.705 8
  21342986.015    21342992.650     3260962.559 9   3699161.783 8
  22460563.177    22460567.773    -6175739.786 7   -796715.975 7
  20469277.774    20469283.923    -2934053.455 9   -609032.195 7
 86  6 16 23 32 29.0800000  0  4G 6G 8G 9G11
  20434413.745    20434417.728    -2733388.805 8   -794860.549 8
  21345999.274    21346004.421     3276796.579 8   3711499.979 8
  22457192.390    22457196.957    -6193458.629 8   -810522.850 7
  20468204.545    20468209.583    -2939696.687 6   -613429.520 7
 86  6 16 23 32 35.0800000  0  4G 6G 8G 9G11
  20433179.779    20433183.275    -2739874.201 8   -799914.116 8
  21349016.129    21349020.474     3292648.167 8   3723851.857 7
  22453821.507    22453825.214    -6211175.168 8   -824327.942 8
  20467133.407    20467139.095    -2945316.741 8   -617808.789 8
 86  6 16 23 32 41.0800000  0  4G 6G 8G 9G11
  20431948.042    20431952.108    -2746346.337 8   -804957.333 8
  21352034.739    21352041.296     3308517.384 8   3736217.477 8
  22450448.908    22450455.307    -6228889.398 8   -838131.228 7
  20466066.849    20466075.064    -2950913.583 7   -622169.958 6
 86  6 16 23 32 47.0800000  0  4G 6G 8G 9G11
  20430719.111    20430723.430    -2752804.996 8   -809990.058 8
  21355058.470    21355063.411     3324404.293 8   3748596.890 8
  22447078.899    22447084.439    -6246601.109 7   -851932.537 7
  20465008.357    20465014.424    -2956487.078 7   -626512.941 8
 86  6 16 23 32 53.0800000  0  4G 6G 8G 9G11
  20429492.259    20429495.157    -2759250.263 9   -815012.338 8
  21358086.382    21358091.102     3340308.890 8   3760990.083 8
  22443709.244    22443714.699    -6264310.309 8   -865731.912 8
  20463953.563    20463958.689    -2962037.285 8   -630837.771 7
 86  6 16 23 32 59.0800000  0  4G 6G 8G 9G11
  20428269.124    20428273.341    -2765681.967 9   -820024.046 8
  21361114.560    21361120.383     3356231.317 8   3773397.162 8
  22440339.352    22440343.671    -6282016.742 7   -879529.106 8
  20462900.580    20462907.001    -2967564.005 7   -635144.292 7
 86  6 16 23 33  5.0800000  0  4G 6G 8G 9G11
  20427046.866    20427051.455    -2772100.078 9   -825025.179 7
  21364148.986    21364152.204     3372171.447 8   3785818.028 8
  22436970.742    22436976.168    -6299720.482 8   -893324.231 7
  20461854.572    20461859.595    -2973067.283 8   -639432.575 7
 86  6 16 23 33 11.0800000  0  4G 6G 8G 9G11
  20425829.735    20425831.800    -2778504.671 9   -830015.763 8
  21367186.341    21367189.883     3388129.248 8   3798252.687 8
  22433602.413    22433606.777    -6317421.562 8   -907117.261 8
  20460810.513    20460815.999    -2978547.172 8   -643702.591 7
 86  6 16 23 33 17.0800000  0  4G 6G 8G 9G11
  20424612.656    20424616.505    -2784895.781 9   -834995.859 7
  21370225.889    21370230.291     3404104.654 8   3810701.056 9
  22430234.226    22430238.834    -6335120.183 8   -920908.383 8
  20459772.071    20459777.769    -2984003.723 8   -647954.460 7
 86  6 16 23 33 23.0800000  0  4G 6G 8G 9G11
  20423398.251    20423402.566    -2791273.364 9   -839965.396 7
  21373270.255    21373273.478     3420097.608 7   3823163.098 8
  22426868.856    22426870.977    -6352816.162 8   -934697.433 7
  20458739.634    20458744.057    -2989436.901 8   -652188.095 7
 86  6 16 23 33 29.0800000  0  4G 6G 8G 9G11
  20422187.469    20422191.219    -2797637.323 8   -844924.335 8
  21376314.910    21376319.915     3436108.134 8   3835638.830 8
  22423500.003    22423505.352    -6370509.481 7   -948484.449 7
  20457708.724    20457714.451    -2994846.715 8   -656403.533 8
 86  6 16 23 33 35.0800000  0  4G 6G 8G 9G11
  20420979.839    20420982.652    -2803987.833 9   -849872.776 8
  21379366.610    21379371.251     3452136.082 8   3848128.117 7
  22420132.901    22420138.834    -6388200.213 8   -962269.399 8
  20456683.509    20456690.287    -3000233.283 8   -660600.857 7
 86  6 16 23 33 41.0800000  0  4G 6G 8G 9G11
  20419772.269    20419777.823    -2810324.937 8   -854810.761 8
  21382419.858    21382423.311     3468181.337 8   3860630.925 8
  22416766.561    22416772.911    -6405888.435 8   -976052.433 7
  20455662.634    20455668.637    -3005596.671 7   -664780.129 7
 86  6 16 23 33 47.0800000  0  4G 6G 8G 9G11
  20418569.548    20418573.344    -2816648.559 9   -859738.272 8
  21385475.530    21385481.423     3484243.959 8   3873147.239 8
  22413402.799    22413406.736    -6423574.074 8   -989833.430 7
  20454646.935    20454653.388    -3010936.802 8   -668941.247 7
 86  6 16 23 33 53.0800000  0  4G 6G 8G 9G11
  20417368.271    20417373.154    -2822958.697 8   -864655.263 8
  21388537.341    21388540.609     3500323.837 9   3885677.010 8
  22410037.374    22410043.229    -6441257.337 9  -1003612.580 8
  20453635.060    20453640.442    -3016253.738 8   -673084.318 8
 86  6 16 23 33 59.0800000  0  4G 6G 8G 9G11
  20416169.883    20416174.384    -2829255.248 9   -869561.657 8
  21391599.833    21391602.533     3516421.106 8   3898220.333 7
  22406672.859    22406678.005    -6458937.831 7  -1017389.587 7
  20452627.390    20452633.649    -3021547.311 8   -677209.166 8
 86  6 16 23 34  5.0800000  0  4G 6G 8G 9G11
  20414974.814    20414979.006    -2835538.186 8   -874457.450 8
  21394665.654    21394668.973     3532535.706 8   3910777.163 7
  22403309.670    22403313.742    -6476615.511 8  -1031164.382 9
  20451626.264    20451631.154    -3026817.535 8   -681315.838 7
 86  6 16 23 34 11.0800000  0  4G 6G 8G 9G11
  20413782.544    20413786.396    -2841807.483 8   -879342.618 9
  21397734.672    21397740.093     3548667.613 7   3923347.473 7
  22399946.629    22399950.075    -6494290.514 7  -1044937.109 8
  20450627.739    20450632.848    -3032064.433 8   -685404.320 7
 86  6 16 23 34 17.0800000  0  4G 6G 8G 9G11
  20412592.164    20412596.804    -2848063.097 8   -884217.132 8
  21400808.505    21400812.310     3564816.826 9   3935931.286 8
  22396582.040    22396584.570    -6511962.799 8  -1058707.695 7
  20449632.040    20449638.942    -3037288.007 8   -689474.631 7
 86  6 16 23 34 23.0800000  0  4G 6G 8G 9G11
  20411403.766    20411409.267    -2854304.968 9   -889080.923 8
  21403884.999    21403889.238     3580983.443 8   3948528.630 8
  22393220.905    22393224.875    -6529632.284 9  -1072476.131 7
  20448642.706    20448649.662    -3042488.127 9   -693526.677 7
 86  6 16 23 34 29.0800000  0  4G 6G 8G 9G11
  20410217.041    20410222.713    -2860533.116 9   -893934.021 8
  21406964.939    21406968.643     3597167.267 8   3961139.398 8
  22389857.249    22389863.113    -6547299.001 8  -1086242.389 7
  20447657.976    20447663.103    -3047664.890 8   -697560.503 8
 86  6 16 23 34 35.0800000  0  4G 6G 8G 9G11
  20409034.748    20409040.022    -2866747.546 9   -898776.438 8
  21410047.863    21410051.920     3613368.374 9   3973763.634 8
  22386496.460    22386501.632    -6564962.906 8  -1100006.457 7
  20446676.141    20446682.928    -3052818.212 8   -701576.086 7
 86  6 16 23 34 41.0800000  0  4G 6G 8G 9G11
  20407855.133    20407859.452    -2872948.195 8   -903608.102 8
  21413133.944    21413137.861     3629586.742 8   3986401.323 8
  22383135.852    22383139.836    -6582623.939 7  -1113768.299 7
  20445701.585    20445706.725    -3057948.151 8   -705573.423 8
 86  6 16 23 34 47.0800000  0  4G 6G 8G 9G11
  20406679.938    20406683.653    -2879135.037 9   -908429.014 8
  21416224.072    21416228.068     3645822.268 8   3999052.385 8
  22379776.561    22379779.500    -6600282.136 9  -1127527.920 8
  20444730.341    20444735.497    -3063054.736 8   -709552.582 7
 86  6 16 23 34 53.0800000  0  4G 6G 8G 9G11
  20405504.850    20405508.713    -2885308.220 9   -913239.295 8
  21419315.888    21419320.986     3662074.875 9   4011716.752 7
  22376415.317    22376420.411    -6617937.633 7  -1141285.444 7
  20443762.038    20443767.865    -3068138.080 7   -713513.620 8
 86  6 16 23 34 59.0800000  0  4G 6G 8G 9G11
  20404331.650    20404335.311    -2891467.681 9   -918038.877 8
  21422410.996    21422416.211     3678344.511 8   4024394.380 8
  22373055.736    22373061.855    -6635590.339 7  -1155040.777 8
  20442799.931    20442804.141    -3073198.148 8   -717456.527 8
 86  6 16 23 35  5.0800000  0  4G 6G 8G 9G11
  20403161.585    20403166.205    -2897613.528 9   -922827.850 8
  21425510.538    21425515.950     3694631.116 9   4037085.233 8
  22369699.235    22369702.045    -6653240.303 8  -1168793.989 8
  20441839.998    20441845.107    -3078235.027 8   -721381.371 8
 86  6 16 23 35 11.0800000  0  4G 6G 8G 9G11
  20401995.503    20401998.991    -2903745.718 8   -927606.173 8
  21428613.275    21428618.194     3710934.587 8   4049789.233 7
  22366340.011    22366344.753    -6670887.585 8  -1182545.088 6
  20440886.450    20440891.518    -3083248.713 8   -725288.139 8
 86  6 16 23 35 17.0800000  0  4G 6G 8G 9G11
  20400831.012    20400836.068    -2909864.214 8   -932373.840 8
  21431719.953    21431724.059     3727254.932 8   4062506.378 8
  22362982.941    22362987.868    -6688532.095 8  -1196294.058 7
  20439937.320    20439942.361    -3088239.177 8   -729176.814 7
 86  6 16 23 35 23.0800000  0  4G 6G 8G 9G11
  20399668.978    20399673.895    -2915968.967 8   -937130.786 8
  21434828.407    21434832.260     3743592.149 9   4075236.671 7
  22359624.854    22359631.333    -6706173.882 8  -1210040.890 8
  20438991.486    20438996.901    -3093206.466 8   -733047.409 7
 86  6 16 23 35 29.0800000  0  4G 6G 8G 9G11
  20398510.499    20398514.094    -2922059.955 8   -941877.009 9
  21437940.224    21437943.988     3759946.253 9   4087980.125 7
  22356268.985    22356271.912    -6723812.878 8  -1223785.556 8
  20438050.922    20438056.997    -3098150.485 7   -736899.891 8
 86  6 16 23 35 35.0800000  0  4G 6G 8G 9G11
  20397354.259    20397358.320    -2928137.088 8   -946612.445 8
  21441054.984    21441059.095     3776317.315 9   4100736.801 7
  22352913.030    22352918.204    -6741448.980 8  -1237527.965 8
  20437114.141    20437119.862    -3103071.175 8   -740734.189 7
 86  6 16 23 35 41.0800000  0  4G 6G 8G 9G11
  20396199.263    20396204.849    -2934200.247 8   -951336.976 9
  21444173.957    21444178.379     3792705.353 8   4113506.697 7
  22349556.877    22349564.038    -6759081.994 8  -1251267.965 8
  20436181.638    20436189.562    -3107968.470 8   -744550.264 7
 86  6 16 23 35 47.0800000  0  4G 6G 8G 9G11
  20395049.363    20395053.694    -2940249.366 9   -956050.582 8
  21447295.881    21447299.300     3809110.373 8   4126289.816 7
  22346203.286    22346206.918    -6776711.871 8  -1265005.515 7
  20435255.261    20435262.022    -3112842.300 8   -748348.055 7
 86  6 16 23 35 53.0800000  0  4G 6G 8G 9G11
  20393900.203    20393905.382    -2946284.582 9   -960753.346 9
  21450420.436    21450424.162     3825532.257 8   4139086.084 7
  22342849.003    22342852.030    -6794338.735 8  -1278740.723 8
  20434331.969    20434336.954    -3117692.779 8   -752127.641 7
 86  6 16 23 35 59.0800000  0  4G 6G 8G 9G11
  20392753.968    20392759.768    -2952305.776 9   -965445.184 8
  21453549.186    21453553.865     3841971.082 9   4151895.545 7
  22339494.218    22339498.620    -6811962.538 8  -1292473.535 8
  20433413.262    20433418.224    -3122519.833 7   -755888.973 7
 86  6 16 23 36  5.0800000  0  4G 6G 8G 9G11
  20391611.676    20391616.050    -2958312.957 9   -970126.106 8
  21456680.641    21456684.856     3858426.740 9   4164718.144 9
  22336141.635    22336146.571    -6829583.458 7  -1306204.125 7
  20432499.222    20432505.653    -3127323.539 8   -759632.100 7
 86  6 16 23 36 11.0800000  0  4G 6G 8G 9G11
  20390471.445    20390476.311    -2964306.068 8   -974796.067 8
  21459813.944    21459819.312     3874899.209 9   4177553.831 8
  22332788.934    22332793.224    -6847201.227 8  -1319932.245 8
  20431589.033    20431596.227    -3132103.802 8   -763356.994 8
 86  6 16 23 36 17.0800000  0  4G 6G 8G 9G11
  20389333.688    20389336.784    -2970285.202 9   -979455.126 8
  21462952.702    21462956.708     3891388.494 9   4190402.622 8
  22329436.402    22329442.417    -6864815.842 8  -1333657.908 8
  20430684.927    20430690.060    -3136860.656 9   -767063.635 7
 86  6 16 23 36 23.0800000  0  4G 6G 8G 9G11
  20388198.252    20388202.114    -2976250.312 8   -984103.267 8
  21466094.133    21466098.047     3907894.515 9   4203264.462 7
  22326084.674    22326090.254    -6882427.360 8  -1347381.153 8
  20429783.645    20429789.374    -3141594.169 8   -770752.088 7
 86  6 16 23 36 29.0800000  0  4G 6G 8G 9G11
  20387065.307    20387070.347    -2982201.370 8   -988740.459 7
  21469237.614    21469242.386     3924417.231 8   4216139.300 8
  22322734.070    22322739.425    -6900035.814 8  -1361102.020 8
  20428887.633    20428892.826    -3146304.371 8   -774422.347 7
 86  6 16 23 36 35.0800000  0  4G 6G 8G 9G11
  20385936.098    20385939.999    -2988138.413 8   -993366.721 8
  21472385.102    21472389.681     3940956.548 9   4229027.085 8
  22319385.190    22319388.258    -6917641.317 8  -1374820.581 8
  20427995.760    20428001.585    -3150991.232 8   -778074.447 7
 86  6 16 23 36 41.0800000  0  4G 6G 8G 9G11
  20384807.631    20384814.230    -2994061.495 8   -997982.108 8
  21475534.593    21475540.503     3957512.519 8   4241927.834 7
  22316034.343    22316039.518    -6935243.719 8  -1388536.727 7
  20427108.020    20427114.057    -3155654.838 8   -781708.423 8
 86  6 16 23 36 47.0800000  0  4G 6G 8G 9G11
  20383684.355    20383689.061    -2999970.533 8  -1002586.554 8
  21478688.158    21478694.334     3974084.965 8   4254841.417 8
  22312685.898    22312689.988    -6952843.040 8  -1402250.486 8
  20426225.658    20426230.293    -3160295.147 9   -785324.243 7
 86  6 16 23 36 53.0800000  0  4G 6G 8G 9G11
  20382562.250    20382567.768    -3005865.567 9  -1007180.079 8
  21481845.737    21481850.652     3990673.903 9   4267767.880 8
  22309337.364    22309342.804    -6970439.341 9  -1415961.883 8
  20425347.018    20425352.132    -3164912.240 7   -788921.983 7
 86  6 16 23 36 59.0800000  0  4G 6G 8G 9G11
  20381443.637    20381448.748    -3011746.524 9  -1011762.664 9
  21485005.942    21485010.081     4007279.423 8   4280707.229 7
  22305989.053    22305993.881    -6988032.500 8  -1429670.807 8
  20424472.988    20424477.612    -3169505.965 8   -792501.510 8
 86  6 16 23 37  5.0800000  0  4G 6G 8G 9G11
  20380326.630    20380331.409    -3017613.282 8  -1016334.156 9
  21488168.788    21488173.656     4023901.509 9   4293659.513 7
  22302642.319    22302646.223    -7005622.456 8  -1443377.277 8
  20423601.979    20423608.151    -3174076.296 7   -796062.792 8
 86  6 16 23 37 11.0800000  0  4G 6G 8G 9G11
  20379213.604    20379218.341    -3023465.966 8  -1020894.684 8
  21491335.175    21491339.957     4040540.065 8   4306624.606 8
  22299295.877    22299299.932    -7023209.381 8  -1457081.360 7
  20422737.263    20422744.120    -3178623.363 8   -799605.962 8
 86  6 16 23 37 17.0800000  0  4G 6G 8G 9G11
  20378102.740    20378106.689    -3029304.443 8  -1025444.141 8
  21494505.071    21494509.185     4057195.112 9   4319602.567 8
  22295948.900    22295954.134    -7040793.017 8  -1470782.886 7
  20421876.827    20421881.699    -3183147.076 8   -803130.930 7
 86  6 16 23 37 23.0800000  0  4G 6G 8G 9G11
  20376993.401    20376998.512    -3035128.635 9  -1029982.472 9
  21497676.016    21497682.544     4073866.692 9   4332593.410 9
  22292604.324    22292607.941    -7058373.265 9  -1484481.775 8
  20421020.974    20421024.938    -3187647.354 8   -806637.635 7
 86  6 16 23 37 29.0800000  0  4G 6G 8G 9G11
  20375888.084    20375892.861    -3040938.565 9  -1034509.694 9
  21500852.218    21500858.976     4090554.850 8   4345597.166 8
  22289258.674    22289264.180    -7075950.244 9  -1498178.114 8
  20420168.572    20420173.817    -3192124.220 8   -810126.104 7
 86  6 16 23 37 35.0800000  0  4G 6G 8G 9G11
  20374786.725    20374790.890    -3046734.173 8  -1039025.739 8
  21504031.911    21504036.132     4107259.482 9   4358613.754 8
  22285914.421    22285919.567    -7093523.823 9  -1511871.813 7
  20419320.208    20419326.408    -3196577.620 8   -813596.277 8
 86  6 16 23 37 41.0800000  0  4G 6G 8G 9G11
  20373685.313    20373689.058    -3052515.481 9  -1043530.655 8
  21507213.168    21507218.513     4123980.520 8   4371643.130 8
  22282572.183    22282576.522    -7111094.071 8  -1525562.887 8
  20418477.739    20418482.707    -3201007.615 8   -817048.217 7
 86  6 16 23 37 47.0800000  0  4G 6G 8G 9G11
  20372587.337    20372593.092    -3058282.549 9  -1048024.482 8
  21510398.012    21510402.775     4140717.874 8   4384685.230 7
  22279228.234    22279233.310    -7128661.040 7  -1539251.432 8
  20417640.009    20417645.622    -3205414.274 8   -820481.966 8
 86  6 16 23 37 53.0800000  0  4G 6G 8G 9G11
  20371493.585    20371498.410    -3064035.404 9  -1052507.212 8
  21513586.530    21513592.305     4157471.512 8   4397740.007 8
  22275885.893    22275890.100    -7146224.782 9  -1552937.458 8
  20416804.468    20416811.645    -3209797.643 8   -823897.574 8
 86  6 16 23 37 59.0800000  0  4G 6G 8G 9G11
  20370401.931    20370405.474    -3069773.931 9  -1056978.798 9
  21516778.594    21516782.211     4174241.528 8   4410807.547 8
  22272545.875    22272549.613    -7163785.218 8  -1566620.923 9
  20415974.313    20415981.075    -3214157.624 7   -827294.957 8
 86  6 16 23 38  5.0800000  0  4G 6G 8G 9G11
  20369312.050    20369316.459    -3075498.190 8  -1061439.250 8
  21519971.892    21519977.081     4191027.736 9   4423887.698 9
  22269201.299    22269207.941    -7181342.359 8  -1580301.797 9
  20415149.530    20415156.209    -3218494.256 8   -830674.157 7
 86  6 16 23 38 11.0800000  0  4G 6G 8G 9G11
  20368224.893    20368229.169    -3081208.133 9  -1065888.568 8
  21523169.967    21523173.988     4207830.151 8   4436980.495 7
  22265862.747    22265867.746    -7198896.158 9  -1593980.070 8
  20414329.604    20414334.802    -3222807.625 8   -834035.209 7
 86  6 16 23 38 17.0800000  0  4G 6G 8G 9G11
  20367141.585    20367145.752    -3086903.739 8  -1070326.693 8
  21526370.141    21526376.365     4224648.813 8   4450085.945 8
  22262523.125    22262527.827    -7216446.604 9  -1607655.729 8
  20413512.555    20413519.727    -3227097.635 8   -837378.077 7
 86  6 16 23 38 23.0800000  0  4G 6G 8G 9G11
  20366060.039    20366064.287    -3092585.038 8  -1074753.691 8
  21529574.008    21529577.471     4241483.630 9   4463203.978 7
  22259183.651    22259189.435    -7233993.648 9  -1621328.751 8
  20412701.019    20412706.756    -3231364.381 8   -840702.803 7
 86  6 16 23 38 29.0800000  0  4G 6G 8G 9G11
  20364982.872    20364985.553    -3098251.965 9  -1079169.461 8
  21532779.801    21532785.215     4258334.548 9   4476334.579 8
  22255846.121    22255849.784    -7251537.285 8  -1634999.098 8
  20411893.377    20411898.693    -3235607.780 9   -844009.352 7
 86  6 16 23 38 35.0800000  0  4G 6G 8G 9G11
  20363907.340    20363911.219    -3103904.466 8  -1083574.020 9
  21535989.630    21535994.446     4275201.636 9   4489477.744 8
  22252507.909    22252513.087    -7269077.494 9  -1648666.801 8
  20411090.292    20411094.446    -3239827.847 8   -847297.705 7
 86  6 16 23 38 41.0800000  0  4G 6G 8G 9G11
  20362834.298    20362837.810    -3109542.568 8  -1087967.338 7
  21539202.712    21539207.347     4292084.800 9   4502633.464 7
  22249171.120    22249176.480    -7286614.375 8  -1662331.892 8
  20410292.371    20410296.757    -3244024.572 8   -850567.880 7
 86  6 16 23 38 47.0800000  0  4G 6G 8G 9G11
  20361763.313    20361767.915    -3115166.273 9  -1092349.442 8
  21542417.395    21542424.151     4308984.060 8   4515801.715 9
  22245834.832    22245839.165    -7304147.800 9  -1675994.293 8
  20409497.844    20409503.796    -3248197.969 8   -853819.880 8
 86  6 16 23 38 53.0800000  0  4G 6G 8G 9G11
  20360695.785    20360700.408    -3120775.506 8  -1096720.280 8
  21545636.562    21545642.184     4325899.357 9   4528982.471 8
  22242499.122    22242503.314    -7321677.697 8  -1689653.947 8
  20408708.308    20408712.211    -3252348.004 8   -857053.663 8
 86  6 16 23 38 59.0800000  0  4G 6G 8G 9G11
  20359631.533    20359635.768    -3126370.242 8  -1101079.813 9
  21548859.039    21548864.204     4342830.764 8   4542175.785 8
  22239162.481    22239167.715    -7339203.994 8  -1703310.788 8
  20407922.110    20407928.367    -3256474.636 7   -860269.213 8
 86  6 16 23 39  5.0800000  0  4G 6G 8G 9G11
  20358569.080    20358572.763    -3131950.464 8  -1105428.038 8
  21552083.893    21552089.152     4359778.175 9   4555381.546 8
  22235827.990    22235834.669    -7356726.779 8  -1716964.902 9
  20407141.861    20407146.274    -3260577.879 8   -863466.536 7
 86  6 16 23 39 11.0800000  0  4G 6G 8G 9G11
  20357510.764    20357514.512    -3137516.229 8  -1109765.003 8
  21555312.151    21555317.114     4376741.556 9   4568599.763 8
  22232496.178    22232499.701    -7374246.127 9  -1730616.339 7
  20406365.469    20406370.783    -3264657.812 8   -866645.715 7
 86  6 16 23 39 17.0800000  0  4G 6G 8G 9G11
  20356453.867    20356458.604    -3143067.318 9  -1114090.527 8
  21558544.159    21558547.958     4393721.003 8   4581830.490 8
  22229161.644    22229167.908    -7391761.819 9  -1744264.911 8
  20405592.748    20405598.138    -3268714.336 8   -869806.626 7
 86  6 16 23 39 23.0800000  0  4G 6G 8G 9G11
  20355400.358    20355405.256    -3148603.842 9  -1118404.699 8
  21561777.511    21561781.933     4410716.360 8   4595073.633 8
  22225829.207    22225834.536    -7409273.933 8  -1757910.704 9
  20404826.216    20404831.636    -3272747.462 8   -872949.320 8
 86  6 16 23 39 29.0800000  0  4G 6G 8G 9G11
  20354349.984    20354354.058    -3154126.126 9  -1122707.776 8
  21565014.260    21565020.359     4427727.289 9   4608328.898 7
  22222497.175    22222502.120    -7426782.722 8  -1771553.910 8
  20404061.802    20404068.233    -3276757.617 8   -876074.107 8
 86  6 16 23 39 35.0800000  0  4G 6G 8G 9G11
  20353300.785    20353305.884    -3159633.873 9  -1126999.530 7
  21568255.472    21568259.903     4444754.142 8   4621596.576 8
  22219165.265    22219172.428    -7444287.885 8  -1785194.295 7
  20403304.604    20403309.331    -3280744.404 8   -879180.691 7
 86  6 16 23 39 41.0800000  0  4G 6G 8G 9G11
  20352255.895    20352260.966    -3165127.018 8  -1131279.902 8
  21571498.136    21571502.161     4461796.820 8   4634876.580 8
  22215836.386    22215841.385    -7461789.526 8  -1798831.933 7
  20402549.425    20402555.798    -3284707.838 8   -882269.083 8
 86  6 16 23 39 47.0800000  0  4G 6G 8G 9G11
  20351213.068    20351217.520    -3170605.563 8  -1135548.893 8
  21574744.406    21574749.661     4478855.292 9   4648168.897 8
  22212506.265    22212510.847    -7479287.492 8  -1812466.709 7
  20401800.421    20401805.296    -3288647.933 9   -885339.281 8
 86  6 16 23 39 53.0800000  0  4G 6G 8G 9G11
  20350173.305    20350178.406    -3176069.500 9  -1139806.515 8
  21577993.575    21577998.334     4495929.544 8   4661473.506 8
  22209176.659    22209181.533    -7496781.835 8  -1826098.658 7
  20401055.572    20401061.762    -3292564.714 7   -888391.316 8
 86  6 16 23 39 59.0800000  0  4G 6G 8G 9G11
  20349137.189    20349141.795    -3181518.859 9  -1144052.756 8
  21581245.853    21581249.544     4513019.445 8   4674790.316 8
  22205848.913    22205853.712    -7514272.621 9  -1839727.834 8
  20400314.780    20400319.609    -3296458.272 8   -891425.248 8
 86  6 16 23 40  5.0800000  0  4G 6G 8G 9G11
  20348102.295    20348106.853    -3186953.658 8  -1148287.670 8
  21584500.077    21584505.329     4530125.027 8   4688119.327 8
  22202519.974    22202525.005    -7531759.845 8  -1853354.223 8
  20399578.124    20399582.498    -3300328.571 8   -894441.060 8
 86  6 16 23 40 11.0800000  0  4G 6G 8G 9G11
  20347071.536    20347076.202    -3192373.756 9  -1152511.110 8
  21587757.756    21587764.127     4547246.335 9   4701460.610 8
  22199193.611    22199199.354    -7549243.275 7  -1866977.680 9
  20398845.141    20398850.318    -3304175.459 9   -897438.634 8
 86  6 16 23 40 17.0800000  0  4G 6G 8G 9G11
  20346042.047    20346047.516    -3197779.149 8  -1156723.116 9
  21591019.803    21591024.363     4564383.377 9   4714814.152 9
  22195867.044    22195872.501    -7566723.007 9  -1880598.232 8
  20398117.493    20398124.804    -3307998.977 8   -900417.993 7
 86  6 16 23 40 23.0800000  0  4G 6G 8G 9G11
  20345017.147    20345021.533    -3203169.745 8  -1160923.578 8
  21594284.082    21594289.728     4581536.099 9   4728179.909 8
  22192540.798    22192547.778    -7584198.938 8  -1894215.834 9
  20397395.279    20397399.328    -3311799.111 8   -903379.129 8
 86  6 16 23 40 29.0800000  0  4G 6G 8G 9G11
  20343993.783    20343998.447    -3208545.508 9  -1165112.481 8
  21597551.252    21597555.209     4598704.574 9   4741557.934 8
  22189217.565    22189222.825    -7601671.050 8  -1907830.465 7
  20396676.354    20396680.632    -3315575.776 8   -906321.995 8
 86  6 16 23 40 35.0800000  0  4G 6G 8G 9G11
  20342973.621    20342978.982    -3213906.452 9  -1169289.838 8
  21600820.827    21600826.110     4615888.744 9   4754948.196 8
  22185892.461    22185897.461    -7619139.295 8  -1921442.063 8
  20395961.918    20395967.023    -3319329.048 8   -909246.606 7
 86  6 16 23 40 41.0800000  0  4G 6G 8G 9G11
  20341956.691    20341961.014    -3219252.599 9  -1173455.672 8
  21604093.672    21604098.317     4633088.500 8   4768350.595 8
  22182568.828    22182575.032    -7636603.739 8  -1935050.723 8
  20395251.785    20395255.942    -3323058.970 7   -912153.038 7
 86  6 16 23 40 47.0800000  0  4G 6G 8G 9G11
  20340942.332    20340946.169    -3224584.009 8  -1177610.014 8
  21607369.723    21607373.572     4650303.784 8   4781765.095 8
  22179246.325    22179251.499    -7654064.312 8  -1948656.368 8
  20394546.964    20394551.981    -3326765.563 8   -915041.285 7
 86  6 16 23 40 53.0800000  0  4G 6G 8G 9G11
  20339930.377    20339934.362    -3229900.698 8  -1181752.883 8
  21610648.866    21610653.683     4667534.509 9   4795191.635 8
  22175923.888    22175930.988    -7671521.272 7  -1962259.175 7
  20393845.169    20393852.656    -3330448.921 8   -917911.428 7
 86  6 16 23 40 59.0800000  0  4G 6G 8G 9G11
  20338919.858    20338926.104    -3235202.570 8  -1185884.214 8
  21613931.605    21613934.642     4684780.643 9   4808630.178 7
  22172602.432    22172609.258    -7688974.404 8  -1975859.011 8
  20393149.732    20393154.668    -3334108.956 9   -920763.411 8
 86  6 16 23 41  5.0800000  0  4G 6G 8G 9G11
  20337915.352    20337919.424    -3240489.655 9  -1190004.022 8
  21617216.479    21617218.540     4702042.202 8   4822080.741 8
  22169282.511    22169287.837    -7706423.681 7  -1989455.833 8
  20392458.194    20392463.415    -3337745.745 8   -923597.268 8
 86  6 16 23 41 11.0800000  0  4G 6G 8G 9G11
  20336911.512    20336916.881    -3245761.885 8  -1194112.255 8
  21620503.225    21620507.861     4719319.262 8   4835543.371 8
  22165963.130    22165969.552    -7723869.080 8  -2003049.648 8
  20391770.233    20391775.394    -3341359.218 8   -926412.951 7
 86  6 16 23 41 17.0800000  0  4G 6G 8G 9G11
  20335911.336    20335915.826    -3251019.239 8  -1198208.891 8
  21623793.547    21623799.016     4736611.748 8   4849018.045 8
  22162644.571    22162649.230    -7741310.613 8  -2016640.443 7
  20391086.110    20391092.320    -3344949.337 8   -929210.451 8
 86  6 16 23 41 23.0800000  0  4G 6G 8G 9G11
  20334913.775    20334919.072    -3256261.676 9  -1202293.916 8
  21627086.883    21627091.376     4753919.656 9   4862504.720 7
  22159324.913    22159330.928    -7758748.189 8  -2030228.153 7
  20390408.172    20390413.575    -3348516.093 8   -931989.724 8
 86  6 16 23 41 29.0800000  0  4G 6G 8G 9G11
  20333919.006    20333923.427    -3261489.179 8  -1206367.287 8
  21630383.435    21630387.895     4771242.939 9   4876003.368 8
  22156008.108    22156014.069    -7776181.742 8  -2043812.730 7
  20389734.985    20389739.489    -3352059.451 9   -934750.785 8
 86  6 16 23 41 35.0800000  0  4G 6G 8G 9G11
  20332927.694    20332931.657    -3266701.654 9  -1210428.949 8
  21633683.812    21633689.315     4788581.614 9   4889514.031 8
  22152691.712    22152696.747    -7793611.339 7  -2057394.223 8
  20389063.638    20389069.501    -3355579.411 8   -937493.612 7
 86  6 16 23 41 41.0800000  0  4G 6G 8G 9G11
  20331936.593    20331942.332    -3271899.258 9  -1214479.027 8
  21636986.574    21636990.294     4805935.594 8   4903036.613 8
  22149377.309    22149380.448    -7811036.984 8  -2070972.643 7
  20388399.126    20388403.322    -3359076.072 8   -940218.276 8
 86  6 16 23 41 47.0800000  0  4G 6G 8G 9G11
  20330952.264    20330956.731    -3277081.903 8  -1218517.460 8
  21640290.528    21640294.763     4823304.856 9   4916571.096 7
  22146060.481    22146064.556    -7828458.665 7  -2084547.974 8
  20387738.725    20387743.278    -3362549.454 8   -942924.800 8
 86  6 16 23 41 53.0800000  0  4G 6G 8G 9G11
  20329969.332    20329973.612    -3282249.614 8  -1222544.241 8
  21643599.882    21643604.630     4840689.346 9   4930117.451 8
  22142745.736    22142751.646    -7845876.364 8  -2098120.193 7
  20387081.437    20387085.984    -3365999.551 8   -945613.187 8
 86  6 16 23 41 59.0800000  0  4G 6G 8G 9G11
  20328988.479    20328993.664    -3287402.274 8  -1226559.293 8
  21646909.798    21646915.063     4858089.056 9   4943675.652 9
  22139432.036    22139436.721    -7863290.022 7  -2111689.268 8
  20386427.283    20386433.649    -3369426.319 9   -948283.381 8
 86  6 16 23 42  5.0800000  0  4G 6G 8G 9G11
  20328010.122    20328014.561    -3292539.988 9  -1230562.700 8
  21650224.276    21650229.189     4875503.977 8   4957245.717 8
  22136119.830    22136123.542    -7880699.735 7  -2125255.270 8
  20385783.157    20385785.895    -3372829.779 9   -950935.437 7
 86  6 16 23 42 11.0800000  0  4G 6G 8G 9G11
  20327036.159    20327039.594    -3297662.653 9  -1234554.394 9
  21653542.050    21653545.666     4892934.072 8   4970827.608 7
  22132806.672    22132812.126    -7898105.312 8  -2138818.061 8
  20385137.736    20385144.208    -3376209.944 8   -953569.333 7
 86  6 16 23 42 17.0800000  0  4G 6G 8G 9G11
  20326063.869    20326067.256    -3302770.245 8  -1238534.335 8
  21656860.658    21656865.331     4910379.303 8   4984421.288 8
  22129496.220    22129500.750    -7915506.840 8  -2152377.667 7
  20384499.147    20384504.696    -3379566.820 8   -956185.077 8
 86  6 16 23 42 23.0800000  0  4G 6G 8G 9G11
  20325094.648    20325099.149    -3307862.754 8  -1242502.521 7
  21660182.976    21660189.279     4927839.715 8   4998026.794 8
  22126183.917    22126190.931    -7932904.197 8  -2165934.045 7
  20383864.872    20383869.472    -3382900.349 8   -958782.627 7
 86  6 16 23 42 29.0800000  0  4G 6G 8G 9G11
  20324128.925    20324132.923    -3312940.104 9  -1246458.898 9
  21663509.214    21663512.690     4945315.255 8   5011644.100 8
  22122874.192    22122879.223    -7950297.433 7  -2179487.190 7
  20383235.046    20383240.853    -3386210.464 7   -961361.936 7
 86  6 16 23 42 35.0800000  0  4G 6G 8G 9G11
  20323165.221    20323169.849    -3318002.336 8  -1250403.490 8
  21666836.691    21666841.799     4962805.915 9   5025273.180 7
  22119566.842    22119571.522    -7967686.501 9  -2193037.121 7
  20382608.639    20382614.798    -3389497.248 8   -963923.055 7
 86  6 16 23 42 41.0800000  0  4G 6G 8G 9G11
  20322205.946    20322208.901    -3323049.448 8  -1254336.299 8
  21670168.646    21670172.526     4980311.633 8   5038914.000 7
  22116258.248    22116263.700    -7985071.424 8  -2206583.812 8
  20381987.871    20381994.148    -3392760.725 8   -966466.019 8
 86  6 16 23 42 47.0800000  0  4G 6G 8G 9G11
  20321248.242    20321251.305    -3328081.486 8  -1258257.374 8
  21673501.657    21673507.546     4997832.294 8   5052566.454 7
  22112951.451    22112956.102    -8002452.270 8  -2220127.323 7
  20381370.689    20381377.402    -3396000.959 8   -968990.879 7
 86  6 16 23 42 53.0800000  0  4G 6G 8G 9G11
  20320292.294    20320297.324    -3333098.440 9  -1262166.688 8
  21676839.399    21676843.682     5015367.874 8   5066230.540 8
  22109643.630    22109648.285    -8019829.016 8  -2233667.628 7
  20380759.486    20380765.800    -3399217.978 8   -971497.648 8
 86  6 16 23 42 59.0800000  0  4G 6G 8G 9G11
  20319339.786    20319344.732    -3338100.268 9  -1266064.206 8
  21680178.592    21680183.128     5032918.405 8   5079906.267 8
  22106337.422    22106342.587    -8037201.572 8  -2247204.685 7
  20380151.467    20380157.383    -3402411.780 8   -973986.313 7
 86  6 16 23 43  5.0800000  0  4G 6G 8G 9G11
  20318391.905    20318396.451    -3343086.940 8  -1269949.938 8
  21683521.571    21683526.488     5050483.828 8   5093593.603 8
  22103032.983    22103037.462    -8054569.998 7  -2260738.498 7
  20379548.016    20379552.396    -3405582.335 7   -976456.872 8
 86  6 16 23 43 11.0800000  0  4G 6G 8G 9G11
  20317445.896    20317450.040    -3348058.437 9  -1273823.821 8
  21686867.060    21686871.653     5068064.123 8   5107292.528 8
  22099729.326    22099735.129    -8071934.139 7  -2274269.002 7
  20378948.707    20378955.276    -3408729.635 7   -978909.319 7
 86  6 16 23 43 17.0800000  0  4G 6G 8G 9G11
  20316501.233    20316506.558    -3353014.707 8  -1277685.853 8
  21690214.677    21690220.309     5085659.262 8   5121003.023 8
  22096424.277    22096430.553    -8089294.023 8  -2287796.164 6
  20378354.810    20378360.284    -3411853.684 7   -981343.636 7
 86  6 16 23 43 23.0800000  0  4G 6G 8G 9G11
  20315562.146    20315566.276    -3357955.748 8  -1281536.015 7
  21693566.138    21693572.798     5103269.310 8   5134725.139 7
  22093122.253    22093127.923    -8106649.644 7  -2301320.036 8
  20377763.876    20377770.630    -3414954.425 8   -983759.781 8
 86  6 16 23 43 29.0800000  0  4G 6G 8G 9G11
  20314624.806    20314630.275    -3362881.472 8  -1285374.232 9
  21696919.554    21696925.014     5120894.208 8   5148458.811 8
  22089819.947    22089823.707    -8124000.969 8  -2314840.549 7
  20377179.490    20377186.159    -3418031.819 9   -986157.751 7
 86  6 16 23 43 35.0800000  0  4G 6G 8G 9G11
  20313690.015    20313694.691    -3367791.888 8  -1289200.537 9
  21700276.844    21700281.503     5138533.952 8   5162204.053 8
  22086518.876    22086524.740    -8141347.935 8  -2328357.654 7
  20376597.282    20376603.164    -3421085.859 8   -988537.517 8
 86  6 16 23 43 41.0800000  0  4G 6G 8G 9G11
  20312758.574    20312763.989    -3372686.957 9  -1293014.868 7
  21703636.642    21703640.795     5156188.506 8   5175960.854 8
  22083219.952    22083224.119    -8158690.596 7  -2341871.407 7
  20376021.479    20376027.404    -3424116.560 8   -990899.112 8
 86  6 16 23 43 47.0800000  0  4G 6G 8G 9G11
  20311830.656    20311835.539    -3377566.720 8  -1296817.286 8
  21706998.453    21707004.108     5173857.842 8   5189729.164 7
  22079920.873    22079925.255    -8176028.837 8  -2355381.707 7
  20375449.127    20375455.202    -3427123.985 8   -993242.551 8
 86  6 16 23 43 53.0800000  0  4G 6G 8G 9G11
  20310903.766    20310909.105    -3382431.188 8  -1300607.780 8
  21710363.660    21710369.139     5191541.880 8   5203508.934 8
  22076621.474    22076626.150    -8193362.768 8  -2368888.663 8
  20374880.773    20374887.350    -3430108.147 8   -995567.872 8
 86  6 16 23 43 59.0800000  0  4G 6G 8G 9G11
  20309982.005    20309986.689    -3387280.380 8  -1304386.370 8
  21713731.566    21713737.295     5209240.596 8   5217300.136 8
  22073324.081    22073328.356    -8210692.319 8  -2382392.201 6
  20374318.387    20374323.698    -3433069.052 8   -997875.066 8
 86  6 16 23 44  5.0800000  0  4G 6G 8G 9G11
  20309060.824    20309066.661    -3392114.272 9  -1308153.032 8
  21717102.726    21717107.953     5226953.906 9   5231102.708 8
  22070027.146    22070030.614    -8228017.497 8  -2395892.335 7
  20373758.673    20373764.405    -3436006.713 8  -1000164.142 7
 86  6 16 23 44 11.0800000  0  4G 6G 8G 9G11
  20308144.645    20308149.954    -3396932.756 8  -1311907.699 8
  21720476.004    21720480.754     5244681.810 8   5244916.647 8
  22066730.288    22066735.499    -8245338.328 8  -2409389.076 8
  20373204.578    20373210.711    -3438921.096 9  -1002435.103 8
 86  6 16 23 44 17.0800000  0  4G 6G 8G 9G11
  20307230.302    20307235.223    -3401735.891 8  -1315650.401 8
  21723851.847    21723857.556     5262424.336 9   5258741.999 8
  22063434.108    22063441.220    -8262654.799 8  -2422882.440 8
  20372654.334    20372659.997    -3441812.253 8  -1004687.950 7
 86  6 16 23 44 23.0800000  0  4G 6G 8G 9G11
  20306318.660    20306324.951    -3406523.611 8  -1319381.092 8
  21727232.107    21727236.757     5280181.437 8   5272578.697 8
  22060141.036    22060146.070    -8279966.854 9  -2436372.338 8
  20372108.493    20372114.474    -3444680.153 7  -1006922.658 8
 86  6 16 23 44 29.0800000  0  4G 6G 8G 9G11
  20305412.129    20305416.763    -3411295.829 8  -1323099.703 8
  21730612.920    21730616.679     5297953.137 7   5286426.778 8
  22056848.946    22056853.485    -8297274.334 8  -2449858.688 7
  20371567.326    20371572.626    -3447524.736 8  -1009139.206 7
 86  6 16 23 44 35.0800000  0  4G 6G 8G 9G11
  20304506.793    20304510.758    -3416052.603 8  -1326806.276 8
  21733997.007    21734003.397     5315739.381 9   5300286.181 8
  22053554.876    22053560.236    -8314577.257 8  -2463341.469 8
  20371031.753    20371036.029    -3450346.022 8  -1011337.617 8
 86  6 16 23 44 41.0800000  0  4G 6G 8G 9G11
  20303603.689    20303609.605    -3420794.029 9  -1330500.899 8
  21737384.649    21737390.535     5333540.113 8   5314156.867 8
  22050262.978    22050267.256    -8331875.708 7  -2476820.779 7
  20370498.244    20370502.543    -3453144.114 8  -1013517.949 7
 86  6 16 23 44 47.0800000  0  4G 6G 8G 9G11
  20302704.359    20302709.938    -3425519.942 8  -1334183.426 8
  21740774.841    21740780.369     5351355.253 9   5328038.795 8
  22046972.055    22046977.321    -8349169.808 9  -2490296.679 8
  20369970.196    20369975.100    -3455918.972 8  -1015680.171 7
 86  6 16 23 44 53.0800000  0  4G 6G 8G 9G11
  20301808.081    20301812.764    -3430230.415 8  -1337853.915 8
  21744168.638    21744173.870     5369184.855 9   5341931.993 8
  22043682.252    22043687.162    -8366459.276 9  -2503768.985 7
  20369446.692    20369451.219    -3458670.633 8  -1017824.323 7
 86  6 16 23 44 59.0800000  0  4G 6G 8G 9G11
  20300914.144    20300919.204    -3434925.297 7  -1341512.273 8
  21747563.380    21747569.259     5387028.961 9   5355836.469 7
  22040393.155    22040399.328    -8383744.154 8  -2517237.717 8
  20368927.013    20368932.501    -3461399.000 7  -1019950.317 7
 86  6 16 23 45  5.0800000  0  4G 6G 8G 9G11
  20300026.142    20300028.600    -3439604.632 8  -1345158.510 7
  21750961.449    21750967.578     5404887.443 8   5369752.171 8
  22037103.406    22037110.663    -8401024.468 8  -2530702.882 7
  20368411.709    20368417.972    -3464104.089 8  -1022058.178 7
 86  6 16 23 45 11.0800000  0  4G 6G 8G 9G11
  20299136.366    20299142.530    -3444268.432 8  -1348792.621 7
  21754363.116    21754368.077     5422760.318 9   5383679.091 7
  22033817.958    22033821.884    -8418300.109 8  -2544164.413 7
  20367902.126    20367906.321    -3466785.905 7  -1024147.894 7
 86  6 16 23 45 17.0800000  0  4G 6G 8G 9G11
  20298251.943    20298257.228    -3448916.655 8  -1352414.619 8
  21757766.787    21757772.419     5440647.494 8   5397617.145 9
  22030531.712    22030535.601    -8435571.199 9  -2557622.393 7
  20367396.469    20367401.847    -3469444.543 7  -1026219.560 8
 86  6 16 23 45 23.0800000  0  4G 6G 8G 9G11
  20297369.781    20297374.621    -3453549.267 8  -1356024.441 9
  21761173.386    21761178.289     5458549.069 8   5411566.416 8
  22027246.476    22027250.113    -8452837.690 8  -2571076.801 8
  20366893.804    20366899.844    -3472079.938 8  -1028273.108 7
 86  6 16 23 45 29.0800000  0  4G 6G 8G 9G11
  20296491.772    20296497.672    -3458166.276 8  -1359622.117 8
  21764582.560    21764587.562     5476464.942 8   5425526.834 7
  22023960.951    22023964.568    -8470099.478 9  -2584527.544 8
  20366397.939    20366402.364    -3474692.086 8  -1030308.543 7
 86  6 16 23 45 35.0800000  0  4G 6G 8G 9G11
  20295617.180    20295621.667    -3462767.728 8  -1363207.664 9
  21767993.728    21768000.080     5494394.999 9   5439498.294 9
  22020676.459    22020680.941    -8487356.623 8  -2597974.657 8
  20365905.130    20365909.458    -3477281.054 8  -1032325.914 8
 86  6 16 23 45 41.0800000  0  4G 6G 8G 9G11
  20294743.642    20294749.065    -3467353.518 8  -1366780.999 9
  21771409.256    21771414.402     5512339.370 8   5453480.932 8
  22017394.253    22017397.942    -8504609.018 8  -2611418.077 7
  20365415.467    20365421.134    -3479846.710 8  -1034325.128 8
 86  6 16 23 45 47.0800000  0  4G 6G 8G 9G11
  20293875.021    20293879.033    -3471923.582 9  -1370342.088 7
  21774826.777    21774831.622     5530298.015 8   5467474.658 9
  22014112.022    22014115.465    -8521856.640 8  -2624857.771 8
  20364933.190    20364938.331    -3482389.102 7  -1036306.202 7
 86  6 16 23 45 53.0800000  0  4G 6G 8G 9G11
  20293007.802    20293012.885    -3476477.954 9  -1373890.952 9
  21778246.570    21778252.235     5548270.869 8   5481479.488 7
  22010829.230    22010834.373    -8539099.598 8  -2638293.830 8
  20364453.778    20364458.070    -3484908.205 8  -1038269.139 7
 86  6 16 23 45 59.0800000  0  4G 6G 8G 9G11
  20292144.844    20292149.092    -3481016.621 8  -1377427.576 8
  21781670.071    21781675.798     5566257.879 8   5495495.342 8
  22007550.050    22007555.702    -8556337.722 9  -2651726.135 8
  20363978.848    20363983.767    -3487404.097 8  -1040213.986 8
 86  6 16 23 46  5.0800000  0  4G 6G 8G 9G11
  20291283.980    20291288.419    -3485539.593 8  -1380951.956 8
  21785094.977    21785100.600     5584259.052 8   5509522.217 8
  22004272.232    22004274.244    -8573571.089 8  -2665154.705 8
  20363507.900    20363512.440    -3489876.822 8  -1042140.788 8
 86  6 16 23 46 11.0800000  0  4G 6G 8G 9G11
  20290426.543    20290431.638    -3490046.807 9  -1384464.074 8
  21788523.669    21788527.766     5602274.299 8   5523560.071 8
  22000993.252    22000996.214    -8590799.645 8  -2678579.550 7
  20363041.500    20363046.908    -3492326.284 8  -1044049.464 8
 86  6 16 23 46 17.0800000  0  4G 6G 8G 9G11
  20289572.398    20289575.393    -3494538.270 9  -1387963.923 8
  21791954.585    21791959.209     5620303.673 7   5537608.923 8
  21997714.847    21997717.766    -8608023.438 8  -2692000.700 7
  20362580.182    20362584.950    -3494752.486 8  -1045940.000 8
 86  6 16 23 46 23.0800000  0  4G 6G 8G 9G11
  20288720.286    20288723.366    -3499013.917 8  -1391451.424 8
  21795387.196    21795392.849     5638347.165 8   5551668.784 7
  21994436.365    21994442.278    -8625242.352 8  -2705418.027 7
  20362122.597    20362128.010    -3497155.456 8  -1047812.444 8
 86  6 16 23 46 29.0800000  0  4G 6G 8G 9G11
  20287871.989    20287874.749    -3503473.717 9  -1394926.601 8
  21798823.789    21798830.545     5656404.745 9   5565739.631 8
  21991161.498    21991167.711    -8642456.341 9  -2718831.532 7
  20361669.710    20361674.390    -3499535.183 8  -1049666.768 8
 86  6 16 23 46 35.0800000  0  4G 6G 8G 9G11
  20287025.391    20287028.994    -3507917.750 9  -1398389.492 8
  21802264.128    21802268.195     5674476.297 8   5579821.355 9
  21987887.022    21987892.245    -8659665.453 8  -2732241.206 7
  20361222.543    20361226.677    -3501891.680 8  -1051502.994 9
 86  6 16 23 46 41.0800000  0  4G 6G 8G 9G11
  20286182.769    20286187.234    -3512346.027 8  -1401840.089 8
  21805704.515    21805709.388     5692561.787 8   5593913.940 8
  21984612.407    21984617.930    -8676869.742 8  -2745647.138 7
  20360777.413    20360782.097    -3504225.029 8  -1053321.183 7
 86  6 16 23 46 47.0800000  0  4G 6G 8G 9G11
  20285343.184    20285347.084    -3516758.513 8  -1405278.397 8
  21809149.033    21809153.917     5710661.209 8   5608017.385 7
  21981340.289    21981344.794    -8694069.240 8  -2759049.337 8
  20360336.893    20360342.831    -3506535.215 9  -1055121.325 7
 86  6 16 23 46 53.0800000  0  4G 6G 8G 9G11
  20284507.246    20284511.084    -3521155.224 8  -1408704.401 8
  21812596.642    21812600.323     5728774.473 8   5622131.608 7
  21978068.367    21978074.319    -8711263.853 8  -2772447.724 8
  20359903.147    20359907.777    -3508822.324 8  -1056903.491 7
 86  6 16 23 46 59.0800000  0  4G 6G 8G 9G11
  20283673.709    20283677.160    -3525536.145 9  -1412118.091 9
  21816045.280    21816050.819     5746901.593 9   5636256.640 8
  21974797.423    21974802.539    -8728453.498 9  -2785842.259 7
  20359472.443    20359477.879    -3511086.279 9  -1058667.602 8
 86  6 16 23 47  5.0800000  0  4G 6G 8G 9G11
  20282842.433    20282845.739    -3529901.225 8  -1415519.474 8
  21819497.375    21819501.918     5765042.502 9   5650392.406 7
  21971527.798    21971531.063    -8745638.277 8  -2799232.989 8
  20359045.168    20359051.122    -3513327.073 8  -1060413.684 7
 86  6 16 23 47 11.0800000  0  4G 6G 8G 9G11
  20282013.861    20282017.916    -3534250.425 8  -1418908.456 8
  21822951.966    21822957.932     5783197.334 9   5664539.028 8
  21968257.901    21968262.277    -8762818.120 8  -2812619.871 8
  20358623.772    20358629.056    -3515544.712 8  -1062141.694 8
 86  6 16 23 47 17.0800000  0  4G 6G 8G 9G11
  20281189.730    20281194.655    -3538583.671 8  -1422284.996 9
  21826410.059    21826413.355     5801365.989 8   5678696.414 8
  21964988.995    21964993.915    -8779992.926 8  -2826002.830 8
  20358204.896    20358210.834    -3517739.043 8  -1063851.558 8
 86  6 16 23 47 23.0800000  0  4G 6G 8G 9G11
  20280367.907    20280372.302    -3542900.900 9  -1425649.070 8
  21829868.934    21829874.619     5819548.407 9   5692864.534 7
  21961722.796    21961727.343    -8797162.694 8  -2839381.860 8
  20357792.588    20357799.226    -3519910.180 8  -1065543.343 8
 86  6 16 23 47 29.0800000  0  4G 6G 8G 9G11
  20279549.027    20279554.789    -3547202.201 8  -1429000.741 8
  21833332.236    21833337.037     5837744.691 8   5707043.442 8
  21958455.970    21958461.225    -8814327.466 9  -2852756.996 7
  20357384.841    20357388.755    -3522058.154 8  -1067217.090 8
 86  6 16 23 47 35.0800000  0  4G 6G 8G 9G11
  20278735.331    20278739.349    -3551487.508 9  -1432339.939 8
  21836797.291    21836803.650     5855954.709 8   5721233.070 8
  21955191.211    21955195.340    -8831487.032 8  -2866128.093 7
  20356978.858    20356985.082    -3524182.890 8  -1068872.729 7
 86  6 16 23 47 41.0800000  0  4G 6G 8G 9G11
  20277922.107    20277925.675    -3555756.826 9  -1435666.674 7
  21840264.343    21840270.145     5874178.454 9   5735433.384 8
  21951926.649    21951932.117    -8848641.586 9  -2879495.270 8
  20356579.637    20356585.203    -3526284.475 8  -1070510.321 7
 86  6 16 23 47 47.0800000  0  4G 6G 8G 9G11
  20277113.316    20277117.393    -3560010.107 9  -1438980.916 7
  21843734.979    21843742.022     5892415.892 8   5749644.375 8
  21948664.290    21948667.607    -8865791.002 8  -2892858.445 8
  20356183.241    20356190.013    -3528362.840 8  -1072129.821 7
 86  6 16 23 47 53.0800000  0  4G 6G 8G 9G11
  20276306.282    20276309.517    -3564247.335 8  -1442282.654 8
  21847209.947    21847214.803     5910667.057 8   5763866.061 8
  21945399.336    21945404.047    -8882935.239 9  -2906217.585 9
  20355793.340    20355798.067    -3530417.986 8  -1073731.235 8
 86  6 16 23 47 59.0800000  0  4G 6G 8G 9G11
  20275502.772    20275507.455    -3568468.511 8  -1445571.885 7
  21850684.668    21850688.893     5928931.839 8   5778098.358 8
  21942138.929    21942143.783    -8900074.361 9  -2919572.732 8
  20355406.300    20355411.469    -3532449.969 7  -1075314.587 7
 86  6 16 23 48  5.0800000  0  4G 6G 8G 9G11
  20274702.563    20274706.700    -3572673.585 9  -1448848.554 8
  21854162.878    21854167.185     5947210.248 7   5792341.264 8
  21938878.614    21938883.691    -8917208.335 8  -2932923.865 7
  20355025.263    20355029.457    -3534458.762 8  -1076879.886 8
 86  6 16 23 48 11.0800000  0  4G 6G 8G 9G11
  20273905.545    20273910.287    -3576862.581 8  -1452112.716 8
  21857644.123    21857647.119     5965502.297 8   5806594.812 7
  21935619.000    21935623.645    -8934337.101 8  -2946270.963 8
  20354646.250    20354650.601    -3536444.409 7  -1078427.137 8
 86  6 16 23 48 17.0800000  0  4G 6G 8G 9G11
  20273110.870    20273116.610    -3581035.413 8  -1455364.265 8
  21861126.838    21861132.795     5983807.986 8   5820858.979 7
  21932360.869    21932365.442    -8951460.521 8  -2959613.874 8
  20354272.577    20354278.896    -3538406.791 8  -1079956.276 7
 86  6 16 23 48 23.0800000  0  4G 6G 8G 9G11
  20272321.075    20272324.559    -3585192.075 8  -1458603.231 8
  21864613.826    21864618.046     6002127.273 8   5835133.738 8
  21929103.350    21929107.926    -8968578.726 9  -2972952.727 8
  20353904.312    20353907.944    -3540345.991 8  -1081467.325 8
 86  6 16 23 48 29.0800000  0  4G 6G 8G 9G11
  20271531.978    20271537.039    -3589332.483 8  -1461829.518 8
  21868102.568    21868107.136     6020460.159 8   5849419.105 7
  21925848.046    21925851.171    -8985691.571 8  -2986287.416 8
  20353539.256    20353543.175    -3542261.944 8  -1082960.270 8
 86  6 16 23 48 35.0800000  0  4G 6G 8G 9G11
  20270747.513    20270751.178    -3593456.858 8  -1465043.311 7
  21871593.773    21871596.877     6038806.469 8   5863714.922 8
  21922589.957    21922595.063    -9002799.244 8  -2999618.073 7
  20353178.724    20353185.040    -3544154.808 9  -1084435.241 7
 86  6 16 23 48 41.0800000  0  4G 6G 8G 9G11
  20269965.872    20269970.722    -3597565.107 8  -1468244.562 8
  21875086.972    21875091.000     6057166.205 8   5878021.218 8
  21919336.399    21919340.912    -9019901.781 9  -3012944.704 8
  20352823.012    20352828.606    -3546024.620 8  -1085892.232 8
 86  6 16 23 48 47.0800000  0  4G 6G 8G 9G11
  20269186.595    20269191.545    -3601657.214 8  -1471433.211 8
  21878583.261    21878588.225     6075539.251 8   5892337.863 8
  21916081.650    21916088.152    -9036999.072 8  -3026267.252 7
  20352472.471    20352476.231    -3547871.333 9  -1087331.223 8
 86  6 16 23 48 53.0800000  0  4G 6G 8G 9G11
  20268410.591    20268416.388    -3605733.276 7  -1474609.366 7
  21882081.677    21882087.084     6093925.591 8   5906664.881 7
  21912829.628    21912834.940    -9054091.181 8  -3039585.774 8
  20352124.385    20352129.873    -3549695.122 8  -1088752.361 8
 86  6 16 23 48 59.0800000  0  4G 6G 8G 9G11
  20267638.854    20267643.475    -3609793.360 8  -1477773.066 8
  21885584.489    21885589.084     6112325.086 9   5921002.137 8
  21909579.398    21909583.537    -9071178.100 8  -3052900.251 7
  20351782.514    20351785.956    -3551496.010 8  -1090155.637 8
 86  6 16 23 49  5.0800000  0  4G 6G 8G 9G11
  20266869.369    20266873.923    -3613837.326 9  -1480924.214 7
  21889086.959    21889092.753     6130737.773 9   5935349.692 7
  21906327.815    21906332.425    -9088259.906 8  -3066210.747 8
  20351444.177    20351448.138    -3553273.929 8  -1091541.026 8
 86  6 16 23 49 11.0800000  0  4G 6G 8G 9G11
  20266102.969    20266107.902    -3617865.254 8  -1484062.858 8
  21892593.753    21892598.145     6149163.643 9   5949707.509 7
  21903078.564    21903084.548    -9105336.492 9  -3079517.183 8
  20351108.825    20351116.550    -3555028.850 8  -1092908.506 7
 86  6 16 23 49 17.0800000  0  4G 6G 8G 9G11
  20265339.915    20265343.805    -3621876.942 7  -1487188.860 8
  21896102.403    21896108.131     6167602.694 8   5964075.596 8
  21899828.008    21899834.781    -9122407.771 8  -3092819.455 7
  20350779.712    20350786.187    -3556760.757 7  -1094258.037 8
 86  6 16 23 49 23.0800000  0  4G 6G 8G 9G11
  20264579.471    20264583.450    -3625872.475 8  -1490302.251 8
  21899613.650    21899618.491     6186054.968 8   5978453.982 8
  21896581.961    21896587.470    -9139473.741 7  -3106117.621 8
  20350455.324    20350460.007    -3558469.675 8  -1095589.654 8
 86  6 16 23 49 29.0800000  0  4G 6G 8G 9G11
  20263821.683    20263825.795    -3629851.726 8  -1493402.972 8
  21903128.054    21903131.522     6204520.456 8   5992842.673 7
  21893336.139    21893341.316    -9156534.323 8  -3119411.570 8
  20350133.885    20350140.791    -3560155.467 8  -1096903.253 7
 86  6 16 23 49 35.0800000  0  4G 6G 8G 9G11
  20263067.657    20263072.408    -3633814.636 8  -1496490.966 8
  21906644.518    21906648.048     6222999.155 9   6007241.671 7
  21890091.014    21890095.613    -9173589.449 9  -3132701.266 8
  20349817.474    20349823.766    -3561818.158 8  -1098198.860 8
 86  6 16 23 49 41.0800000  0  4G 6G 8G 9G11
  20262316.501    20262321.552    -3637761.165 9  -1499566.178 8
  21910162.568    21910167.079     6241491.115 8   6021650.984 7
  21886847.910    21886851.885    -9190639.045 8  -3145986.654 8
  20349506.099    20349511.286    -3563457.697 8  -1099476.419 8
 86  6 16 23 49 47.0800000  0  4G 6G 8G 9G11
  20261569.128    20261574.137    -3641691.261 8  -1502628.589 8
  21913683.593    21913688.100     6259996.308 8   6036070.606 8
  21883602.823    21883607.362    -9207683.081 7  -3159267.716 8
  20349197.685    20349204.144    -3565074.063 8  -1100735.923 9
 86  6 16 23 49 53.0800000  0  4G 6G 8G 9G11
  20260823.971    20260829.827    -3645604.941 9  -1505678.206 8
  21917208.910    21917212.330     6278514.717 7   6050500.545 7
  21880359.278    21880364.584    -9224721.538 8  -3172544.438 8
  20348894.529    20348900.599    -3566667.283 7  -1101977.396 8
 86  6 16 23 49 59.0800000  0  4G 6G 8G 9G11
  20260082.583    20260087.494    -3649502.164 9  -1508715.010 7
  21920734.590    21920739.411     6297046.312 8   6064940.739 9
  21877120.246    21877125.624    -9241754.375 8  -3185816.776 8
  20348595.870    20348601.516    -3568237.337 7  -1103200.800 8
 86  6 16 23 50  5.0800000  0  4G 6G 8G 9G11
  20259343.644    20259348.465    -3653382.839 8  -1511738.923 8
  21924263.570    21924268.549     6315591.100 9   6079391.225 7
  21873878.894    21873883.356    -9258781.623 8  -3199084.746 8
  20348301.407    20348307.769    -3569784.213 8  -1104406.162 8
 86  6 16 23 50 11.0800000  0  4G 6G 8G 9G11
  20258607.798    20258612.823    -3657247.077 8  -1514750.004 8
  21927794.840    21927800.129     6334148.986 8   6093851.916 8
  21870638.403    21870644.579    -9275803.219 7  -3212348.337 7
  20348011.726    20348017.268    -3571307.962 7  -1105593.489 7
 86  6 16 23 50 17.0800000  0  4G 6G 8G 9G11
  20257876.343    20257881.250    -3661094.908 8  -1517748.314 8
  21931329.077    21931333.878     6352719.922 9   6108322.760 8
  21867402.336    21867406.964    -9292819.231 9  -3225607.542 8
  20347725.318    20347731.464    -3572808.619 7  -1106762.841 8
 86  6 16 23 50 23.0800000  0  4G 6G 8G 9G11
  20257147.257    20257151.408    -3664926.298 9  -1520733.816 8
  21934864.478    21934870.139     6371303.819 8   6122803.728 7
  21864164.747    21864170.545    -9309829.640 7  -3238862.413 9
  20347444.800    20347450.401    -3574286.231 8  -1107914.208 9
 86  6 16 23 50 29.0800000  0  4G 6G 8G 9G11
  20256421.591    20256425.863    -3668741.201 7  -1523706.466 8
  21938404.753    21938410.188     6389900.706 7   6137294.796 7
  21860928.274    21860933.520    -9326834.476 8  -3252112.922 8
  20347167.601    20347174.094    -3575740.753 8  -1109047.601 8
 86  6 16 23 50 35.0800000  0  4G 6G 8G 9G11
  20255699.380    20255703.803    -3672539.605 9  -1526666.266 8
  21941946.430    21941950.107     6408510.526 8   6151795.942 8
  21857695.083    21857698.526    -9343833.618 8  -3265359.006 7
  20346895.808    20346901.562    -3577172.265 7  -1110163.069 8
 86  6 16 23 50 41.0800000  0  4G 6G 8G 9G11
  20254979.531    20254984.330    -3676321.492 8  -1529613.197 8
  21945489.416    21945493.356     6427133.312 8   6166307.198 8
  21854460.943    21854465.771    -9360827.160 9  -3278600.727 8
  20346625.818    20346633.935    -3578580.690 7  -1111260.525 8
 86  6 16 23 50 47.0800000  0  4G 6G 8G 9G11
  20254264.088    20254267.366    -3680086.892 8  -1532547.253 8
  21949036.033    21949039.912     6445768.973 8   6180828.501 8
  21851227.471    21851232.305    -9377814.978 8  -3291837.972 7
  20346363.629    20346369.699    -3579966.065 8  -1112340.045 7
 86  6 16 23 50 53.0800000  0  4G 6G 8G 9G11
  20253550.214    20253553.764    -3683835.773 8  -1535468.470 8
  21952584.085    21952589.734     6464417.494 8   6195359.812 8
  21847995.142    21848000.997    -9394797.089 7  -3305070.793 8
  20346104.885    20346111.759    -3581328.426 8  -1113401.620 7
 86  6 16 23 50 59.0800000  0  4G 6G 8G 9G11
  20252837.419    20252842.801    -3687568.132 8  -1538376.796 8
  21956136.378    21956140.093     6483078.867 8   6209901.127 7
  21844765.517    21844769.948    -9411773.511 8  -3318299.152 8
  20345849.489    20345855.159    -3582667.787 8  -1114445.273 8
 86  6 16 23 51  5.0800000  0  4G 6G 8G 9G11
  20252131.579    20252135.746    -3691283.968 8  -1541272.243 8
  21959689.227    21959693.705     6501752.995 9   6224452.398 7
  21841534.267    21841541.038    -9428744.223 8  -3331523.096 8
  20345598.583    20345605.877    -3583984.104 8  -1115470.991 8
 86  6 16 23 51 11.0800000  0  4G 6G 8G 9G11
  20251427.309    20251431.370    -3694983.138 8  -1544154.716 7
  21963244.890    21963250.945     6520439.998 7   6239013.700 8
  21838306.963    21838313.182    -9445709.126 8  -3344742.472 8
  20345353.300    20345359.639    -3585277.389 8  -1116478.729 8
 86  6 16 23 51 17.0800000  0  4G 6G 8G 9G11
  20250727.800    20250732.068    -3698665.678 8  -1547024.224 8
  21966803.816    21966808.561     6539139.773 8   6253584.941 8
  21835079.605    21835085.406    -9462668.183 8  -3357957.310 7
  20345111.701    20345116.590    -3586547.558 8  -1117468.469 8
 86  6 16 23 51 23.0800000  0  4G 6G 8G 9G11
  20250030.687    20250033.109    -3702331.481 9  -1549880.718 8
  21970364.809    21970368.883     6557852.384 8   6268166.193 8
  21831854.854    21831860.332    -9479621.435 8  -3371167.648 9
  20344873.888    20344879.727    -3587794.670 8  -1118440.240 9
 86  6 16 23 51 29.0800000  0  4G 6G 8G 9G11
  20249335.283    20249338.582    -3705980.665 8  -1552724.217 9
  21973928.276    21973932.584     6576577.731 7   6282757.367 7
  21828628.624    21828635.091    -9496568.824 9  -3384373.391 8
  20344640.568    20344646.287    -3589018.715 8  -1119394.037 8
 86  6 16 23 51 35.0800000  0  4G 6G 8G 9G11
  20248644.329    20248647.669    -3709613.171 8  -1555554.743 7
  21977491.930    21977498.112     6595315.766 9   6297358.435 7
  21825404.800    21825409.731    -9513510.298 8  -3397574.526 7
  20344411.868    20344418.141    -3590219.771 7  -1120329.934 7
 86  6 16 23 51 41.0800000  0  4G 6G 8G 9G11
  20247956.383    20247959.948    -3713229.004 8  -1558372.275 7
  21981062.265    21981065.595     6614066.508 8   6311969.396 8
  21822183.117    21822188.428    -9530445.973 8  -3410771.153 8
  20344188.589    20344193.942    -3591397.841 9  -1121247.892 7
 86  6 16 23 51 47.0800000  0  4G 6G 8G 9G11
  20247271.162    20247275.429    -3716828.211 8  -1561176.849 8
  21984631.989    21984636.491     6632829.814 8   6326590.150 7
  21818959.983    21818966.147    -9547375.824 8  -3423963.244 7
  20343969.591    20343975.037    -3592552.960 8  -1122147.991 7
 86  6 16 23 51 53.0800000  0  4G 6G 8G 9G11
  20246590.405    20246593.343    -3720410.680 9  -1563968.377 7
  21988204.394    21988208.742     6651605.722 8   6341220.718 7
  21815740.984    21815746.087    -9564299.780 8  -3437150.746 8
  20343753.806    20343758.320    -3593685.054 7  -1123030.127 7
 86  6 16 23 51 59.0800000  0  4G 6G 8G 9G11
  20245910.699    20245915.051    -3723976.486 8  -1566746.928 8
  21991780.976    21991784.943     6670394.181 7   6355861.075 9
  21812521.069    21812525.683    -9581217.893 8  -3450333.671 8
  20343543.863    20343547.561    -3594794.185 7  -1123894.403 8
 86  6 16 23 52  5.0800000  0  4G 6G 8G 9G11
  20245235.649    20245238.729    -3727525.572 9  -1569512.461 8
  21995358.607    21995362.967     6689195.190 8   6370511.205 8
  21809301.152    21809307.316    -9598130.021 7  -3463511.941 8
  20343335.578    20343340.510    -3595880.377 8  -1124740.775 8
 86  6 16 23 52 11.0800000  0  4G 6G 8G 9G11
  20244563.037    20244567.083    -3731057.990 7  -1572264.979 7
  21998937.146    21998942.249     6708008.688 8   6385171.084 8
  21806085.610    21806091.240    -9615036.251 8  -3476685.626 8
  20343133.417    20343139.420    -3596943.651 8  -1125569.299 7
 86  6 16 23 52 17.0800000  0  4G 6G 8G 9G11
  20243893.922    20243897.741    -3734573.734 8  -1575004.527 8
  22002520.969    22002525.966     6726834.556 7   6399840.565 8
  21802868.017    21802874.259    -9631936.579 8  -3489854.700 8
  20342936.548    20342940.578    -3597984.086 9  -1126380.022 8
 86  6 16 23 52 23.0800000  0  4G 6G 8G 9G11
  20243228.452    20243232.760    -3738072.828 8  -1577731.080 8
  22006105.450    22006109.703     6745672.799 7   6414519.736 8
  21799653.754    21799659.086    -9648831.049 8  -3503019.220 8
  20342742.777    20342747.230    -3599001.661 8  -1127172.943 7
 86  6 16 23 52 29.0800000  0  4G 6G 8G 9G11
  20242564.257    20242570.147    -3741555.187 8  -1580444.609 7
  22009692.678    22009697.338     6764523.395 9   6429208.497 8
  21796442.528    21796445.951    -9665719.669 7  -3516179.177 8
  20342552.857    20342557.716    -3599996.375 7  -1127948.039 8
 86  6 16 23 52 35.0800000  0  4G 6G 8G 9G11
  20241906.778    20241910.950    -3745020.836 7  -1583145.129 8
  22013281.652    22013285.073     6783386.243 9   6443906.818 8
  21793229.626    21793233.583    -9682602.333 8  -3529334.475 8
  20342366.743    20342373.699    -3600968.263 8  -1128705.352 8
 86  6 16 23 52 41.0800000  0  4G 6G 8G 9G11
  20241249.288    20241254.212    -3748469.674 8  -1585832.528 7
  22016872.945    22016878.650     6802261.515 7   6458614.825 8
  21790016.562    21790022.034    -9699479.034 8  -3542485.163 8
  20342187.277    20342192.168    -3601917.199 8  -1129444.779 8
 86  6 16 23 52 47.0800000  0  4G 6G 8G 9G11
  20240596.938    20240600.683    -3751901.712 8  -1588506.836 8
  22020467.281    22020471.867     6821149.144 8   6473332.439 7
  21786805.210    21786811.183    -9716349.577 8  -3555631.058 8
  20342011.400    20342015.654    -3602843.180 8  -1130166.309 8
 86  6 16 23 52 53.0800000  0  4G 6G 8G 9G11
  20239947.081    20239950.694    -3755316.825 8  -1591167.975 8
  22024064.392    22024069.251     6840049.140 9   6488059.712 8
  21783596.514    21783602.449    -9733214.026 9  -3568772.174 8
  20341838.935    20341844.079    -3603746.160 8  -1130869.949 8
 86  6 16 23 52 59.0800000  0  4G 6G 8G 9G11
  20239300.107    20239304.229    -3758714.980 9  -1593815.893 7
  22027663.087    22027667.998     6858961.538 8   6502796.631 8
  21780389.243    21780395.021    -9750072.245 9  -3581908.440 8
  20341672.263    20341676.353    -3604626.167 8  -1131555.655 8
 86  6 16 23 53  5.0800000  0  4G 6G 8G 9G11
  20238656.136    20238660.892    -3762096.153 8  -1596450.580 8
  22031264.730    22031269.807     6877886.319 8   6517543.216 8
  21777182.530    21777187.885    -9766924.303 8  -3595039.899 8
  20341509.134    20341513.441    -3605483.179 7  -1132223.464 7
 86  6 16 23 53 11.0800000  0  4G 6G 8G 9G11
  20238016.092    20238021.251    -3765460.362 8  -1599072.029 7
  22034868.928    22034871.847     6896823.417 8   6532299.398 8
  21773977.062    21773981.172    -9783770.120 8  -3608166.500 7
  20341349.737    20341355.198    -3606317.251 7  -1132873.380 8
 86  6 16 23 53 17.0800000  0  4G 6G 8G 9G11
  20237379.796    20237383.237    -3768807.616 8  -1601680.280 8
  22038474.348    22038479.189     6915772.776 8   6547065.119 8
  21770772.130    21770777.241    -9800609.748 8  -3621288.293 7
  20341196.046    20341201.289    -3607128.372 8  -1133505.428 7
 86  6 16 23 53 23.0800000  0  4G 6G 8G 9G11
  20236744.970    20236750.198    -3772137.905 8  -1604275.312 8
  22042082.707    22042088.057     6934734.376 8   6561840.394 7
  21767568.608    21767574.065    -9817443.239 8  -3634405.302 7
  20341045.340    20341050.184    -3607916.598 8  -1134119.623 8
 86  6 16 23 53 29.0800000  0  4G 6G 8G 9G11
  20236113.870    20236119.388    -3775451.217 8  -1606857.110 9
  22045692.135    22045697.670     6953708.143 8   6576625.120 7
  21764367.255    21764371.805    -9834270.491 8  -3647517.437 8
  20340899.327    20340905.362    -3608681.890 7  -1134715.952 8
 86  6 16 23 53 35.0800000  0  4G 6G 8G 9G11
  20235487.577    20235492.866    -3778747.665 8  -1609425.768 8
  22049307.112    22049310.099     6972693.928 8   6591419.242 8
  21761166.148    21761171.892    -9851091.601 9  -3660624.788 9
  20340757.517    20340763.189    -3609424.409 7  -1135294.538 8
 86  6 16 23 53 41.0800000  0  4G 6G 8G 9G11
  20234863.669    20234868.777    -3782027.217 8  -1611981.275 8
  22052921.624    22052926.450     6991691.769 7   6606222.751 9
  21757966.936    21757969.987    -9867906.490 8  -3673727.291 7
  20340620.897    20340627.077    -3610144.129 7  -1135855.351 8
 86  6 16 23 53 47.0800000  0  4G 6G 8G 9G11
  20234242.763    20234247.758    -3785289.813 9  -1614523.560 8
  22056537.510    22056543.561     7010701.632 8   6621035.624 7
  21754768.177    21754771.951    -9884715.267 7  -3686825.026 8
  20340488.847    20340493.913    -3610841.028 8  -1136398.375 8
 86  6 16 23 53 53.0800000  0  4G 6G 8G 9G11
  20233625.550    20233630.137    -3788535.409 8  -1617052.585 8
  22060157.123    22060163.683     7029723.572 7   6635857.907 7
  21751569.989    21751575.438    -9901517.674 7  -3699917.817 8
  20340360.009    20340366.154    -3611515.087 8  -1136923.627 8
 86  6 16 23 53 59.0800000  0  4G 6G 8G 9G11
  20233010.193    20233015.516    -3791763.985 9  -1619568.368 8
  22063780.650    22063785.280     7048757.548 8   6650689.570 8
  21748373.605    21748378.513    -9918313.789 8  -3713005.681 8
  20340237.014    20340242.021    -3612166.252 8  -1137431.026 8
 86  6 16 23 54  5.0800000  0  4G 6G 8G 9G11
  20232400.408    20232405.143    -3794975.447 8  -1622070.797 8
  22067406.045    22067409.741     7067803.604 8   6665530.640 8
  21745178.210    21745184.054    -9935103.555 8  -3726088.626 7
  20340116.889    20340122.310    -3612794.524 8  -1137920.569 8
 86  6 16 23 54 11.0800000  0  4G 6G 8G 9G11
  20231792.778    20231797.375    -3798169.833 8  -1624559.939 7
  22071031.479    22071035.719     7086861.630 7   6680381.056 8
  21741984.822    21741990.460    -9951886.961 9  -3739166.578 8
  20340001.648    20340006.769    -3613399.963 8  -1138392.336 7
 86  6 16 23 54 17.0800000  0  4G 6G 8G 9G11
  20231187.066    20231191.642    -3801347.108 9  -1627035.732 8
  22074661.111    22074666.096     7105931.652 8   6695240.804 8
  21738791.654    21738797.770    -9968663.912 8  -3752239.528 8
  20339890.654    20339896.971    -3613982.537 7  -1138846.283 8
 86  6 16 23 54 23.0800000  0  4G 6G 8G 9G11
  20230586.152    20230590.782    -3804507.214 8  -1629498.147 8
  22078291.765    22078295.498     7125013.690 7   6710109.913 8
  21735602.339    21735605.739    -9985434.477 7  -3765307.499 7
  20339784.659    20339789.966    -3614542.207 7  -1139282.392 8
 86  6 16 23 54 29.0800000  0  4G 6G 8G 9G11
  20229988.565    20229992.839    -3807650.138 8  -1631947.183 8
  22081925.650    22081929.977     7144107.707 7   6724988.358 7
  21732411.764    21732417.021   -10002198.565 8  -3778370.417 8
  20339683.173    20339688.281    -3615078.969 8  -1139700.638 8
 86  6 16 23 54 35.0800000  0  4G 6G 8G 9G11
  20229392.334    20229398.525    -3810775.883 8  -1634382.837 7
  22085560.300    22085565.682     7163213.644 8   6739876.096 8
  21729222.153    21729227.222   -10018956.241 9  -3791428.335 8
  20339584.847    20339588.873    -3615592.876 9  -1140101.088 8
 86  6 16 23 54 41.0800000  0  4G 6G 8G 9G11
  20228801.586    20228806.521    -3813884.526 9  -1636805.144 7
  22089198.631    22089203.351     7182331.404 8   6754773.045 8
  21726035.195    21726038.813   -10035707.452 9  -3804481.226 7
  20339491.830    20339495.941    -3616084.061 7  -1140483.814 8
 86  6 16 23 54 47.0800000  0  4G 6G 8G 9G11
  20228213.428    20228217.755    -3816975.959 8  -1639214.054 8
  22092838.288    22092843.243     7201460.962 8   6769679.202 8
  21722848.842    21722852.379   -10052452.152 8  -3817529.037 7
  20339401.854    20339407.204    -3616552.455 8  -1140848.804 8
 86  6 16 23 54 53.0800000  0  4G 6G 8G 9G11
  20227628.895    20227632.419    -3820050.287 8  -1641609.647 8
  22096480.216    22096485.956     7220602.315 8   6784594.524 8
  21719663.450    21719667.439   -10069190.455 8  -3830571.865 8
  20339317.375    20339322.738    -3616998.048 8  -1141196.000 8
 86  6 16 23 54 59.0800000  0  4G 6G 8G 9G11
  20227046.892    20227050.995    -3823107.480 9  -1643991.876 8
  22100126.627    22100131.428     7239755.424 8   6799519.019 8
  21716478.911    21716483.117   -10085922.327 8  -3843609.689 8
  20339237.437    20339240.173    -3617420.755 8  -1141525.386 8
 86  6 16 23 55  5.0800000  0  4G 6G 8G 9G11
  20226467.803    20226471.681    -3826147.514 8  -1646360.717 8
  22103773.124    22103777.045     7258920.233 8   6814452.641 7
  21713296.131    21713300.535   -10102647.637 9  -3856642.398 7
  20339160.246    20339165.971    -3617820.713 8  -1141837.040 8
 86  6 16 23 55 11.0800000  0  4G 6G 8G 9G11
  20225893.454    20225897.876    -3829170.370 9  -1648716.194 8
  22107422.007    22107427.037     7278096.677 9   6829395.315 8
  21710116.019    21710120.444   -10119366.514 9  -3869670.089 7
  20339089.399    20339094.006    -3618197.993 8  -1142131.010 8
 86  6 16 23 55 17.0800000  0  4G 6G 8G 9G11
  20225321.714    20225324.960    -3832176.107 8  -1651058.327 7
  22111073.597    22111078.716     7297284.672 8   6844346.989 8
  21706933.958    21706938.663   -10136078.969 8  -3882692.763 7
  20339021.113    20339027.282    -3618552.606 8  -1142407.329 7
 86  6 16 23 55 23.0800000  0  4G 6G 8G 9G11
  20224752.895    20224757.106    -3835164.700 8  -1653387.095 8
  22114726.734    22114733.439     7316484.241 9   6859307.693 8
  21703754.925    21703759.928   -10152784.884 8  -3895710.364 6
  20338958.771    20338962.863    -3618884.529 8  -1142665.976 8
 86  6 16 23 55 29.0800000  0  4G 6G 8G 9G11
  20224187.580    20224190.208    -3838136.092 8  -1655702.466 8
  22118382.085    22118388.422     7335695.362 8   6874277.390 7
  21700576.885    21700582.279   -10169484.383 8  -3908722.940 8
  20338899.563    20338904.565    -3619193.778 8  -1142906.947 7
 86  6 16 23 55 35.0800000  0  4G 6G 8G 9G11
  20223624.599    20223628.662    -3841090.239 8  -1658004.393 7
  22122041.430    22122047.554     7354918.059 7   6889256.110 8
  21697400.931    21697406.085   -10186177.201 8  -3921730.327 7
  20338845.189    20338850.219    -3619480.349 8  -1143130.243 7
 86  6 16 23 55 41.0800000  0  4G 6G 8G 9G11
  20223066.654    20223071.161    -3844027.006 8  -1660292.786 7
  22125701.294    22125705.695     7374152.415 8   6904243.917 7
  21694225.836    21694230.767   -10202863.342 9  -3934732.505 8
  20338793.958    20338800.206    -3619744.165 8  -1143335.817 7
 86  6 16 23 55 47.0800000  0  4G 6G 8G 9G11
  20222511.400    20222514.107    -3846946.411 8  -1662567.647 7
  22129363.587    22129368.839     7393398.363 8   6919240.764 8
  21691052.532    21691056.977   -10219542.818 8  -3947729.485 8
  20338748.947    20338753.603    -3619985.170 8  -1143523.600 8
 86  6 16 23 55 53.0800000  0  4G 6G 8G 9G11
  20221957.581    20221961.920    -3849848.369 9  -1664828.917 8
  22133028.772    22133032.530     7412655.985 8   6934246.684 8
  21687878.315    21687883.724   -10236215.527 8  -3960721.196 8
  20338707.901    20338712.314    -3620203.337 9  -1143693.605 8
 86  6 16 23 55 59.0800000  0  4G 6G 8G 9G11
  20221409.862    20221412.818    -3852732.878 8  -1667076.593 8
  22136693.758    22136700.419     7431925.152 8   6949261.613 9
  21684708.363    21684713.036   -10252881.480 9  -3973707.644 8
  20338669.777    20338675.154    -3620398.731 8  -1143845.857 7
 86  6 16 23 56  5.0800000  0  4G 6G 8G 9G11
  20220864.621    20220868.624    -3855600.033 8  -1669310.735 8
  22140363.386    22140368.553     7451205.860 8   6964285.540 9
  21681538.218    21681542.480   -10269540.601 8  -3986688.785 8
  20338638.155    20338642.440    -3620571.376 8  -1143980.380 8
 86  6 16 23 56 11.0800000  0  4G 6G 8G 9G11
  20220321.699    20220324.900    -3858449.725 8  -1671531.271 7
  22144032.542    22144040.238     7470498.029 7   6979318.397 8
  21678368.884    21678373.091   -10286192.964 7  -3999664.657 8
  20338608.909    20338614.165    -3620721.227 8  -1144097.150 8
 86  6 16 23 56 17.0800000  0  4G 6G 8G 9G11
  20219782.940    20219785.529    -3861281.928 9  -1673738.182 7
  22147708.697    22147713.479     7489801.757 8   6994360.266 8
  21675201.432    21675206.501   -10302838.424 9  -4012635.122 8
  20338584.293    20338589.447    -3620848.283 8  -1144196.163 7
 86  6 16 23 56 23.0800000  0  4G 6G 8G 9G11
  20219247.323    20219250.696    -3864096.707 8  -1675931.512 8
  22151383.506    22151388.052     7509116.930 8   7009411.052 8
  21672033.727    21672039.671   -10319477.132 8  -4025600.339 8
  20338564.424    20338570.068    -3620952.599 8  -1144277.444 8
 86  6 16 23 56 29.0800000  0  4G 6G 8G 9G11
  20218715.421    20218717.912    -3866894.070 8  -1678111.272 8
  22155061.978    22155066.878     7528443.444 9   7024470.667 7
  21668869.859    21668874.146   -10336109.019 9  -4038560.240 8
  20338548.839    20338553.907    -3621034.267 8  -1144341.076 7
 86  6 16 23 56 35.0800000  0  4G 6G 8G 9G11
  20218185.061    20218189.122    -3869674.050 8  -1680277.496 7
  22158741.283    22158747.149     7547781.264 9   7039539.100 8
  21665705.406    21665711.849   -10352734.136 9  -4051514.899 8
  20338536.806    20338543.348    -3621093.300 8  -1144387.074 8
 86  6 16 23 56 41.0800000  0  4G 6G 8G 9G11
  20217659.323    20217664.237    -3872436.636 8  -1682430.151 8
  22162423.858    22162428.842     7567130.314 8   7054616.274 9
  21662543.888    21662547.514   -10369352.476 8  -4064464.220 8
  20338531.656    20338536.627    -3621129.753 8  -1144415.479 6
 86  6 16 23 56 47.0800000  0  4G 6G 8G 9G11
  20217137.238    20217140.553    -3875181.826 8  -1684569.255 8
  22166107.388    22166111.999     7586490.601 8   7069702.207 8
  21659382.317    21659388.078   -10385963.973 9  -4077408.247 8
  20338527.790    20338532.256    -3621143.634 8  -1144426.284 8
 86  6 16 23 56 53.0800000  0  4G 6G 8G 9G11
  20216617.775    20216621.624    -3877909.618 8  -1686694.799 8
  22169793.055    22169797.766     7605862.106 8   7084796.867 8
  21656222.107    21656228.277   -10402568.736 9  -4090347.019 7
  20338531.042    20338534.392    -3621134.916 8  -1144419.505 7
 86  6 16 23 56 59.0800000  0  4G 6G 8G 9G11
  20216102.596    20216106.595    -3880619.920 9  -1688806.746 7
  22173483.118    22173486.790     7625244.731 8   7099900.211 7
  21653064.011    21653069.540   -10419166.623 8  -4103280.425 8
  20338536.062    20338540.033    -3621103.618 9  -1144395.110 8
 86  6 16 23 57  5.0800000  0  4G 6G 8G 9G11
  20215590.128    20215595.058    -3883312.772 8  -1690905.053 8
  22177172.009    22177178.407     7644638.585 8   7115012.310 7
  21649906.862    21649912.210   -10435757.572 8  -4116208.426 8
  20338545.672    20338550.660    -3621049.689 8  -1144353.068 8
 86  6 16 23 57 11.0800000  0  4G 6G 8G 9G11
  20215080.474    20215085.328    -3885987.890 9  -1692989.580 7
  22180865.182    22180870.155     7664043.796 8   7130133.248 8
  21646751.854    21646756.610   -10452341.464 9  -4129130.932 7
  20338560.817    20338568.395    -3620973.001 8  -1144293.326 8
 86  6 16 23 57 17.0800000  0  4G 6G 8G 9G11
  20214575.713    20214578.231    -3888645.436 8  -1695060.372 9
  22184560.036    22184565.839     7683460.210 8   7145262.918 7
  21643598.056    21643601.645   -10468918.327 9  -4142047.960 8
  20338579.237    20338584.726    -3620873.702 7  -1144215.936 7
 86  6 16 23 57 23.0800000  0  4G 6G 8G 9G11
  20214072.375    20214077.222    -3891285.343 8  -1697117.452 8
  22188257.282    22188263.597     7702887.761 8   7160401.255 7
  21640444.617    21640450.017   -10485488.094 8  -4154959.467 8
  20338602.990    20338607.465    -3620751.738 7  -1144120.904 8
 86  6 16 23 57 29.0800000  0  4G 6G 8G 9G11
  20213573.571    20213576.538    -3893907.573 9  -1699160.749 7
  22191956.341    22191962.009     7722326.588 7   7175548.391 7
  21637292.190    21637297.587   -10502050.797 8  -4167865.463 8
  20338630.231    20338635.253    -3620607.016 9  -1144008.130 8
 86  6 16 23 57 35.0800000  0  4G 6G 8G 9G11
  20213077.747    20213081.715    -3896512.167 8  -1701190.297 7
  22195656.880    22195662.631     7741776.484 7   7190704.159 7
  21634141.658    21634145.696   -10518606.446 7  -4180765.948 8
  20338663.199    20338668.133    -3620439.664 8  -1143877.708 8
 86  6 16 23 57 41.0800000  0  4G 6G 8G 9G11
  20212585.354    20212589.667    -3899099.050 9  -1703206.056 8
  22199360.519    22199366.109     7761237.530 8   7205868.590 7
  21630991.441    21630998.240   -10535154.982 8  -4193660.918 7
  20338697.484    20338702.728    -3620249.619 8  -1143729.627 7
 86  6 16 23 57 47.0800000  0  4G 6G 8G 9G11
  20212096.667    20212099.814    -3901668.240 9  -1705208.017 7
  22203065.913    22203071.987     7780709.684 7   7221041.700 7
  21627844.998    21627850.933   -10551696.409 8  -4206550.334 8
  20338737.986    20338744.634    -3620036.938 7  -1143563.891 7
 86  6 16 23 57 53.0800000  0  4G 6G 8G 9G11
  20211611.717    20211615.435    -3904219.737 8  -1707196.191 7
  22206773.510    22206779.050     7800192.924 8   7236223.437 7
  21624698.584    21624703.289   -10568230.704 8  -4219434.194 8
  20338783.079    20338787.716    -3619801.553 8  -1143380.491 8
 86  6 16 23 57 59.0800000  0  4G 6G 8G 9G11
  20211128.795    20211132.930    -3906753.413 8  -1709170.498 8
  22210482.987    22210488.638     7819687.237 9   7251413.816 9
  21621553.114    21621558.856   -10584757.709 8  -4232312.376 9
  20338831.968    20338838.445    -3619543.507 8  -1143179.405 8
 86  6 16 23 58  5.0800000  0  4G 6G 8G 9G11
  20210650.775    20210655.530    -3909269.394 8  -1711130.981 8
  22214194.697    22214201.348     7839192.605 9   7266612.799 7
  21618409.634    21618415.040   -10601277.459 8  -4245184.891 7
  20338885.863    20338890.677    -3619262.843 8  -1142960.708 7
 86  6 16 23 58 11.0800000  0  4G 6G 8G 9G11
  20210175.265    20210178.862    -3911767.634 8  -1713077.676 8
  22217909.265    22217914.578     7858708.898 7   7281820.286 8
  21615266.849    21615271.517   -10617790.090 8  -4258051.875 8
  20338942.881    20338949.679    -3618959.577 8  -1142724.389 7
 86  6 16 23 58 17.0800000  0  4G 6G 8G 9G11
  20209704.205    20209706.900    -3914248.156 8  -1715010.544 8
  22221624.257    22221630.480     7878236.095 9   7297036.284 8
  21612125.535    21612131.095   -10634295.634 9  -4270913.333 8
  20339006.040    20339011.017    -3618633.768 8  -1142470.510 8
 86  6 16 23 58 23.0800000  0  4G 6G 8G 9G11
  20209234.823    20209238.029    -3916711.013 8  -1716929.650 8
  22225343.722    22225347.599     7897774.127 8   7312260.727 7
  21608987.280    21608991.389   -10650793.933 8  -4283769.153 8
  20339071.607    20339078.386    -3618285.486 8  -1142199.116 8
 86  6 16 23 58 29.0800000  0  4G 6G 8G 9G11
  20208769.645    20208773.672    -3919156.200 8  -1718834.988 8
  22229063.253    22229067.831     7917322.897 7   7327493.529 7
  21605848.622    21605854.792   -10667285.083 9  -4296619.392 8
  20339143.260    20339148.437    -3617914.676 8  -1141910.181 8
 86  6 16 23 58 35.0800000  0  4G 6G 8G 9G11
  20208307.824    20208310.715    -3921583.617 8  -1720726.477 7
  22232785.703    22232790.243     7936882.487 8   7342734.770 7
  21602711.028    21602717.427   -10683769.110 8  -4309464.069 7
  20339217.666    20339222.245    -3617521.335 8  -1141603.673 7
 86  6 16 23 58 41.0800000  0  4G 6G 8G 9G11
  20207848.857    20207852.699    -3923993.261 9  -1722604.130 8
  22236508.793    22236514.668     7956452.931 8   7357984.465 8
  21599576.662    21599581.333   -10700245.788 9  -4322303.039 8
  20339296.719    20339302.757    -3617105.492 8  -1141279.638 7
 86  6 16 23 58 47.0800000  0  4G 6G 8G 9G11
  20207392.817    20207397.339    -3926385.147 8  -1724467.926 8
  22240234.010    22240240.819     7976034.098 8   7373242.507 8
  21596443.622    21596448.169   -10716715.287 8  -4335136.399 8
  20339380.512    20339385.776    -3616667.181 8  -1140938.092 7
 86  6 16 23 58 53.0800000  0  4G 6G 8G 9G11
  20206942.826    20206944.593    -3928759.320 9  -1726317.928 8
  22243963.748    22243969.801     7995625.975 8   7388508.901 7
  21593309.236    21593315.475   -10733177.491 8  -4347964.087 8
  20339467.448    20339473.428    -3616206.408 9  -1140579.045 8
 86  6 16 23 58 59.0800000  0  4G 6G 8G 9G11
  20206494.470    20206496.572    -3931115.802 9  -1728154.154 7
  22247694.698    22247697.802     8015228.349 8   7403783.483 8
  21590178.205    21590183.868   -10749632.505 8  -4360786.169 8
  20339560.743    20339566.379    -3615723.318 8  -1140202.606 8
 86  6 16 23 59  5.0800000  0  4G 6G 8G 9G11
  20206049.113    20206052.857    -3933454.575 8  -1729976.564 7
  22251426.259    22251430.341     8034841.358 8   7419066.348 8
  21587047.811    21587054.007   -10766080.244 8  -4373602.589 8
  20339656.259    20339661.095    -3615217.808 8  -1139808.702 7
 86  6 16 23 59 11.0800000  0  4G 6G 8G 9G11
  20205607.157    20205609.227    -3935775.573 9  -1731785.134 7
  22255161.290    22255165.665     8054464.951 8   7434357.458 7
  21583919.782    21583926.607   -10782520.781 8  -4386413.385 8
  20339756.203    20339761.915    -3614689.881 8  -1139397.324 8
 86  6 16 23 59 17.0800000  0  4G 6G 8G 9G11
  20205168.534    20205171.271    -3938078.684 9  -1733579.766 8
  22258897.497    22258901.418     8074099.202 7   7449656.864 7
  21580793.037    21580798.835   -10798953.853 9  -4399218.373 8
  20339862.031    20339866.336    -3614139.450 8  -1138968.420 8
 86  6 16 23 59 23.0800000  0  4G 6G 8G 9G11
  20204734.179    20204737.282    -3940363.823 8  -1735360.395 8
  22262634.631    22262639.740     8093744.122 7   7464964.579 8
  21577665.935    21577672.725   -10815379.536 8  -4412017.596 8
  20339970.483    20339975.147    -3613566.559 8  -1138522.007 8
 86  6 16 23 59 29.0800000  0  4G 6G 8G 9G11
  20204302.526    20204305.062    -3942631.009 8  -1737127.041 8
  22266374.618    22266380.312     8113399.713 8   7480280.628 7
  21574541.112    21574548.368   -10831797.727 7  -4424810.990 8
  20340083.420    20340089.220    -3612971.099 8  -1138058.016 8
 86  6 16 23 59 35.0800000  0  4G 6G 8G 9G11
  20203874.342    20203878.804    -3944880.266 9  -1738879.707 7
  22270118.049    22270123.047     8133065.872 7   7495604.904 7
  21571418.979    21571425.583   -10848208.392 9  -4437598.508 8
  20340200.812    20340206.238    -3612353.177 9  -1137576.507 7
 86  6 16 23 59 41.0800000  0  4G 6G 8G 9G11
  20203448.650    20203453.580    -3947111.615 8  -1740618.415 7
  22273861.219    22273866.978     8152742.562 8   7510937.380 8
  21568297.524    21568304.337   -10864611.568 7  -4450380.190 8
  20340322.758    20340327.866    -3611712.822 7  -1137077.533 8
 86  6 16 23 59 47.0800000  0  4G 6G 8G 9G11
  20203028.561    20203032.423    -3949324.966 8  -1742343.100 7
  22277607.185    22277613.657     8172429.807 7   7526278.088 7
  21565178.367    21565184.669   -10881007.253 7  -4463156.053 9
  20340448.499    20340454.664    -3611049.969 8  -1136561.019 8
 86  6 16 23 59 53.0800000  0  4G 6G 8G 9G11
  20202611.362    20202614.231    -3951520.320 8  -1744053.782 7
  22281356.179    22281362.070     8192127.569 7   7541626.997 8
  21562060.090    21562066.268   -10897395.398 8  -4475926.015 8
  20340578.604    20340585.263    -3610364.651 9  -1136027.001 8
 86  6 16 23 59 59.0800000  0  4G 6G 8G 9G11
  20202196.519    20202199.117    -3953697.688 8  -1745750.424 8
  22285107.689    22285110.495     8211835.813 8   7556984.076 9
  21558942.022    21558948.472   -10913775.918 8  -4488690.058 7
  20340713.963    20340720.651    -3609656.951 9  -1135475.557 8
 86  6 17  0  0  5.0800000  0  4G 6G 8G 9G11
  20201785.702    20201788.685    -3955857.042 8  -1747433.041 8
  22288859.098    22288863.344     8231554.514 8   7572349.287 8
  21555826.872    21555833.742   -10930148.911 8  -4501448.223 7
  20340853.619    20340859.444    -3608926.821 8  -1134906.623 9
 86  6 17  0  0 11.0800000  0  4G 6G 8G 9G11
  20201377.480    20201381.364    -3957998.328 8  -1749101.562 8
  22292613.456    22292618.763     8251283.666 8   7587722.649 8
  21552713.211    21552717.977   -10946514.291 8  -4514200.472 8
  20340997.302    20341001.998    -3608174.182 8  -1134320.149 7
 86  6 17  0  0 17.0800000  0  4G 6G 8G 9G11
  20200974.573    20200977.591    -3960121.637 8  -1750756.098 6
  22296370.806    22296374.977     8271023.218 8   7603104.114 7
  21549599.702    21549606.176   -10962872.124 8  -4526946.838 8
  20341144.232    20341149.683    -3607399.165 8  -1133716.231 8
 86  6 17  0  0 23.0800000  0  4G 6G 8G 9G11
  20200573.836    20200576.979    -3962226.905 9  -1752396.555 7
  22300127.507    22300132.084     8290773.067 8   7618493.597 8
  21546490.009    21546495.891   -10979222.332 8  -4539687.244 8
  20341295.991    20341300.651    -3606601.799 8  -1133094.920 7
 86  6 17  0  0 29.0800000  0  4G 6G 8G 9G11
  20200174.993    20200180.210    -3964314.158 7  -1754022.987 9
  22303887.991    22303893.479     8310533.279 7   7633891.157 7
  21543377.742    21543385.039   -10995564.915 8  -4552421.724 8
  20341451.510    20341457.155    -3605782.077 8  -1132456.160 8
 86  6 17  0  0 35.0800000  0  4G 6G 8G 9G11
  20199782.021    20199786.143    -3966383.383 8  -1755635.383 7
  22307650.860    22307655.938     8330303.727 8   7649296.707 8
  21540268.546    21540276.505   -11011899.858 8  -4565150.247 8
  20341612.053    20341617.008    -3604940.045 8  -1131800.031 8
 86  6 17  0  0 41.0800000  0  4G 6G 8G 9G11
  20199391.875    20199395.424    -3968434.521 9  -1757233.678 8
  22311414.412    22311419.713     8350084.463 7   7664710.257 8
  21537161.942    21537169.136   -11028227.225 8  -4577872.857 8
  20341776.264    20341780.982    -3604075.685 9  -1131126.501 8
 86  6 17  0  0 47.0800000  0  4G 6G 8G 9G11
  20199005.294    20199008.156    -3970467.587 8  -1758817.870 8
  22315180.703    22315185.023     8369875.406 7   7680131.772 7
  21534057.039    21534064.718   -11044546.772 8  -4590589.372 7
  20341945.797    20341949.659    -3603188.975 8  -1130435.567 7
 86  6 17  0  0 53.0800000  0  4G 6G 8G 9G11
  20198622.212    20198625.647    -3972482.587 9  -1760387.995 8
  22318948.453    22318954.596     8389676.571 8   7695561.244 8
  21530954.900    21530958.374   -11060858.672 7  -4603299.945 7
  20342119.057    20342122.232    -3602279.905 9  -1129727.184 9
 86  6 17  0  0 59.0800000  0  4G 6G 8G 9G11
  20198241.506    20198245.898    -3974479.512 8  -1761944.056 7
  22322719.924    22322723.906     8409487.862 8   7710998.603 8
  21527852.028    21527857.535   -11077162.890 8  -4616004.521 9
  20342295.231    20342300.155    -3601348.570 8  -1129001.474 7
 86  6 17  0  1  5.0800000  0  4G 6G 8G 9G11
  20197864.708    20197869.910    -3976458.297 9  -1763485.977 8
  22326491.576    22326494.613     8429309.322 8   7726443.899 8
  21524750.483    21524755.700   -11093459.339 9  -4628703.056 8
  20342476.815    20342482.041    -3600394.940 8  -1128258.378 7
 86  6 17  0  1 11.0800000  0  4G 6G 8G 9G11
  20197493.148    20197496.121    -3978418.912 9  -1765013.717 8
  22330264.501    22330271.398     8449140.935 7   7741897.099 7
  21521650.195    21521656.483   -11109748.024 7  -4641395.532 9
  20342661.571    20342667.482    -3599418.987 8  -1127497.901 8
 86  6 17  0  1 17.0800000  0  4G 6G 8G 9G11
  20197122.388    20197127.017    -3980361.314 9  -1766527.278 9
  22334041.080    22334045.225     8468982.717 7   7757358.224 8
  21518551.589    21518558.060   -11126028.915 7  -4654081.934 8
  20342851.707    20342857.492    -3598420.696 8  -1126720.008 8
 86  6 17  0  1 23.0800000  0  4G 6G 8G 9G11
  20196755.840    20196760.334    -3982285.531 8  -1768026.670 8
  22337819.081    22337822.726     8488834.631 8   7772827.248 8
  21515455.919    21515461.238   -11142301.906 8  -4666762.183 7
  20343046.253    20343050.857    -3597400.101 8  -1125924.746 8
 86  6 17  0  1 29.0800000  0  4G 6G 8G 9G11
  20196392.884    20196397.576    -3984191.478 8  -1769511.825 8
  22341598.073    22341603.243     8508696.587 8   7788304.095 7
  21512359.933    21512366.441   -11158567.077 8  -4679436.333 8
  20343245.745    20343249.726    -3596357.182 8  -1125112.075 8
 86  6 17  0  1 35.0800000  0  4G 6G 8G 9G11
  20196034.329    20196038.046    -3986079.253 9  -1770982.812 8
  22345378.874    22345384.888     8528568.638 7   7803788.809 7
  21509267.202    21509271.863   -11174824.322 8  -4692104.321 9
  20343446.883    20343453.168    -3595291.929 7  -1124281.996 7
 86  6 17  0  1 41.0800000  0  4G 6G 8G 9G11
  20195677.904    20195682.762    -3987948.798 7  -1772439.603 8
  22349163.151    22349168.976     8548450.719 8   7819281.329 7
  21506174.508    21506179.856   -11191073.735 9  -4704766.193 9
  20343654.764    20343659.837    -3594204.431 8  -1123434.605 7
 86  6 17  0  1 47.0800000  0  4G 6G 8G 9G11
  20195327.078    20195329.878    -3989800.204 8  -1773882.274 7
  22352948.336    22352953.260     8568342.651 7   7834781.524 8
  21503084.533    21503088.808   -11207315.293 8  -4717421.941 7
  20343864.903    20343872.071    -3593094.828 7  -1122569.971 8
 86  6 17  0  1 53.0800000  0  4G 6G 8G 9G11
  20194977.471    20194981.155    -3991633.452 8  -1775310.768 7
  22356734.362    22356740.640     8588244.421 7   7850289.384 7
  21499993.834    21499999.959   -11223549.056 8  -4730071.623 7
  20344081.887    20344085.272    -3591963.056 7  -1121688.088 8
 86  6 17  0  1 59.0800000  0  4G 6G 8G 9G11
  20194632.241    20194635.330    -3993448.481 8  -1776725.087 7
  22360524.464    22360529.943     8608156.105 7   7865804.969 7
  21496907.131    21496912.616   -11239774.848 8  -4742715.105 8
  20344299.350    20344305.972    -3590809.170 8  -1120788.932 8
 86  6 17  0  2  5.0800000  0  4G 6G 8G 9G11
  20194288.394    20194295.115    -3995245.221 8  -1778125.144 8
  22364315.813    22364320.396     8628077.714 7   7881328.306 8
  21493821.087    21493826.091   -11255992.642 9  -4755352.332 8
  20344523.953    20344529.192    -3589633.009 8  -1119872.436 7
 86  6 17  0  2 11.0800000  0  4G 6G 8G 9G11
  20193950.965    20193956.310    -3997023.601 8  -1779510.902 8
  22368107.005    22368113.265     8648009.205 8   7896859.345 7
  21490737.351    21490741.492   -11272202.548 8  -4767983.430 8
  20344751.931    20344757.445    -3588434.623 8  -1118938.631 8
 86  6 17  0  2 17.0800000  0  4G 6G 8G 9G11
  20193615.449    20193620.649    -3998783.689 8  -1780882.389 7
  22371903.706    22371907.817     8667950.618 7   7912398.087 7
  21487653.471    21487659.126   -11288404.286 9  -4780608.155 7
  20344984.019    20344990.339    -3587214.014 8  -1117987.498 8
 86  6 17  0  2 23.0800000  0  4G 6G 8G 9G11
  20193285.919    20193289.456    -4000525.362 9  -1782239.552 8
  22375699.872    22375704.664     8687901.844 7   7927944.512 8
  21484572.588    21484577.854   -11304598.040 8  -4793226.665 7
  20345220.006    20345226.987    -3585971.150 8  -1117019.029 8
 86  6 17  0  2 29.0800000  0  4G 6G 8G 9G11
  20192956.511    20192960.545    -4002248.754 8  -1783582.433 8
  22379498.084    22379501.848     8707862.900 8   7943498.553 8
  21481492.898    21481497.682   -11320783.709 7  -4805838.866 9
  20345462.462    20345467.045    -3584706.087 7  -1116033.266 7
 86  6 17  0  2 35.0800000  0  4G 6G 8G 9G11
  20192632.020    20192637.625    -4003953.671 8  -1784910.957 7
  22383297.729    22383303.125     8727833.866 7   7959060.348 7
  21478414.283    21478418.830   -11336961.238 8  -4818444.717 8
  20345707.118    20345713.062    -3583418.722 8  -1115030.117 8
 86  6 17  0  2 41.0800000  0  4G 6G 8G 9G11
  20192311.939    20192315.618    -4005640.227 9  -1786225.164 8
  22387099.973    22387105.816     8747814.500 8   7974629.675 8
  21475336.691    21475341.829   -11353130.617 9  -4831044.236 8
  20345956.515    20345961.441    -3582109.196 7  -1114009.708 8
 86  6 17  0  2 47.0800000  0  4G 6G 8G 9G11
  20191993.846    20191998.964    -4007308.446 8  -1787525.069 8
  22390904.436    22390908.730     8767804.850 7   7990206.554 8
  21472261.159    21472266.007   -11369291.896 8  -4843637.445 9
  20346209.052    20346215.401    -3580777.503 8  -1112972.023 7
 86  6 17  0  2 53.0800000  0  4G 6G 8G 9G11
  20191679.801    20191684.824    -4008958.288 8  -1788810.671 7
  22394711.565    22394715.215     8787804.868 7   8005790.972 8
  21469188.709    21469191.686   -11385445.134 8  -4856224.370 7
  20346467.336    20346471.001    -3579423.661 9  -1111917.073 7
 86  6 17  0  2 59.0800000  0  4G 6G 8G 9G11
  20191369.217    20191374.061    -4010589.857 8  -1790082.024 8
  22398518.283    22398522.931     8807814.412 9   8021382.827 9
  21466115.295    21466120.060   -11401590.366 8  -4868805.065 7
  20346730.103    20346734.428    -3578047.860 9  -1110845.018 8
 86  6 17  0  3  5.0800000  0  4G 6G 8G 9G11
  20191062.927    20191067.558    -4012203.085 8  -1791339.094 8
  22402327.555    22402331.598     8827833.532 8   8036982.138 8
  21463043.854    21463049.999   -11417727.430 8  -4881379.391 8
  20346995.391    20346999.968    -3576649.975 7  -1109755.742 8
 86  6 17  0  3 11.0800000  0  4G 6G 8G 9G11
  20190759.634    20190763.308    -4013797.905 9  -1792581.794 8
  22406139.164    22406144.322     8847862.248 9   8052588.927 8
  21459974.992    21459980.505   -11433856.346 8  -4893947.382 8
  20347264.948    20347270.193    -3575230.006 8  -1108649.279 9
 86  6 17  0  3 17.0800000  0  4G 6G 8G 9G11
  20190459.862    20190463.380    -4015374.360 8  -1793810.204 8
  22409952.443    22409956.880     8867900.462 7   8068203.114 8
  21456907.100    21456912.308   -11449977.129 8  -4906509.027 7
  20347539.749    20347543.465    -3573788.018 8  -1107525.658 7
 86  6 17  0  3 23.0800000  0  4G 6G 8G 9G11
  20190162.943    20190167.195    -4016932.292 8  -1795024.188 7
  22413767.134    22413771.608     8887948.237 8   8083824.745 9
  21453842.204    21453845.931   -11466089.659 8  -4919064.246 8
  20347818.913    20347823.513    -3572323.942 8  -1106384.811 7
 86  6 17  0  3 29.0800000  0  4G 6G 8G 9G11
  20189869.155    20189875.260    -4018471.749 8  -1796223.770 7
  22417584.460    22417589.575     8908005.551 8   8099453.807 8
  21450776.660    21450781.518   -11482193.847 8  -4931612.959 8
  20348101.318    20348106.315    -3570837.791 8  -1105226.770 8
 86  6 17  0  3 35.0800000  0  4G 6G 8G 9G11
  20189580.387    20189583.998    -4019992.723 8  -1797408.939 7
  22421402.710    22421407.514     8928072.397 8   8115090.315 8
  21447714.911    21447718.315   -11498289.759 8  -4944155.220 8
  20348388.821    20348393.497    -3569329.578 8  -1104051.542 8
 86  6 17  0  3 41.0800000  0  4G 6G 8G 9G11
  20189294.604    20189299.135    -4021495.092 8  -1798579.613 8
  22425222.850    22425228.257     8948148.833 8   8130734.283 8
  21444653.556    21444657.263   -11514377.400 9  -4956691.035 9
  20348679.518    20348684.279    -3567799.210 8  -1102859.039 8
 86  6 17  0  3 47.0800000  0  4G 6G 8G 9G11
  20189012.461    20189016.938    -4022978.845 7  -1799735.797 7
  22429045.024    22429049.945     8968234.766 8   8146385.660 8
  21441593.239    21441597.671   -11530456.620 9  -4969220.289 8
  20348975.464    20348980.588    -3566246.690 8  -1101649.271 8
 86  6 17  0  3 53.0800000  0  4G 6G 8G 9G11
  20188733.655    20188737.340    -4024444.031 8  -1800877.493 6
  22432869.052    22432874.546     8988330.279 8   8162044.495 8
  21438534.954    21438539.520   -11546527.324 9  -4981742.920 8
  20349274.414    20349280.407    -3564672.068 8  -1100422.301 8
 86  6 17  0  3 59.0800000  0  4G 6G 8G 9G11
  20188459.274    20188462.350    -4025890.574 8  -1802004.665 8
  22436697.194    22436699.576     9008435.218 9   8177710.678 8
  21435478.159    21435483.024   -11562589.709 8  -4994259.059 8
  20349578.857    20349582.209    -3563075.342 9  -1099178.098 8
 86  6 17  0  4  5.0800000  0  4G 6G 8G 9G11
  20188186.854    20188190.607    -4027318.568 9  -1803117.398 7
  22440523.469    22440526.970     9028549.515 8   8193384.159 8
  21432423.032    21432427.154   -11578643.695 9  -5006768.651 7
  20349887.290    20349890.236    -3561456.653 8  -1097916.775 8
 86  6 17  0  4 11.0800000  0  4G 6G 8G 9G11
  20187917.784    20187922.321    -4028728.004 9  -1804215.649 7
  22444352.480    22444357.037     9048673.164 8   8209064.915 7
  21429370.499    21429374.622   -11594689.244 8  -5019271.667 8
  20350198.835    20350203.110    -3559815.937 8  -1096638.297 8
 86  6 17  0  4 17.0800000  0  4G 6G 8G 9G11
  20187653.722    20187657.127    -4030118.802 8  -1805299.398 7
  22448184.246    22448186.766     9068806.187 9   8224752.979 8
  21426317.518    21426322.675   -11610726.340 8  -5031768.120 7
  20350515.260    20350520.603    -3558153.182 8  -1095342.639 8
 86  6 17  0  4 23.0800000  0  4G 6G 8G 9G11
  20187392.181    20187396.834    -4031491.015 8  -1806368.646 7
  22452016.681    22452021.355     9088948.475 8   8240448.263 9
  21423268.840    21423271.909   -11626755.007 8  -5044257.974 8
  20350836.540    20350840.379    -3556468.463 7  -1094029.867 8
 86  6 17  0  4 29.0800000  0  4G 6G 8G 9G11
  20187136.101    20187138.942    -4032844.722 9  -1807423.487 8
  22455851.487    22455855.549     9109099.992 8   8256150.747 8
  21420220.257    21420224.141   -11642775.269 9  -5056741.293 8
  20351160.639    20351164.797    -3554761.760 8  -1092699.972 8
 86  6 17  0  4 35.0800000  0  4G 6G 8G 9G11
  20186880.726    20186884.644    -4034179.733 9  -1808463.758 7
  22459686.731    22459692.513     9129260.780 8   8271860.451 8
  21417173.066    21417176.641   -11658787.019 9  -5069217.967 8
  20351489.237    20351494.052    -3553033.025 9  -1091352.902 7
 86  6 17  0  4 41.0800000  0  4G 6G 8G 9G11
  20186629.716    20186635.974    -4035496.099 9  -1809489.480 8
  22463526.173    22463529.844     9149430.814 8   8287577.351 7
  21414127.881    21414131.883   -11674790.250 9  -5081688.032 8
  20351822.485    20351826.744    -3551282.305 9  -1089988.704 7
 86  6 17  0  4 47.0800000  0  4G 6G 8G 9G11
  20186383.818    20186386.643    -4036793.740 9  -1810500.652 8
  22467365.679    22467370.322     9169610.095 7   8303301.462 8
  21411084.639    21411087.417   -11690784.907 8  -5094151.387 8
  20352160.367    20352164.513    -3549509.596 8  -1088607.374 7
 86  6 17  0  4 53.0800000  0  4G 6G 8G 9G11
  20186139.644    20186144.414    -4038072.773 9  -1811497.291 7
  22471207.156    22471211.241     9189798.534 8   8319032.706 8
  21408042.275    21408046.984   -11706771.035 9  -5106608.109 7
  20352501.546    20352505.394    -3547715.012 8  -1087208.980 8
 86  6 17  0  4 59.0800000  0  4G 6G 8G 9G11
  20185900.381    20185903.222    -4039333.110 8  -1812479.379 7
  22475050.954    22475056.361     9209996.091 9   8334771.058 8
  21405001.667    21405006.014   -11722748.495 9  -5119058.080 7
  20352847.116    20352851.757    -3545898.483 9  -1085793.508 7
 86  6 17  0  5  5.0800000  0  4G 6G 8G 9G11
  20185663.815    20185668.150    -4040574.744 9  -1813446.884 7
  22478895.851    22478902.054     9230202.732 7   8350516.486 7
  21401963.282    21401967.034   -11738717.460 9  -5131501.413 8
  20353197.599    20353202.084    -3544060.056 9  -1084360.968 8
 86  6 17  0  5 11.0800000  0  4G 6G 8G 9G11
  20185430.804    20185435.254    -4041797.698 9  -1814399.826 6
  22482743.212    22482748.085     9250418.466 8   8366269.007 7
  21398925.631    21398929.925   -11754677.801 8  -5143938.041 8
  20353551.151    20353555.617    -3542199.760 9  -1082911.373 7
 86  6 17  0  5 17.0800000  0  4G 6G 8G 9G11
  20185202.632    20185205.649    -4043001.932 8  -1815338.224 8
  22486590.476    22486596.656     9270643.218 8   8382028.523 8
  21395890.938    21395893.558   -11770629.555 8  -5156367.994 8
  20353910.229    20353914.132    -3540317.561 8  -1081444.756 8
 86  6 17  0  5 23.0800000  0  4G 6G 8G 9G11
  20184976.194    20184980.630    -4044187.434 8  -1816261.978 8
  22490441.212    22490447.563     9290876.990 7   8397795.097 7
  21392856.454    21392861.176   -11786572.632 9  -5168791.181 7
  20354270.699    20354276.251    -3538413.479 8  -1079961.048 8
 86  6 17  0  5 29.0800000  0  4G 6G 8G 9G11
  20184754.906    20184758.515    -4045354.151 9  -1817171.130 7
  22494293.687    22494298.985     9311119.775 9   8413568.695 8
  21389823.612    21389828.545   -11802507.106 9  -5181207.635 8
  20354637.360    20354643.844    -3536487.510 9  -1078460.285 7
 86  6 17  0  5 35.0800000  0  4G 6G 8G 9G11
  20184536.952    20184540.337    -4046502.206 8  -1818065.705 8
  22498147.593    22498152.662     9331371.515 8   8429349.257 8
  21386793.546    21386798.728   -11818432.875 9  -5193617.320 7
  20355008.000    20355012.691    -3534539.765 9  -1076942.562 8
 86  6 17  0  5 41.0800000  0  4G 6G 8G 9G11
  20184321.513    20184325.184    -4047631.487 8  -1818945.667 7
  22502003.431    22502009.070     9351632.186 9   8445136.772 8
  21383765.479    21383769.388   -11834349.904 9  -5206020.190 8
  20355383.207    20355387.560    -3532570.186 8  -1075407.818 9
 86  6 17  0  5 47.0800000  0  4G 6G 8G 9G11
  20184109.935    20184113.849    -4048741.928 9  -1819810.931 7
  22505860.791    22505866.222     9371901.822 8   8460931.291 8
  21380738.647    21380742.167   -11850258.228 9  -5218416.283 8
  20355761.774    20355768.243    -3530578.685 8  -1073855.994 9
 86  6 17  0  5 53.0800000  0  4G 6G 8G 9G11
  20183902.465    20183906.129    -4049833.508 8  -1820661.524 7
  22509719.291    22509723.184     9392180.441 8   8476732.823 8
  21377712.654    21377716.381   -11866157.716 9  -5230805.501 8
  20356146.626    20356149.343    -3528565.243 8  -1072287.074 7
 86  6 17  0  5 59.0800000  0  4G 6G 8G 9G11
  20183698.178    20183700.719    -4050906.271 9  -1821497.440 8
  22513579.590    22513585.103     9412467.967 7   8492541.283 8
  21374688.703    21374691.589   -11882048.355 9  -5243187.803 8
  20356533.119    20356536.346    -3526529.974 8  -1070701.146 8
 86  6 17  0  6  5.0800000  0  4G 6G 8G 9G11
  20183497.447    20183499.932    -4051960.177 8  -1822318.659 6
  22517441.567    22517446.290     9432764.323 8   8508356.603 7
  21371666.676    21371668.680   -11897930.196 9  -5255563.269 7
  20356923.445    20356928.488    -3524472.884 9  -1069098.221 8
 86  6 17  0  6 11.0800000  0  4G 6G 8G 9G11
  20183301.301    20183304.224    -4052995.328 9  -1823125.275 7
  22521306.168    22521311.764     9453069.472 9   8524178.792 7
  21368646.139    21368648.984   -11913803.328 8  -5267931.921 8
  20357320.392    20357325.206    -3522394.059 8  -1067478.363 8
 86  6 17  0  6 17.0800000  0  4G 6G 8G 9G11
  20183107.250    20183110.330    -4054011.572 9  -1823917.155 8
  22525172.225    22525176.471     9473383.395 8   8540007.833 9
  21365626.595    21365630.411   -11929667.548 9  -5280293.662 8
  20357718.322    20357723.618    -3520293.495 8  -1065841.536 8
 86  6 17  0  6 23.0800000  0  4G 6G 8G 9G11
  20182917.946    20182920.966    -4055008.969 9  -1824694.356 8
  22529038.334    22529044.904     9493706.064 8   8555843.676 8
  21362609.882    21362614.028   -11945522.897 9  -5292648.480 7
  20358122.455    20358128.079    -3518171.177 9  -1064187.790 7
 86  6 17  0  6 29.0800000  0  4G 6G 8G 9G11
  20182730.762    20182735.098    -4055987.587 8  -1825456.909 7
  22532907.219    22532913.102     9514037.447 8   8571686.298 9
  21359593.925    21359598.305   -11961369.392 9  -5304996.391 7
  20358530.508    20358536.318    -3516027.155 8  -1062517.130 8
 86  6 17  0  6 35.0800000  0  4G 6G 8G 9G11
  20182548.470    20182552.750    -4056947.294 8  -1826204.732 7
  22536778.955    22536784.871     9534377.539 8   8587535.708 7
  21356580.438    21356584.083   -11977207.078 9  -5317337.436 7
  20358943.526    20358949.021    -3513861.462 7  -1060829.574 8
 86  6 17  0  6 41.0800000  0  4G 6G 8G 9G11
  20182369.728    20182372.385    -4057888.095 8  -1826937.823 8
  22540650.493    22540656.807     9554726.255 8   8603391.855 8
  21353568.714    21353572.040   -11993035.805 8  -5329671.501 8
  20359360.430    20359365.171    -3511674.007 8  -1059125.063 7
 86  6 17  0  6 47.0800000  0  4G 6G 8G 9G11
  20182193.522    20182197.882    -4058809.992 8  -1827656.177 7
  22544525.167    22544530.620     9575083.656 8   8619254.765 7
  21350558.594    21350561.516   -12008855.657 9  -5341998.645 8
  20359780.570    20359784.836    -3509464.787 8  -1057403.588 8
 86  6 17  0  6 53.0800000  0  4G 6G 8G 9G11
  20182021.880    20182026.340    -4059712.856 8  -1828359.719 6
  22548399.447    22548406.053     9595449.819 8   8635124.493 7
  21347549.430    21347552.926   -12024666.416 9  -5354318.714 7
  20360205.557    20360208.687    -3507233.723 9  -1055665.097 8
 86  6 17  0  6 59.0800000  0  4G 6G 8G 9G11
  20181853.600    20181858.963    -4060596.688 8  -1829048.421 8
  22552275.830    22552282.162     9615824.631 8   8651000.954 8
  21344541.971    21344545.234   -12040468.062 9  -5366631.684 7
  20360634.149    20360638.040    -3504980.905 8  -1053909.649 8
 86  6 17  0  7  5.0800000  0  4G 6G 8G 9G11
  20181689.625    20181693.426    -4061461.598 8  -1829722.379 8
  22556155.026    22556161.979     9636208.106 8   8666884.178 8
  21341536.621    21341540.171   -12056260.710 8  -5378937.632 7
  20361066.288    20361070.705    -3502706.358 8  -1052137.278 7
 86  6 17  0  7 11.0800000  0  4G 6G 8G 9G11
  20181528.385    20181533.016    -4062307.386 9  -1830381.434 6
  22560036.801    22560041.670     9656600.251 8   8682774.154 8
  21338533.369    21338537.262   -12072044.181 9  -5391236.434 7
  20361502.855    20361507.650    -3500410.023 8  -1050347.920 7
 86  6 17  0  7 17.0800000  0  4G 6G 8G 9G11
  20181371.364    20181374.135    -4063134.073 8  -1831025.612 6
  22563917.892    22563924.292     9677001.007 8   8698670.848 7
  21335532.235    21335534.684   -12087818.522 9  -5403528.124 7
  20361944.437    20361947.678    -3498091.977 8  -1048541.641 9
 86  6 17  0  7 23.0800000  0  4G 6G 8G 9G11
  20181217.696    20181221.526    -4063941.627 8  -1831654.867 6
  22567802.345    22567808.602     9697410.460 9   8714574.308 8
  21332532.972    21332535.171   -12103583.600 9  -5415812.587 8
  20362390.542    20362394.844    -3495752.094 8  -1046718.351 8
 86  6 17  0  7 29.0800000  0  4G 6G 8G 9G11
  20181067.512    20181071.287    -4064730.024 8  -1832269.210 7
  22571688.330    22571694.046     9717828.486 8   8730484.447 8
  21329534.203    21329537.261   -12119339.430 8  -5428089.869 7
  20362838.181    20362844.193    -3493390.429 7  -1044878.103 8
 86  6 17  0  7 35.0800000  0  4G 6G 8G 9G11
  20180921.197    20180925.509    -4065499.482 8  -1832868.795 8
  22575573.980    22575581.344     9738254.918 8   8746401.149 8
  21326537.229    21326540.631   -12135086.182 9  -5440360.059 7
  20363292.679    20363296.755    -3491007.217 8  -1043021.047 8
 86  6 17  0  7 41.0800000  0  4G 6G 8G 9G11
  20180777.964    20180781.465    -4066249.908 8  -1833453.536 7
  22579463.089    22579468.688     9758689.732 7   8762324.378 8
  21323542.439    21323545.667   -12150823.815 9  -5452623.150 7
  20363751.458    20363755.378    -3488602.408 8  -1041147.169 8
 86  6 17  0  7 47.0800000  0  4G 6G 8G 9G11
  20180638.822    20180642.947    -4066981.449 8  -1834023.560 6
  22583354.082    22583358.859     9779132.918 8   8778254.115 8
  21320548.116    21320552.092   -12166552.471 9  -5464879.223 8
  20364211.463    20364217.017    -3486176.092 9  -1039256.542 7
 86  6 17  0  7 53.0800000  0  4G 6G 8G 9G11
  20180502.637    20180506.647    -4067694.012 8  -1834578.806 7
  22587245.650    22587251.492     9799584.283 8   8794190.253 7
  21317557.209    21317561.290   -12182272.165 9  -5477128.333 8
  20364677.198    20364683.189    -3483728.364 8  -1037349.219 7
 86  6 17  0  7 59.0800000  0  4G 6G 8G 9G11
  20180370.146    20180375.775    -4068387.612 8  -1835119.270 8
  22591138.557    22591145.430     9820043.949 8   8810132.836 7
  21314569.067    21314572.631   -12197982.602 9  -5489370.229 8
  20365148.912    20365152.017    -3481259.045 8  -1035425.075 7
 86  6 17  0  8  5.0800000  0  4G 6G 8G 9G11
  20180242.296    20180247.295    -4069062.066 8  -1835644.832 6
  22595033.118    22595039.316     9840511.940 8   8826081.923 8
  21311581.232    21311583.031   -12213683.807 8  -5501604.941 8
  20365622.030    20365627.387    -3478768.150 9  -1033484.120 8
 86  6 17  0  8 11.0800000  0  4G 6G 8G 9G11
  20180117.084    20180121.971    -4069717.452 9  -1836155.523 8
  22598929.640    22598935.554     9860988.216 8   8842037.451 8
  21308595.027    21308598.232   -12229375.731 9  -5513832.399 7
  20366099.871    20366104.932    -3476255.639 8  -1031526.315 8
 86  6 17  0  8 17.0800000  0  4G 6G 8G 9G11
  20179996.607    20180001.815    -4070353.616 8  -1836651.234 7
  22602828.666    22602834.798     9881472.876 7   8857999.509 8
  21305609.309    21305614.133   -12245058.314 8  -5526052.594 8
  20366581.408    20366587.820    -3473721.480 8  -1029551.647 8
 86  6 17  0  8 23.0800000  0  4G 6G 8G 9G11
  20179879.584    20179884.214    -4070970.587 8  -1837131.994 8
  22606728.210    22606734.670     9901965.844 8   8873968.066 8
  21302627.064    21302631.187   -12260731.657 8  -5538265.570 7
  20367068.140    20367073.492    -3471165.722 8  -1027560.149 8
 86  6 17  0  8 29.0800000  0  4G 6G 8G 9G11
  20179765.679    20179769.831    -4071568.389 8  -1837597.794 7
  22610629.365    22610635.431     9922467.077 8   8889943.043 8
  21299647.041    21299650.038   -12276395.608 8  -5550471.259 8
  20367560.258    20367564.209    -3468588.409 8  -1025551.846 9
 86  6 17  0  8 35.0800000  0  4G 6G 8G 9G11
  20179655.630    20179659.682    -4072146.925 8  -1838048.613 8
  22614532.195    22614538.320     9942976.641 7   8905924.501 7
  21296667.325    21296671.401   -12292050.156 9  -5562669.594 7
  20368052.504    20368057.680    -3465989.512 9  -1023526.727 8
 86  6 17  0  8 41.0800000  0  4G 6G 8G 9G11
  20179548.031    20179554.175    -4072706.265 9  -1838484.472 7
  22618435.256    22618442.589     9963494.421 7   8921912.368 9
  21293690.020    21293694.833   -12307695.254 8  -5574860.565 8
  20368552.545    20368557.560    -3463369.103 8  -1021484.855 8
 86  6 17  0  8 47.0800000  0  4G 6G 8G 9G11
  20179445.886    20179450.854    -4073246.350 9  -1838905.306 7
  22622343.883    22622349.365     9984020.384 8   8937906.633 8
  21290715.312    21290719.523   -12323330.978 8  -5587044.247 7
  20369054.795    20369060.513    -3460727.154 8  -1019426.182 8
 86  6 17  0  8 53.0800000  0  4G 6G 8G 9G11
  20179346.807    20179351.871    -4073767.159 9  -1839311.135 8
  22626250.150    22626255.442    10004554.532 7   8953907.267 8
  21287741.497    21287745.080   -12338957.165 9  -5599220.487 7
  20369561.652    20369566.779    -3458063.654 9  -1017350.742 8
 86  6 17  0  8 59.0800000  0  4G 6G 8G 9G11
  20179252.033    20179256.364    -4074268.713 9  -1839701.969 8
  22630158.322    22630164.794    10025096.842 6   8969914.247 7
  21284769.593    21284772.875   -12354573.898 8  -5611389.374 8
  20370072.837    20370078.635    -3455378.716 7  -1015258.568 8
 86  6 17  0  9  5.0800000  0  4G 6G 8G 9G11
  20179160.833    20179164.797    -4074751.111 8  -1840077.853 8
  22634069.591    22634075.502    10045647.207 8   8985927.518 7
  21281800.090    21281804.514   -12370181.179 8  -5623550.885 8
  20370586.819    20370593.505    -3452672.288 8  -1013149.671 9
 86  6 17  0  9 11.0800000  0  4G 6G 8G 9G11
  20179072.596    20179077.572    -4075214.305 8  -1840438.782 8
  22637981.526    22637988.356    10066205.590 7   9001947.021 7
  21278830.572    21278835.389   -12385779.036 9  -5635705.044 7
  20371106.015    20371112.260    -3449944.428 9  -1011024.073 8
 86  6 17  0  9 17.0800000  0  4G 6G 8G 9G11
  20178986.820    20178991.276    -4075658.219 9  -1840784.694 8
  22641895.752    22641901.188    10086772.038 8   9017972.813 7
  21275865.058    21275869.472   -12401367.319 8  -5647851.763 8
  20371630.045    20371634.473    -3447195.127 9  -1008881.753 8
 86  6 17  0  9 23.0800000  0  4G 6G 8G 9G11
  20178907.264    20178911.725    -4076082.832 8  -1841115.562 7
  22645810.741    22645817.110    10107346.519 7   9034004.873 8
  21272900.707    21272904.449   -12416946.042 9  -5659991.027 9
  20372157.365    20372161.790    -3444424.338 8  -1006722.698 8
 86  6 17  0  9 29.0800000  0  4G 6G 8G 9G11
  20178830.150    20178833.986    -4076488.125 9  -1841431.378 8
  22649727.462    22649733.639    10127928.968 7   9050043.142 8
  21269937.884    21269942.499   -12432515.316 8  -5672122.918 8
  20372688.467    20372693.506    -3441632.117 7  -1004546.940 8
 86  6 17  0  9 35.0800000  0  4G 6G 8G 9G11
  20178757.343    20178760.600    -4076874.065 8  -1841732.110 7
  22653645.516    22653652.148    10148519.425 8   9066087.633 8
  21266975.958    21266981.821   -12448074.912 8  -5684247.277 8
  20373223.165    20373228.846    -3438818.453 8  -1002354.469 8
 86  6 17  0  9 41.0800000  0  4G 6G 8G 9G11
  20178687.469    20178691.442    -4077240.650 9  -1842017.760 7
  22657564.165    22657570.348    10169117.950 8   9082138.434 7
  21264018.268    21264021.854   -12463624.859 7  -5696364.109 8
  20373763.256    20373767.338    -3435983.284 8  -1000145.248 7
 86  6 17  0  9 47.0800000  0  4G 6G 8G 9G11
  20178620.578    20178625.153    -4077587.810 8  -1842288.278 7
  22661485.674    22661491.439    10189724.456 7   9098195.444 8
  21261060.433    21261065.981   -12479165.066 9  -5708473.353 7
  20374307.001    20374312.297    -3433126.626 7   -997919.278 8
 86  6 17  0  9 53.0800000  0  4G 6G 8G 9G11
  20178559.118    20178563.739    -4077915.650 8  -1842543.743 9
  22665409.043    22665415.260    10210338.765 8   9114258.536 9
  21258105.013    21258109.836   -12494695.730 8  -5720575.163 8
  20374854.182    20374860.230    -3430248.631 8   -995676.677 8
 86  6 17  0  9 59.0800000  0  4G 6G 8G 9G11
  20178499.526    20178503.550    -4078224.174 8  -1842784.137 8
  22669332.932    22669338.612    10230960.984 9   9130327.794 8
  21255151.022    21255155.947   -12510216.700 8  -5732669.420 8
  20375406.624    20375411.118    -3427349.240 8   -993417.407 8
 86  6 17  0 10  5.0800000  0  4G 6G 8G 9G11
  20178443.922    20178449.012    -4078513.362 9  -1843009.476 7
  22673260.637    22673264.745    10251591.003 9   9146403.123 8
  21252199.866    21252203.816   -12525727.991 8  -5744756.143 7
  20375961.456    20375967.199    -3424428.505 9   -991141.506 8
 86  6 17  0 10 11.0800000  0  4G 6G 8G 9G11
  20178393.417    20178397.258    -4078783.108 9  -1843219.675 7
  22677186.856    22677192.635    10272228.821 8   9162484.533 7
  21249250.819    21249253.939   -12541229.630 8  -5756835.314 7
  20376521.801    20376525.773    -3421486.460 8   -988849.000 8
 86  6 17  0 10 17.0800000  0  4G 6G 8G 9G11
  20178345.334    20178350.654    -4079033.502 8  -1843414.792 7
  22681114.583    22681120.222    10292874.434 7   9178572.021 7
  21246301.368    21246307.557   -12556721.408 8  -5768906.853 8
  20377084.835    20377090.134    -3418523.090 7   -986539.882 8
 86  6 17  0 10 23.0800000  0  4G 6G 8G 9G11
  20178301.665    20178305.646    -4079264.520 8  -1843594.806 6
  22685046.500    22685050.791    10313527.763 8   9194665.522 7
  21243356.289    21243360.382   -12572203.490 8  -5780970.796 8
  20377653.054    20377658.884    -3415538.413 8   -984214.158 8
 86  6 17  0 10 29.0800000  0  4G 6G 8G 9G11
  20178261.148    20178265.724    -4079476.128 8  -1843759.686 7
  22688977.101    22688981.641    10334188.847 7   9210765.046 7
  21240410.828    21240416.600   -12587676.015 8  -5793027.308 7
  20378224.676    20378230.523    -3412532.465 8   -981871.863 7
 86  6 17  0 10 35.0800000  0  4G 6G 8G 9G11
  20178224.666    20178230.355    -4079668.399 8  -1843909.519 7
  22692910.889    22692916.720    10354857.544 8   9226870.522 7
  21237468.181    21237473.368   -12603138.753 8  -5805076.191 8
  20378800.936    20378806.876    -3409505.283 8   -979513.008 7
 86  6 17  0 10 41.0800000  0  4G 6G 8G 9G11
  20178191.977    20178196.799    -4079841.275 9  -1844044.223 8
  22696845.159    22696849.418    10375533.863 7   9242981.933 8
  21234526.400    21234532.527   -12618591.702 8  -5817117.444 8
  20379381.066    20379387.616    -3406456.837 8   -977137.604 8
 86  6 17  0 10 47.0800000  0  4G 6G 8G 9G11
  20178162.251    20178166.819    -4079994.645 9  -1844163.732 8
  22700781.729    22700785.906    10396217.860 8   9259099.317 8
  21231587.960    21231594.783   -12634034.786 8  -5829151.003 7
  20379966.100    20379971.001    -3403387.106 7   -974745.588 7
 86  6 17  0 10 53.0800000  0  4G 6G 8G 9G11
  20178137.089    20178140.988    -4080128.551 9  -1844268.073 8
  22704716.912    22704723.807    10416909.466 8   9275222.664 7
  21228652.276    21228656.461   -12649468.038 9  -5841176.895 7
  20380554.273    20380559.523    -3400296.086 8   -972337.005 8
 86  6 17  0 10 59.0800000  0  4G 6G 8G 9G11
  20178115.427    20178119.905    -4080242.951 8  -1844357.219 7
  22708656.856    22708663.053    10437608.769 8   9291351.972 7
  21225718.169    21225722.821   -12664891.407 8  -5853195.115 8
  20381145.696    20381151.059    -3397183.730 9   -969911.798 7
 86  6 17  0 11  5.0800000  0  4G 6G 8G 9G11
  20178097.151    20178101.070    -4080337.835 8  -1844431.162 7
  22712598.054    22712603.885    10458315.714 7   9307487.242 6
  21222784.659    21222789.192   -12680304.777 8  -5865205.522 7
  20381742.276    20381748.036    -3394050.097 8   -967470.007 8
 86  6 17  0 11 11.0800000  0  4G 6G 8G 9G11
  20178084.506    20178088.397    -4080413.181 8  -1844489.883 7
  22716539.801    22716545.701    10479030.203 9   9323628.410 8
  21219853.327    21219858.983   -12695708.197 8  -5877208.181 7
  20382343.081    20382348.023    -3390895.231 8   -965011.666 8
 86  6 17  0 11 17.0800000  0  4G 6G 8G 9G11
  20178071.782    20178075.873    -4080468.932 8  -1844533.324 7
  22720482.645    22720488.502    10499752.369 7   9339775.533 6
  21216924.100    21216928.804   -12711101.599 8  -5889203.048 8
  20382947.132    20382950.883    -3387719.107 8   -962536.753 7
 86  6 17  0 11 23.0800000  0  4G 6G 8G 9G11
  20178064.385    20178069.893    -4080505.092 8  -1844561.497 7
  22724428.345    22724432.195    10520482.020 7   9355928.498 8
  21213996.697    21214000.591   -12726484.945 8  -5901190.059 8
  20383555.333    20383561.086    -3384521.785 8   -960045.339 7
 86  6 17  0 11 29.0800000  0  4G 6G 8G 9G11
  20178062.294    20178066.455    -4080521.664 8  -1844574.410 7
  22728374.225    22728378.047    10541219.262 8   9372087.389 7
  21211071.726    21211075.198   -12741858.232 8  -5913169.239 8
  20384169.163    20384172.502    -3381303.194 9   -957537.347 7
 86  6 17  0 11 35.0800000  0  4G 6G 8G 9G11
  20178062.811    20178067.182    -4080518.727 8  -1844572.127 7
  22732321.696    22732326.336    10561963.908 8   9388252.055 7
  21208147.281    21208151.860   -12757221.548 8  -5925140.653 8
  20384784.080    20384789.121    -3378063.435 7   -955012.858 8
 86  6 17  0 11 41.0800000  0  4G 6G 8G 9G11
  20178066.822    20178072.264    -4080496.278 8  -1844554.646 6
  22736269.553    22736276.950    10582715.914 7   9404422.432 7
  21205225.593    21205230.996   -12772574.961 8  -5937104.360 8
  20385405.125    20385410.798    -3374802.608 8   -952471.951 8
 86  6 17  0 11 47.0800000  0  4G 6G 8G 9G11
  20178076.327    20178079.116    -4080454.302 8  -1844521.920 7
  22740220.705    22740226.481    10603475.338 8   9420598.592 7
  21202305.086    21202312.112   -12787918.224 9  -5949060.124 8
  20386029.237    20386033.607    -3371520.635 8   -949914.564 7
 86  6 17  0 11 53.0800000  0  4G 6G 8G 9G11
  20178087.024    20178090.654    -4080392.629 7  -1844473.866 8
  22744172.935    22744178.766    10624242.208 8   9436780.566 9
  21199387.250    21199392.951   -12803251.451 9  -5961008.086 8
  20386658.526    20386663.271    -3368217.439 9   -947340.654 8
 86  6 17  0 11 59.0800000  0  4G 6G 8G 9G11
  20178102.084    20178106.316    -4080311.288 8  -1844410.501 7
  22748125.555    22748131.417    10645016.524 8   9452968.328 7
  21196472.696    21196477.352   -12818574.399 8  -5972948.041 8
  20387291.335    20387296.266    -3364893.091 8   -944750.241 7
 86  6 17  0 12  5.0800000  0  4G 6G 8G 9G11
  20178121.522    20178125.478    -4080210.310 9  -1844331.803 7
  22752080.515    22752086.609    10665798.179 8   9469161.820 8
  21193558.066    21193563.104   -12833887.252 9  -5984880.141 9
  20387926.920    20387931.531    -3361547.586 9   -942143.351 7
 86  6 17  0 12 11.0800000  0  4G 6G 8G 9G11
  20178144.688    20178148.819    -4080089.698 9  -1844237.834 7
  22756036.515    22756041.756    10686587.129 7   9485361.012 7
  21190646.527    21190651.236   -12849189.992 8  -5996804.350 8
  20388567.279    20388573.831    -3358181.033 8   -939520.064 7
 86  6 17  0 12 17.0800000  0  4G 6G 8G 9G11
  20178171.950    20178175.610    -4079949.443 8  -1844128.536 8
  22759993.773    22759999.415    10707383.422 8   9501565.887 8
  21187735.704    21187741.562   -12864482.496 8  -6008720.583 7
  20389213.196    20389217.337    -3354793.359 9   -936880.312 8
 86  6 17  0 12 23.0800000  0  4G 6G 8G 9G11
  20178202.281    20178205.080    -4079789.524 8  -1844003.925 8
  22763952.108    22763957.984    10728187.024 8   9517776.479 8
  21184827.522    21184832.670   -12879764.838 8  -6020628.890 7
  20389862.491    20389866.924    -3351384.567 7   -934224.118 8
 86  6 17  0 12 29.0800000  0  4G 6G 8G 9G11
  20178236.364    20178239.867    -4079609.874 8  -1843863.935 7
  22767912.277    22767918.626    10748997.823 9   9533992.683 8
  21181920.924    21181926.964   -12895036.877 8  -6032529.169 8
  20390514.185    20390519.709    -3347954.699 8   -931551.493 8
 86  6 17  0 12 35.0800000  0  4G 6G 8G 9G11
  20178274.201    20178276.751    -4079410.517 9  -1843708.612 7
  22771874.169    22771880.235    10769815.877 8   9550214.540 7
  21179016.960    21179022.328   -12910298.630 7  -6044421.447 8
  20391170.573    20391175.440    -3344503.664 9   -928862.387 8
 86  6 17  0 12 41.0800000  0  4G 6G 8G 9G11
  20178315.075    20178320.698    -4079191.440 9  -1843537.887 7
  22775836.874    22775843.423    10790641.153 8   9566442.027 7
  21176114.254    21176119.951   -12925550.183 8  -6056305.772 8
  20391830.912    20391837.169    -3341031.618 8   -926156.892 8
 86  6 17  0 12 47.0800000  0  4G 6G 8G 9G11
  20178361.666    20178365.056    -4078952.584 9  -1843351.771 8
  22779802.477    22779807.693    10811473.619 8   9582675.109 7
  21173213.915    21173219.859   -12940791.328 8  -6068181.980 8
  20392497.436    20392501.498    -3337538.454 7   -923434.955 8
 86  6 17  0 12 53.0800000  0  4G 6G 8G 9G11
  20178410.471    20178413.752    -4078694.009 8  -1843150.285 7
  22783768.001    22783774.504    10832313.338 9   9598913.839 7
  21170316.312    21170320.807   -12956022.143 8  -6080050.138 7
  20393163.991    20393170.836    -3334024.264 8   -920696.616 7
 86  6 17  0 12 59.0800000  0  4G 6G 8G 9G11
  20178463.624    20178467.726    -4078415.685 8  -1842933.419 7
  22787734.392    22787741.516    10853160.137 7   9615158.090 7
  21167419.043    21167425.075   -12971242.585 9  -6091910.220 8
  20393837.164    20393842.936    -3330489.041 9   -917941.898 8
 86  6 17  0 13  5.0800000  0  4G 6G 8G 9G11
  20178519.654    20178523.316    -4078117.523 8  -1842701.071 7
  22791703.555    22791708.099    10874014.122 8   9631407.943 8
  21164525.534    21164530.860   -12986452.590 8  -6103762.180 8
  20394514.086    20394519.396    -3326932.746 8   -915170.771 8
 86  6 17  0 13 11.0800000  0  4G 6G 8G 9G11
  20178581.026    20178584.481    -4077799.564 8  -1842453.311 7
  22795672.591    22795678.098    10894875.210 8   9647663.323 7
  21161632.484    21161639.104   -13001652.173 8  -6115606.003 8
  20395195.022    20395199.559    -3323355.425 8   -912383.242 8
 86  6 17  0 13 17.0800000  0  4G 6G 8G 9G11
  20178645.831    20178648.693    -4077461.888 8  -1842190.191 8
  22799644.742    22799649.093    10915743.312 8   9663924.179 7
  21158743.266    21158748.294   -13016841.455 9  -6127441.796 8
  20395879.289    20395883.996    -3319757.216 8   -909579.430 8
 86  6 17  0 13 23.0800000  0  4G 6G 8G 9G11
  20178712.611    20178717.268    -4077104.519 9  -1841911.727 7
  22803617.194    22803621.863    10936618.352 9   9680190.443 7
  21155854.290    21155859.699   -13032020.380 8  -6139269.537 8
  20396568.076    20396573.771    -3316138.137 8   -906759.375 8
 86  6 17  0 13 29.0800000  0  4G 6G 8G 9G11
  20178785.601    20178788.393    -4076727.395 9  -1841617.875 8
  22807590.104    22807596.075    10957500.291 9   9696462.091 8
  21152966.940    21152973.343   -13047188.903 9  -6151089.152 8
  20397260.693    20397266.004    -3312498.156 8   -903923.023 7
 86  6 17  0 13 35.0800000  0  4G 6G 8G 9G11
  20178859.832    20178864.144    -4076330.569 9  -1841308.654 7
  22811564.671    22811570.757    10978389.169 8   9712739.136 8
  21150082.666    21150089.539   -13062347.064 7  -6162900.724 8
  20397958.293    20397963.657    -3308837.322 9   -901070.435 8
 86  6 17  0 13 41.0800000  0  4G 6G 8G 9G11
  20178939.059    20178943.422    -4075913.950 8  -1840984.019 7
  22815541.124    22815547.104    10999284.887 8   9729021.492 8
  21147200.537    21147205.756   -13077494.735 9  -6174704.088 9
  20398658.166    20398664.579    -3305155.615 8   -898201.553 7
 86  6 17  0 13 47.0800000  0  4G 6G 8G 9G11
  20179023.256    20179026.439    -4075477.549 9  -1840643.969 8
  22819519.641    22819524.865    11020187.498 8   9745309.239 7
  21144319.849    21144326.507   -13092631.974 8  -6186499.338 8
  20399361.855    20399368.573    -3301453.070 7   -895316.469 8
 86  6 17  0 13 53.0800000  0  4G 6G 8G 9G11
  20179109.455    20179113.264    -4075021.387 9  -1840288.524 7
  22823498.586    22823503.736    11041096.972 9   9761602.340 8
  21141441.124    21141446.395   -13107758.734 8  -6198286.414 8
  20400072.934    20400077.358    -3297729.723 9   -892415.155 8
 86  6 17  0 13 59.0800000  0  4G 6G 8G 9G11
  20179199.627    20179204.095    -4074545.436 9  -1839917.669 7
  22827478.070    22827483.964    11062013.196 9   9777900.689 8
  21138564.387    21138569.848   -13122874.980 8  -6210065.293 8
  20400783.566    20400790.039    -3293985.591 8   -889497.640 8
 86  6 17  0 14  5.0800000  0  4G 6G 8G 9G11
  20179293.409    20179298.103    -4074049.653 8  -1839531.331 7
  22831459.394    22831464.770    11082936.242 8   9794204.358 8
  21135691.031    21135695.588   -13137980.791 8  -6221836.063 7
  20401499.850    20401506.001    -3290220.546 8   -886563.849 8
 86  6 17  0 14 11.0800000  0  4G 6G 8G 9G11
  20179391.872    20179395.867    -4073533.887 9  -1839129.436 7
  22835442.810    22835448.758    11103866.239 8   9810513.439 8
  21132818.452    21132823.351   -13153075.811 8  -6233598.415 8
  20402220.003    20402226.430    -3286434.594 8   -883613.754 7
 86  6 17  0 14 17.0800000  0  4G 6G 8G 9G11
  20179494.332    20179498.015    -4072998.333 8  -1838712.130 7
  22839426.772    22839432.008    11124802.963 9   9826827.754 8
  21129948.448    21129952.176   -13168160.264 8  -6245352.533 7
  20402944.384    20402952.119    -3282627.835 8   -880647.439 9
 86  6 17  0 14 23.0800000  0  4G 6G 8G 9G11
  20179598.952    20179603.233    -4072443.044 8  -1838279.438 8
  22843412.500    22843418.062    11145746.300 8   9843147.230 8
  21127079.789    21127084.646   -13183234.349 8  -6257098.558 8
  20403672.720    20403679.567    -3278800.423 8   -877665.043 8
 86  6 17  0 14 29.0800000  0  4G 6G 8G 9G11
  20179708.908    20179713.339    -4071867.769 9  -1837831.172 8
  22847398.100    22847404.271    11166696.432 9   9859472.009 7
  21124212.990    21124218.375   -13198297.578 8  -6268836.141 9
  20404405.268    20404411.787    -3274952.204 8   -874666.428 7
 86  6 17  0 14 35.0800000  0  4G 6G 8G 9G11
  20179821.977    20179825.678    -4071272.415 8  -1837367.262 8
  22851387.554    22851391.625    11187653.408 8   9875802.106 7
  21121348.842    21121353.618   -13213350.021 9  -6280565.310 8
  20405140.901    20405147.855    -3271083.058 8   -871651.497 7
 86  6 17  0 14 41.0800000  0  4G 6G 8G 9G11
  20179938.910    20179942.131    -4070657.091 8  -1836887.783 7
  22855375.600    22855382.504    11208617.166 7   9892137.504 8
  21118485.345    21118491.589   -13228391.610 8  -6292286.026 8
  20405881.150    20405888.227    -3267193.010 8   -868620.302 7
 86  6 17  0 14 47.0800000  0  4G 6G 8G 9G11
  20180061.367    20180063.399    -4070021.742 8  -1836392.720 8
  22859365.959    22859372.474    11229587.622 9   9908478.111 8
  21115625.719    21115630.848   -13243422.471 9  -6303998.381 8
  20406626.158    20406632.495    -3263282.158 6   -865572.886 8
 86  6 17  0 14 53.0800000  0  4G 6G 8G 9G11
  20180184.775    20180189.067    -4069366.403 8  -1835882.066 8
  22863358.504    22863364.223    11250564.821 8   9924823.982 8
  21112768.516    21112772.525   -13258442.529 9  -6315702.314 8
  20407373.933    20407379.667    -3259350.490 7   -862509.230 8
 86  6 17  0 14 59.0800000  0  4G 6G 8G 9G11
  20180313.284    20180317.383    -4068690.952 8  -1835355.748 8
  22867350.657    22867357.466    11271548.738 9   9941175.071 8
  21109911.992    21109916.004   -13273451.799 9  -6327397.849 7
  20408126.600    20408131.921    -3255397.969 8   -859429.354 8
 86  6 17  0 15  5.0800000  0  4G 6G 8G 9G11
  20180446.241    20180450.324    -4067995.588 9  -1834813.923 8
  22871346.528    22871351.540    11292539.185 8   9957531.253 7
  21107057.480    21107060.876   -13288450.195 8  -6339084.914 8
  20408883.032    20408889.109    -3251424.720 8   -856333.319 7
 86  6 17  0 15 11.0800000  0  4G 6G 8G 9G11
  20180581.564    20180587.321    -4067280.217 8  -1834256.480 7
  22875341.648    22875347.874    11313536.269 8   9973892.613 9
  21104205.982    21104209.370   -13303437.758 9  -6350763.529 8
  20409643.344    20409648.376    -3247430.700 8   -853221.076 8
 86  6 17  0 15 17.0800000  0  4G 6G 8G 9G11
  20180720.563    20180726.897    -4066544.684 8  -1833683.336 7
  22879337.794    22879344.323    11334540.021 8   9990259.168 7
  21101356.468    21101359.775   -13318414.324 8  -6362433.580 7
  20410407.644    20410412.826    -3243415.837 8   -850092.620 8
 86  6 17  0 15 23.0800000  0  4G 6G 8G 9G11
  20180864.126    20180868.734    -4065789.061 8  -1833094.557 8
  22883336.726    22883341.338    11355550.371 8  10006630.869 8
  21098508.843    21098512.002   -13333379.964 8  -6374095.118 8
  20411176.166    20411179.570    -3239380.173 8   -846947.938 7
 86  6 17  0 15 29.0800000  0  4G 6G 8G 9G11
  20181013.818    20181018.032    -4065013.481 8  -1832490.204 8
  22887336.409    22887341.633    11376567.189 8  10023007.598 8
  21095661.524    21095666.262   -13348334.749 8  -6385748.187 8
  20411947.538    20411953.354    -3235323.902 7   -843787.204 8
 86  6 17  0 15 35.0800000  0  4G 6G 8G 9G11
  20181164.810    20181168.716    -4064217.941 8  -1831870.307 6
  22891336.260    22891342.597    11397590.382 8  10039389.300 8
  21092817.829    21092821.932   -13363278.659 8  -6397392.792 8
  20412723.494    20412728.130    -3231247.075 8   -840610.470 7
 86  6 17  0 15 41.0800000  0  4G 6G 8G 9G11
  20181319.658    20181324.592    -4063402.434 8  -1831234.848 7
  22895337.337    22895344.020    11418619.971 8  10055775.982 8
  21089977.226    21089980.990   -13378211.691 9  -6409028.918 8
  20413502.825    20413508.025    -3227149.699 8   -837417.702 6
 86  6 17  0 15 47.0800000  0  4G 6G 8G 9G11
  20181478.930    20181482.586    -4062566.888 8  -1830583.791 7
  22899340.264    22899346.553    11439655.925 8  10072167.628 8
  21087136.079    21087140.854   -13393133.793 9  -6420656.532 8
  20414286.139    20414291.333    -3223031.718 8   -834208.872 7
 86  6 17  0 15 53.0800000  0  4G 6G 8G 9G11
  20181641.679    20181645.878    -4061711.301 8  -1829917.097 7
  22903345.957    22903351.381    11460698.280 8  10088564.265 8
  21084299.022    21084303.916   -13408044.982 9  -6432275.629 8
  20415074.298    20415078.939    -3218893.135 9   -830983.994 7
 86  6 17  0 15 59.0800000  0  4G 6G 8G 9G11
  20181806.435    20181812.631    -4060835.696 9  -1829234.804 8
  22907351.231    22907357.062    11481746.978 8  10104965.831 8
  21081464.201    21081466.286   -13422945.242 8  -6443886.218 8
  20415866.163    20415869.767    -3214733.997 9   -827743.114 8
 86  6 17  0 16  5.0800000  0  4G 6G 8G 9G11
  20181978.944    20181983.416    -4059940.058 9  -1828536.902 7
  22911356.878    22911362.777    11502801.943 7  10121372.296 7
  21078631.038    21078634.760   -13437834.441 9  -6455488.204 7
  20416660.269    20416664.767    -3210554.309 8   -824486.211 7
 86  6 17  0 16 11.0800000  0  4G 6G 8G 9G11
  20182151.975    20182158.598    -4059024.349 9  -1827823.375 7
  22915366.445    22915371.085    11523863.207 8  10137783.675 8
  21075799.591    21075802.942   -13452712.676 9  -6467081.623 8
  20417459.742    20417464.388    -3206354.055 8   -821213.289 8
 86  6 17  0 16 17.0800000  0  4G 6G 8G 9G11
  20182331.474    20182335.770    -4058088.626 8  -1827094.237 7
  22919374.126    22919379.605    11544930.716 7  10154199.889 8
  21072970.522    21072973.613   -13467579.961 8  -6478666.512 7
  20418263.290    20418268.258    -3202133.383 8   -817924.468 7
 86  6 17  0 16 23.0800000  0  4G 6G 8G 9G11
  20182512.778    20182517.354    -4057132.726 9  -1826349.383 8
  22923383.533    22923389.539    11566004.532 7  10170621.031 8
  21070143.044    21070145.898   -13482436.006 9  -6490242.659 8
  20419070.838    20419074.429    -3197892.172 8   -814619.616 8
 86  6 17  0 16 29.0800000  0  4G 6G 8G 9G11
  20182698.828    20182703.168    -4056156.576 8  -1825588.754 8
  22927396.057    22927402.346    11587084.707 8  10187047.149 8
  21067319.572    21067323.084   -13497280.888 8  -6501810.081 7
  20419881.288    20419885.236    -3193630.358 8   -811298.727 7
 86  6 17  0 16 35.0800000  0  4G 6G 8G 9G11
  20182888.472    20182893.298    -4055160.199 8  -1824812.355 7
  22931408.772    22931414.265    11608171.198 8  10203478.170 8
  21064495.568    21064500.348   -13512114.533 9  -6513368.771 6
  20420695.995    20420700.244    -3189347.922 8   -807961.768 7
 86  6 17  0 16 41.0800000  0  4G 6G 8G 9G11
  20183082.138    20183086.242    -4054143.663 8  -1824020.241 7
  22935422.011    22935429.425    11629263.849 8  10219913.986 8
  21061675.187    21061678.627   -13526937.033 9  -6524918.765 7
  20421515.316    20421519.105    -3185045.004 8   -804608.843 7
 86  6 17  0 16 47.0800000  0  4G 6G 8G 9G11
  20183278.668    20183283.285    -4053106.944 9  -1823212.415 7
  22939436.861    22939443.668    11650362.747 8  10236354.690 7
  21058856.887    21058859.906   -13541748.239 8  -6536459.969 7
  20422339.237    20422343.244    -3180721.483 8   -801239.866 7
 86  6 17  0 16 53.0800000  0  4G 6G 8G 9G11
  20183479.494    20183484.848    -4052049.808 8  -1822388.674 7
  22943453.506    22943459.577    11671468.007 7  10252800.323 8
  21056040.417    21056043.787   -13556548.069 9  -6547992.297 7
  20423164.156    20423168.497    -3176377.281 8   -797854.770 8
 86  6 17  0 16 59.0800000  0  4G 6G 8G 9G11
  20183686.026    20183687.720    -4050972.364 8  -1821549.111 7
  22947470.923    22947478.159    11692579.521 7  10269250.847 9
  21053227.041    21053228.544   -13571336.603 8  -6559515.823 7
  20423994.569    20423999.733    -3172012.512 8   -794453.651 8
 86  6 17  0 17  5.0800000  0  4G 6G 8G 9G11
  20183894.163    20183899.136    -4049874.780 8  -1820693.855 7
  22951488.953    22951496.020    11713697.117 7  10285706.119 8
  21050413.967    21050417.737   -13586113.907 8  -6571030.610 8
  20424828.119    20424832.950    -3167627.346 9   -791036.652 6
 86  6 17  0 17 11.0800000  0  4G 6G 8G 9G11
  20184106.371    20184111.705    -4048756.865 8  -1819822.745 7
  22955508.048    22955515.238    11734820.900 7  10302166.194 8
  21047603.622    21047607.841   -13600879.847 9  -6582536.535 7
  20425668.121    20425672.251    -3163221.595 8   -787603.587 7
 86  6 17  0 17 17.0800000  0  4G 6G 8G 9G11
  20184323.643    20184326.437    -4047618.695 8  -1818935.857 7
  22959529.265    22959536.132    11755950.761 9  10318631.028 9
  21044796.445    21044800.558   -13615634.467 9  -6594033.622 8
  20426509.749    20426515.640    -3158795.443 8   -784154.648 7
 86  6 17  0 17 23.0800000  0  4G 6G 8G 9G11
  20184543.807    20184547.556    -4046460.380 8  -1818033.280 7
  22963552.349    22963557.811    11777086.590 8  10335100.510 7
  21041990.680    21041995.040   -13630377.791 8  -6605521.935 9
  20427355.687    20427359.829    -3154348.943 9   -780689.830 7
 86  6 17  0 17 29.0800000  0  4G 6G 8G 9G11
  20184768.371    20184772.194    -4045281.840 8  -1817114.944 7
  22967575.092    22967580.652    11798228.443 8  10351574.668 9
  21039186.784    21039190.957   -13645109.807 8  -6617001.438 7
  20428205.413    20428210.041    -3149882.061 8   -777209.157 7
 86  6 17  0 17 35.0800000  0  4G 6G 8G 9G11
  20184996.788    20185000.164    -4044083.006 8  -1816180.785 7
  22971599.146    22971604.425    11819376.217 7  10368053.450 8
  21036385.511    21036389.024   -13659830.449 8  -6628472.051 7
  20429059.480    20429065.282    -3145394.890 7   -773712.660 7
 86  6 17  0 17 41.0800000  0  4G 6G 8G 9G11
  20185228.105    20185232.509    -4042863.988 8  -1815230.908 7
  22975626.016    22975631.026    11840529.910 7  10384536.845 9
  21033586.624    21033590.947   -13674539.773 9  -6639933.850 8
  20429917.398    20429921.795    -3140887.356 8   -770200.288 7
 86  6 17  0 17 47.0800000  0  4G 6G 8G 9G11
  20185464.616    20185467.641    -4041624.677 8  -1814265.209 7
  22979651.275    22979658.262    11861689.585 7  10401024.882 8
  21030791.523    21030794.323   -13689237.652 8  -6651386.754 7
  20430778.646    20430784.521    -3136359.418 8   -766672.032 8
 86  6 17  0 17 53.0800000  0  4G 6G 8G 9G11
  20185703.551    20185707.900    -4040365.044 7  -1813283.677 6
  22983677.839    22983685.939    11882855.254 7  10417517.610 7
  21027996.232    21027999.300   -13703923.994 9  -6662830.642 7
  20431644.775    20431649.356    -3131811.102 8   -763127.891 7
 86  6 17  0 17 59.0800000  0  4G 6G 8G 9G11
  20185947.129    20185951.067    -4039085.003 9  -1812286.246 8
  22987707.296    22987714.005    11904026.885 8  10434014.973 9
  21025202.228    21025206.585   -13718598.808 9  -6674265.570 8
  20432514.243    20432520.045    -3127242.379 8   -759567.852 7
 86  6 17  0 18  5.0800000  0  4G 6G 8G 9G11
  20186195.594    20186198.734    -4037784.570 9  -1811272.927 7
  22991737.729    22991743.909    11925204.437 7  10450516.960 9
  21022412.814    21022415.895   -13733262.116 9  -6685691.522 7
  20433387.401    20433391.625    -3122653.270 8   -755991.926 7
 86  6 17  0 18 11.0800000  0  4G 6G 8G 9G11
  20186446.264    20186450.078    -4036463.845 8  -1810243.777 6
  22995768.050    22995774.963    11946387.836 8  10467023.490 8
  21019622.827    21019627.234   -13747913.942 8  -6697108.523 8
  20434264.672    20434269.014    -3118043.893 8   -752400.193 7
 86  6 17  0 18 17.0800000  0  4G 6G 8G 9G11
  20186701.969    20186706.274    -4035122.804 8  -1809198.805 7
  22999801.657    22999806.927    11967577.006 7  10483534.522 8
  21016838.143    21016840.834   -13762554.224 8  -6708516.521 8
  20435145.536    20435150.079    -3113414.244 8   -748792.671 8
 86  6 17  0 18 23.0800000  0  4G 6G 8G 9G11
  20186960.332    20186965.666    -4033761.533 9  -1808138.099 7
  23003835.181    23003840.145    11988771.858 7  10500049.992 8
  21014054.157    21014057.514   -13777183.091 9  -6719915.641 7
  20436030.994    20436035.267    -3108764.466 8   -745169.472 8
 86  6 17  0 18 29.0800000  0  4G 6G 8G 9G11
  20187223.346    20187227.607    -4032380.025 8  -1807061.587 7
  23007869.483    23007874.976    12009972.393 7  10516569.877 7
  21011271.953    21011276.637   -13791800.532 9  -6731305.852 8
  20436919.189    20436923.570    -3104094.543 8   -741530.567 7
 86  6 17  0 18 35.0800000  0  4G 6G 8G 9G11
  20187490.635    20187495.049    -4030978.254 8  -1805969.295 7
  23011903.224    23011911.336    12031178.596 7  10533094.173 8
  21008493.594    21008498.260   -13806406.347 8  -6742687.006 8
  20437810.935    20437816.823    -3099404.472 8   -737875.955 7
 86  6 17  0 18 41.0800000  0  4G 6G 8G 9G11
  20187760.592    20187764.446    -4029556.111 8  -1804861.144 8
  23015938.817    23015947.358    12052390.480 7  10549622.919 7
  21005716.867    21005719.892   -13821000.590 8  -6754059.137 8
  20438707.657    20438712.992    -3094694.173 8   -734205.585 7
 86  6 17  0 18 47.0800000  0  4G 6G 8G 9G11
  20188035.539    20188038.451    -4028113.518 8  -1803737.032 7
  23019977.675    23019984.365    12073608.153 7  10566156.160 8
  21002942.439    21002944.715   -13835583.127 9  -6765422.160 8
  20439607.820    20439613.300    -3089963.588 8   -730519.431 7
 86  6 17  0 18 53.0800000  0  4G 6G 8G 9G11
  20188313.616    20188318.004    -4026650.418 8  -1802596.972 7
  23024016.459    23024022.768    12094831.529 8  10582693.833 7
  21000169.049    21000173.295   -13850153.997 8  -6776776.071 7
  20440511.793    20440516.564    -3085212.693 8   -726817.425 7
 86  6 17  0 18 59.0800000  0  4G 6G 8G 9G11
  20188595.916    20188599.323    -4025166.839 9  -1801440.936 8
  23028055.472    23028061.738    12116060.714 6  10599236.048 8
  20997396.958    20997402.354   -13864713.013 8  -6788120.748 7
  20441419.908    20441425.853    -3080441.559 7   -723099.655 7
 86  6 17  0 19  5.0800000  0  4G 6G 8G 9G11
  20188881.752    20188885.372    -4023662.796 9  -1800268.942 7
  23032098.574    23032103.197    12137295.545 8  10615782.664 7
  20994630.315    20994632.991   -13879260.275 9  -6799456.283 7
  20442332.011    20442337.710    -3075650.180 8   -719366.109 8
 86  6 17  0 19 11.0800000  0  4G 6G 8G 9G11
  20189172.037    20189176.945    -4022138.354 8  -1799081.069 6
  23036139.301    23036145.058    12158535.960 7  10632333.632 7
  20991862.973    20991868.289   -13893795.848 8  -6810782.683 7
  20443246.419    20443252.918    -3070838.632 8   -715616.867 8
 86  6 17  0 19 17.0800000  0  4G 6G 8G 9G11
  20189465.014    20189470.839    -4020593.448 8  -1797877.263 8
  23040183.184    23040188.698    12179782.015 6  10648888.983 8
  20989100.174    20989103.670   -13908319.637 8  -6822099.927 7
  20444166.151    20444173.272    -3066006.966 8   -711851.924 7
 86  6 17  0 19 23.0800000  0  4G 6G 8G 9G11
  20189764.248    20189768.491    -4019027.938 8  -1796657.376 7
  23044226.865    23044233.225    12201033.770 8  10665448.786 7
  20986338.737    20986341.262   -13922831.498 8  -6833407.866 8
  20445088.640    20445095.731    -3061155.087 7   -708071.239 9
 86  6 17  0 19 29.0800000  0  4G 6G 8G 9G11
  20190066.934    20190069.875    -4017441.817 8  -1795421.436 6
  23048271.247    23048277.387    12222291.238 7  10682013.031 8
  20983579.161    20983582.895   -13937331.342 8  -6844706.444 7
  20446017.620    20446022.397    -3056282.946 8   -704274.764 8
 86  6 17  0 19 35.0800000  0  4G 6G 8G 9G11
  20190370.445    20190375.053    -4015835.096 8  -1794169.444 7
  23052316.956    23052324.587    12243554.287 8  10698581.635 8
  20980823.144    20980824.877   -13951819.268 8  -6855995.731 7
  20446948.553    20446954.734    -3051390.592 7   -700462.537 8
 86  6 17  0 19 41.0800000  0  4G 6G 8G 9G11
  20190681.610    20190686.626    -4014207.734 9  -1792901.373 7
  23056365.378    23056371.244    12264822.961 7  10715154.620 8
  20978066.842    20978072.458   -13966295.232 8  -6867275.704 8
  20447882.990    20447888.406    -3046478.005 8   -696634.544 8
 86  6 17  0 19 47.0800000  0  4G 6G 8G 9G11
  20190994.053    20190998.080    -4012559.775 8  -1791617.244 7
  23060413.274    23060420.350    12286097.194 8  10731731.933 8
  20975315.134    20975319.835   -13980759.172 8  -6878546.299 6
  20448821.195    20448827.659    -3041545.289 7   -692790.867 8
 86  6 17  0 19 53.0800000  0  4G 6G 8G 9G11
  20191313.480    20191316.145    -4010891.320 8  -1790317.150 8
  23064464.218    23064469.760    12307376.962 8  10748313.559 8
  20972566.253    20972568.904   -13995211.237 8  -6889807.642 7
  20449763.940    20449770.816    -3036592.454 7   -688931.528 8
 86  6 17  0 19 59.0800000  0  4G 6G 8G 9G11
  20191632.833    20191637.751    -4009202.160 8  -1789000.921 7
  23068511.862    23068520.274    12328662.277 8  10764899.505 8
  20969818.412    20969822.358   -14009651.124 8  -6901059.505 8
  20450709.680    20450715.051    -3031619.385 7   -685056.402 7
 86  6 17  0 20  5.0800000  0  4G 6G 8G 9G11
  20191958.081    20191964.070    -4007492.516 8  -1787668.746 7
  23072564.706    23072571.539    12349952.943 8  10781489.629 8
  20967071.410    20967075.718   -14024079.164 8  -6912302.126 7
  20451660.214    20451665.484    -3026626.301 8   -681165.681 8
 86  6 17  0 20 11.0800000  0  4G 6G 8G 9G11
  20192288.374    20192292.547    -4005762.390 9  -1786320.590 7
  23076618.228    23076624.440    12371248.922 8  10798083.893 8
  20964327.802    20964333.813   -14038495.255 8  -6923535.431 8
  20452614.653    20452620.864    -3021613.222 8   -677259.372 8
 86  6 17  0 20 17.0800000  0  4G 6G 8G 9G11
  20192622.592    20192625.220    -4004011.791 8  -1784956.478 7
  23080671.436    23080676.740    12392550.190 9  10814682.277 8
  20961587.020    20961592.951   -14052899.426 8  -6934759.471 8
  20453572.150    20453578.260    -3016580.171 8   -673337.525 8
 86  6 17  0 20 23.0800000  0  4G 6G 8G 9G11
  20192957.518    20192963.682    -4002240.758 9  -1783576.463 7
  23084725.230    23084731.548    12413856.651 8  10831284.714 8
  20958850.149    20958853.293   -14067291.721 8  -6945974.234 8
  20454534.123    20454539.895    -3011527.311 8   -669400.214 8
 86  6 17  0 20 29.0800000  0  4G 6G 8G 9G11
  20193301.192    20193304.019    -4000449.266 8  -1782180.501 8
  23088780.278    23088785.702    12435168.340 8  10847891.229 7
  20956112.247    20956116.163   -14081672.196 9  -6957179.794 8
  20455498.792    20455504.736    -3006454.629 7   -665447.488 7
 86  6 17  0 20 35.0800000  0  4G 6G 8G 9G11
  20193644.553    20193648.499    -3998637.284 8  -1780768.561 6
  23092837.492    23092843.515    12456485.213 7  10864501.783 8
  20953378.219    20953382.926   -14096040.555 8  -6968375.930 8
  20456468.148    20456472.492    -3001362.037 7   -661479.234 7
 86  6 17  0 20 41.0800000  0  4G 6G 8G 9G11
  20193993.473    20193996.679    -3996804.775 7  -1779340.632 7
  23096895.825    23096901.847    12477807.307 9  10881116.372 7
  20950645.315    20950650.720   -14110396.875 8  -6979562.658 7
  20457441.343    20457446.589    -2996249.546 7   -657495.463 8
 86  6 17  0 20 47.0800000  0  4G 6G 8G 9G11
  20194346.051    20194349.004    -3994951.735 8  -1777896.708 8
  23100953.411    23100959.837    12499134.559 8  10897735.001 7
  20947915.912    20947921.551   -14124741.129 8  -6990739.997 7
  20458416.144    20458423.207    -2991117.154 8   -653496.201 7
 86  6 17  0 20 53.0800000  0  4G 6G 8G 9G11
  20194702.797    20194706.430    -3993078.138 8  -1776436.756 7
  23105013.810    23105018.731    12520466.920 9  10914357.620 8
  20945188.019    20945194.137   -14139073.476 8  -7001908.056 7
  20459397.292    20459402.696    -2985964.909 8   -649481.465 8
 86  6 17  0 20 59.0800000  0  4G 6G 8G 9G11
  20195063.034    20195065.612    -3991183.903 9  -1774960.749 8
  23109073.574    23109079.010    12541804.504 8  10930984.300 8
  20942464.072    20942469.538   -14153393.592 9  -7013066.572 7
  20460381.333    20460388.173    -2980792.837 7   -645451.279 7
 86  6 17  0 21  5.0800000  0  4G 6G 8G 9G11
  20195427.427    20195431.702    -3989269.075 9  -1773468.665 7
  23113133.796    23113139.610    12563147.198 8  10947614.957 7
  20939742.024    20939746.523   -14167701.480 8  -7024215.581 8
  20461370.354    20461376.451    -2975600.902 7   -641405.619 7
 86  6 17  0 21 11.0800000  0  4G 6G 8G 9G11
  20195795.167    20195798.721    -3987333.632 8  -1771960.528 8
  23117197.295    23117203.283    12584495.028 7  10964249.637 7
  20937021.122    20937026.058   -14181997.214 8  -7035355.104 8
  20462361.495    20462367.177    -2970389.115 8   -637344.473 7
 86  6 17  0 21 17.0800000  0  4G 6G 8G 9G11
  20196167.440    20196171.856    -3985377.404 8  -1770436.206 7
  23121258.913    23121266.413    12605848.153 8  10980888.410 7
  20934303.263    20934308.214   -14196280.608 8  -7046485.022 7
  20463358.270    20463362.252    -2965157.341 8   -633267.793 7
 86  6 17  0 21 23.0800000  0  4G 6G 8G 9G11
  20196544.493    20196548.642    -3983400.445 8  -1768895.728 8
  23125324.693    23125330.520    12627206.444 8  10997531.244 8
  20931587.224    20931592.210   -14210551.722 9  -7057605.366 8
  20464358.060    20464361.646    -2959905.559 8   -629175.477 8
 86  6 17  0 21 29.0800000  0  4G 6G 8G 9G11
  20196924.065    20196928.727    -3981402.821 8  -1767339.133 8
  23129389.336    23129395.242    12648569.777 9  11014178.014 7
  20928874.793    20928879.636   -14224810.494 8  -7068716.091 7
  20465360.992    20465363.882    -2954633.917 8   -625067.703 7
 86  6 17  0 21 35.0800000  0  4G 6G 8G 9G11
  20197309.011    20197313.710    -3979384.525 8  -1765766.446 7
  23133456.220    23133461.347    12669938.118 9  11030828.627 7
  20926163.439    20926167.775   -14239057.043 9  -7079817.291 7
  20466367.266    20466372.358    -2949342.544 7   -620944.549 7
 86  6 17  0 21 41.0800000  0  4G 6G 8G 9G11
  20197696.104    20197701.415    -3977345.610 8  -1764177.673 7
  23137522.982    23137528.775    12691311.488 8  11047483.203 7
  20923454.099    20923459.375   -14253291.335 9  -7090908.950 8
  20467378.777    20467381.011    -2944031.395 8   -616805.989 7
 86  6 17  0 21 47.0800000  0  4G 6G 8G 9G11
  20198089.203    20198093.029    -3975285.895 9  -1762572.700 7
  23141591.685    23141599.025    12712689.924 9  11064141.724 8
  20920748.679    20920753.487   -14267513.087 7  -7101990.829 8
  20468393.734    20468397.371    -2938700.387 8   -612651.970 7
 86  6 17  0 21 53.0800000  0  4G 6G 8G 9G11
  20198484.311    20198487.992    -3973205.371 9  -1760951.525 7
  23145661.512    23145666.916    12734073.400 9  11080804.160 8
  20918044.433    20918049.255   -14281722.431 8  -7113063.039 8
  20469411.664    20469415.066    -2933349.523 8   -608482.468 8
 86  6 17  0 21 59.0800000  0  4G 6G 8G 9G11
  20198885.056    20198887.210    -3971104.109 7  -1759314.184 7
  23149730.359    23149736.920    12755461.860 8  11097470.488 7
  20915343.048    20915347.910   -14295919.378 9  -7124125.593 8
  20470432.692    20470436.806    -2927978.917 7   -604297.576 8
 86  6 17  0 22  5.0800000  0  4G 6G 8G 9G11
  20199288.171    20199291.351    -3968982.116 9  -1757660.670 8
  23153802.258    23153807.336    12776855.325 8  11114140.720 7
  20912644.410    20912649.285   -14310103.814 8  -7135178.395 8
  20471457.648    20471464.554    -2922588.567 7   -600097.303 8
 86  6 17  0 22 11.0800000  0  4G 6G 8G 9G11
  20199695.480    20199699.596    -3966839.393 9  -1755991.018 7
  23157872.813    23157880.081    12798253.591 9  11130814.705 8
  20909946.812    20909951.893   -14324275.842 8  -7146221.535 8
  20472488.022    20472491.514    -2917178.536 8   -595881.688 7
 86  6 17  0 22 17.0800000  0  4G 6G 8G 9G11
  20200106.925    20200109.821    -3964675.886 9  -1754305.168 7
  23161946.020    23161952.975    12819656.815 8  11147492.511 7
  20907251.723    20907257.430   -14338435.484 9  -7157255.020 8
  20473521.084    20473525.493    -2911748.775 7   -591650.700 7
 86  6 17  0 22 23.0800000  0  4G 6G 8G 9G11
  20200522.895    20200526.050    -3962491.604 7  -1752603.129 8
  23166020.018    23166025.589    12841064.932 9  11164174.167 8
  20904560.432    20904565.212   -14352582.599 9  -7168278.752 9
  20474558.675    20474562.993    -2906299.302 7   -587404.359 7
 86  6 17  0 22 29.0800000  0  4G 6G 8G 9G11
  20200942.995    20200947.837    -3960286.513 9  -1750884.889 8
  23170095.505    23170103.021    12862477.942 8  11180859.615 8
  20901870.361    20901875.184   -14366717.157 8  -7179292.687 8
  20475599.710    20475602.845    -2900830.093 8   -583142.653 8
 86  6 17  0 22 35.0800000  0  4G 6G 8G 9G11
  20201366.545    20201371.266    -3958060.797 8  -1749150.566 8
  23174170.606    23174177.301    12883895.615 8  11197548.703 7
  20899183.667    20899188.738   -14380839.328 9  -7190296.972 8
  20476642.336    20476648.196    -2895341.368 7   -578865.719 8
 86  6 17  0 22 41.0800000  0  4G 6G 8G 9G11
  20201793.126    20201798.821    -3955814.437 9  -1747400.159 7
  23178247.271    23178252.942    12905317.985 8  11214241.446 7
  20896499.043    20896502.753   -14394949.049 9  -7201291.536 8
  20477690.857    20477697.118    -2889833.030 8   -574573.502 8
 86  6 17  0 22 47.0800000  0  4G 6G 8G 9G11
  20202224.821    20202228.243    -3953547.149 8  -1745633.439 7
  23182324.962    23182332.258    12926745.199 8  11230937.973 7
  20893815.668    20893820.892   -14409046.157 8  -7212276.304 7
  20478743.159    20478747.802    -2884304.975 8   -570265.930 7
 86  6 17  0 22 53.0800000  0  4G 6G 8G 9G11
  20202661.357    20202663.840    -3951259.081 8  -1743850.518 7
  23186403.497    23186409.084    12948177.151 8  11247638.192 8
  20891135.728    20891139.802   -14423130.637 9  -7223251.224 8
  20479797.623    20479804.481    -2878757.375 8   -565943.129 7
 86  6 17  0 22 59.0800000  0  4G 6G 8G 9G11
  20203098.395    20203104.081    -3948950.203 8  -1742051.416 8
  23190483.125    23190489.579    12969613.779 8  11264342.064 8
  20888457.591    20888461.943   -14437202.542 8  -7234216.349 8
  20480857.618    20480863.273    -2873190.238 7   -561605.099 7
 86  6 17  0 23  5.0800000  0  4G 6G 8G 9G11
  20203544.045    20203548.725    -3946620.498 8  -1740236.062 7
  23194562.157    23194569.004    12991055.162 8  11281049.631 8
  20885781.772    20885787.176   -14451261.806 9  -7245171.612 8
  20481920.735    20481926.635    -2867603.449 9   -557251.756 7
 86  6 17  0 23 11.0800000  0  4G 6G 8G 9G11
  20203989.794    20203994.096    -3944270.104 8  -1738404.578 7
  23198642.326    23198647.794    13012501.096 7  11297760.723 8
  20883107.937    20883115.177   -14465308.520 9  -7256117.107 9
  20482987.629    20482992.395    -2861997.278 8   -552883.313 7
 86  6 17  0 23 17.0800000  0  4G 6G 8G 9G11
  20204441.462    20204445.998    -3941898.888 8  -1736556.875 8
  23202724.104    23202731.208    13033951.670 8  11314475.454 8
  20880437.965    20880443.353   -14479342.407 8  -7267052.597 8
  20484057.839    20484064.493    -2856371.543 8   -548499.621 7
 86  6 17  0 23 23.0800000  0  4G 6G 8G 9G11
  20204896.176    20204901.671    -3939506.752 8  -1734692.885 8
  23206809.286    23206815.332    13055406.887 8  11331193.799 7
  20877771.019    20877774.845   -14493363.605 9  -7277978.205 8
  20485132.173    20485137.381    -2850726.277 7   -544100.727 7
 86  6 17  0 23 29.0800000  0  4G 6G 8G 9G11
  20205354.849    20205360.012    -3937093.753 9  -1732812.640 6
  23210892.578    23210897.109    13076866.777 9  11347915.789 7
  20875105.520    20875109.490   -14507372.114 8  -7288893.932 8
  20486211.138    20486216.240    -2845061.486 8   -539686.600 7
 86  6 17  0 23 35.0800000  0  4G 6G 8G 9G11
  20205819.880    20205822.289    -3934659.821 9  -1730916.056 7
  23214976.945    23214982.137    13098331.272 7  11364641.358 8
  20872441.950    20872446.531   -14521367.797 8  -7299799.652 8
  20487290.571    20487297.574    -2839377.192 8   -535257.270 7
 86  6 17  0 23 41.0800000  0  4G 6G 8G 9G11
  20206286.337    20206289.209    -3932205.009 7  -1729003.222 8
  23219062.442    23219068.831    13119800.331 8  11381370.493 7
  20869781.586    20869785.836   -14535350.660 9  -7310695.392 7
  20488377.183    20488382.964    -2833673.328 8   -530812.709 7
 86  6 17  0 23 47.0800000  0  4G 6G 8G 9G11
  20206758.074    20206759.594    -3929729.325 9  -1727074.105 7
  23223148.867    23223154.850    13141273.921 7  11398103.160 8
  20867122.060    20867128.037   -14549320.767 9  -7321581.180 7
  20489466.888    20489472.207    -2827949.979 7   -526352.964 6
 86  6 17  0 23 53.0800000  0  4G 6G 8G 9G11
  20207232.065    20207235.951    -3927232.763 8  -1725128.744 7
  23227236.062    23227241.126    13162751.968 8  11414839.300 7
  20864466.493    20864469.956   -14563278.139 8  -7332457.047 8
  20490559.365    20490563.897    -2822207.186 8   -521878.052 7
 86  6 17  0 23 59.0800000  0  4G 6G 8G 9G11
  20207711.610    20207714.946    -3924715.252 8  -1723167.043 7
  23231323.116    23231329.473    13184234.603 7  11431579.007 8
  20861811.841    20861817.056   -14577222.503 9  -7343322.790 8
  20491654.581    20491661.745    -2816444.864 8   -517387.928 8
 86  6 17  0 24  5.0800000  0  4G 6G 8G 9G11
  20208195.226    20208197.419    -3922176.781 9  -1721189.009 7
  23235412.964    23235417.999    13205721.729 8  11448322.218 8
  20859161.407    20859166.822   -14591154.018 9  -7354178.515 8
  20492754.143    20492761.476    -2810663.070 7   -512882.630 7
 86  6 17  0 24 11.0800000  0  4G 6G 8G 9G11
  20208682.099    20208686.760    -3919617.448 8  -1719194.735 7
  23239503.893    23239508.219    13227213.244 7  11465068.847 7
  20856512.595    20856517.986   -14605072.606 9  -7365024.164 8
  20493859.832    20493865.428    -2804861.925 7   -508362.264 7
 86  6 17  0 24 17.0800000  0  4G 6G 8G 9G11
  20209172.360    20209176.986    -3917037.169 8  -1717184.143 8
  23243592.556    23243598.553    13248709.183 7  11481818.930 8
  20853867.263    20853871.725   -14618978.304 9  -7375859.770 8
  20494967.715    20494972.064    -2799041.379 7   -503826.775 7
 86  6 17  0 24 23.0800000  0  4G 6G 8G 9G11
  20209667.102    20209672.026    -3914435.963 9  -1715157.227 7
  23247683.797    23247689.127    13270209.535 9  11498572.429 8
  20851222.154    20851227.881   -14632871.095 8  -7386685.317 8
  20496079.462    20496083.292    -2793201.517 7   -499276.225 8
 86  6 17  0 24 29.0800000  0  4G 6G 8G 9G11
  20210166.510    20210170.865    -3911813.847 8  -1713114.029 7
  23251776.567    23251783.159    13291714.201 8  11515329.298 7
  20848581.161    20848586.056   -14646750.943 8  -7397500.792 7
  20497195.153    20497198.578    -2787342.335 7   -494710.628 8
 86  6 17  0 24 35.0800000  0  4G 6G 8G 9G11
  20210670.405    20210674.234    -3909170.962 9  -1711054.615 7
  23255869.728    23255875.891    13313223.102 7  11532089.487 7
  20845941.994    20845947.780   -14660617.928 8  -7408306.225 7
  20498311.380    20498319.755    -2781463.892 7   -490130.027 8
 86  6 17  0 24 41.0800000  0  4G 6G 8G 9G11
  20211175.436    20211180.240    -3906507.019 8  -1708978.828 7
  23259964.487    23259968.967    13334736.344 8  11548853.052 7
  20843306.048    20843311.374   -14674471.802 7  -7419101.460 8
  20499434.828    20499439.959    -2775566.117 8   -485534.354 8
 86  6 17  0 24 47.0800000  0  4G 6G 8G 9G11
  20211686.952    20211691.663    -3903822.085 9  -1706886.678 7
  23264058.415    23264062.809    13356253.914 7  11565619.985 8
  20840671.059    20840677.756   -14688312.804 9  -7429886.640 7
  20500560.108    20500566.526    -2769649.017 7   -480923.618 7
 86  6 17  0 24 53.0800000  0  4G 6G 8G 9G11
  20212202.569    20212206.339    -3901116.139 9  -1704778.157 6
  23268152.504    23268159.966    13377775.820 8  11582390.276 7
  20838041.793    20838045.328   -14702140.573 8  -7440661.532 8
  20501690.811    20501696.398    -2763712.557 8   -476297.814 6
 86  6 17  0 24 59.0800000  0  4G 6G 8G 9G11
  20212720.617    20212725.236    -3898389.217 9  -1702653.276 8
  23272249.921    23272255.978    13399301.968 8  11599163.915 9
  20835412.049    20835416.305   -14715955.239 9  -7451426.194 8
  20502823.566    20502829.280    -2757756.805 7   -471656.943 6
 86  6 17  0 25  5.0800000  0  4G 6G 8G 9G11
  20213244.723    20213247.166    -3895641.364 8  -1700512.110 8
  23276347.238    23276351.349    13420832.296 8  11615940.774 7
  20832785.548    20832789.742   -14729756.881 9  -7462180.722 7
  20503962.049    20503966.726    -2751781.848 7   -467001.156 6
 86  6 17  0 25 11.0800000  0  4G 6G 8G 9G11
  20213771.125    20213775.598    -3892872.513 9  -1698354.565 7
  23280444.747    23280450.520    13442366.868 8  11632720.949 7
  20830161.435    20830166.199   -14743545.335 9  -7472924.972 7
  20505100.660    20505107.894    -2745787.649 7   -462330.356 7
 86  6 17  0 25 17.0800000  0  4G 6G 8G 9G11
  20214302.159    20214305.246    -3890082.686 8  -1696180.670 6
  23284542.548    23284549.915    13463905.555 7  11649504.322 7
  20827541.362    20827545.576   -14757320.731 9  -7483659.052 8
  20506246.702    20506251.724    -2739774.308 8   -457644.614 7
 86  6 17  0 25 23.0800000  0  4G 6G 8G 9G11
  20214837.418    20214840.079    -3887271.835 8  -1693990.395 7
  23288641.290    23288649.493    13485448.375 7  11666290.932 8
  20824921.332    20824927.933   -14771083.089 8  -7494382.969 8
  20507392.705    20507399.040    -2733741.732 8   -452943.927 7
 86  6 17  0 25 29.0800000  0  4G 6G 8G 9G11
  20215374.642    20215378.847    -3884440.005 8  -1691783.777 7
  23292742.957    23292749.031    13506995.296 8  11683080.738 8
  20822305.820    20822309.551   -14784832.148 8  -7505096.526 8
  20508545.356    20508551.345    -2727689.990 7   -448228.277 7
 86  6 17  0 25 35.0800000  0  4G 6G 8G 9G11
  20215918.422    20215922.557    -3881587.145 8  -1689560.772 7
  23296843.642    23296850.469    13528546.318 7  11699873.747 8
  20819691.206    20819696.407   -14798568.071 9  -7515799.825 8
  20509701.147    20509706.856    -2721619.083 7   -443497.705 7
 86  6 17  0 25 41.0800000  0  4G 6G 8G 9G11
  20216465.577    20216469.871    -3878713.194 9  -1687321.335 7
  23300947.032    23300951.661    13550101.536 6  11716670.016 8
  20817079.731    20817084.488   -14812290.577 8  -7526492.692 8
  20510860.078    20510865.697    -2715528.950 7   -438752.131 7
 86  6 17  0 25 47.0800000  0  4G 6G 8G 9G11
  20217016.188    20217019.873    -3875818.118 8  -1685065.432 7
  23305048.147    23305054.181    13571660.849 7  11733469.461 8
  20814471.451    20814475.798   -14825999.852 8  -7537175.245 8
  20512022.760    20512027.569    -2709419.605 8   -433991.622 6
 86  6 17  0 25 53.0800000  0  4G 6G 8G 9G11
  20217571.021    20217574.717    -3872901.860 8  -1682793.026 7
  23309152.407    23309157.765    13593224.344 7  11750272.182 8
  20811866.996    20811869.521   -14839695.779 8  -7547847.391 7
  20513188.042    20513194.194    -2703291.039 7   -429216.101 7
 86  6 17  0 25 59.0800000  0  4G 6G 8G 9G11
  20218129.775    20218134.124    -3869964.404 8  -1680504.095 6
  23313257.285    23313260.800    13614791.992 7  11767078.122 8
  20809261.635    20809265.295   -14853378.261 8  -7558509.073 8
  20514358.291    20514364.070    -2697143.203 8   -424425.575 7
 86  6 17  0 26  5.0800000  0  4G 6G 8G 9G11
  20218693.267    20218696.569    -3867005.841 9  -1678198.726 7
  23317360.440    23317366.766    13636363.669 7  11783887.222 8
  20806661.218    20806664.919   -14867047.373 9  -7569160.318 7
  20515531.882    20515537.143    -2690976.232 8   -419620.150 7
 86  6 17  0 26 11.0800000  0  4G 6G 8G 9G11
  20219259.939    20219263.595    -3864026.106 8  -1675876.843 6
  23321466.797    23321473.143    13657939.439 7  11800699.498 8
  20804061.170    20804066.604   -14880703.056 9  -7579801.111 8
  20516710.272    20516715.665    -2684790.075 9   -414799.755 7
 86  6 17  0 26 17.0800000  0  4G 6G 8G 9G11
  20219832.193    20219835.181    -3861025.123 9  -1673538.434 7
  23325573.198    23325578.479    13679519.280 7  11817514.966 8
  20801465.881    20801470.718   -14894345.211 9  -7590431.359 8
  20517890.858    20517896.556    -2678584.700 7   -409964.400 7
 86  6 17  0 26 23.0800000  0  4G 6G 8G 9G11
  20220407.935    20220411.245    -3858003.045 8  -1671183.567 7
  23329679.896    23329686.499    13701103.127 7  11834333.528 8
  20798871.607    20798877.194   -14907973.963 8  -7601051.147 8
  20519073.997    20519081.217    -2672360.255 8   -405114.190 7
 86  6 17  0 26 29.0800000  0  4G 6G 8G 9G11
  20220986.068    20220989.922    -3854959.839 8  -1668812.247 7
  23333786.774    23333794.107    13722690.879 7  11851155.136 8
  20796282.025    20796286.165   -14921589.248 8  -7611660.477 7
  20520263.160    20520267.699    -2666116.801 8   -400249.153 7
 86  6 17  0 26 35.0800000  0  4G 6G 8G 9G11
  20221569.203    20221572.006    -3851895.492 8  -1666424.444 7
  23337895.659    23337904.589    13744282.504 7  11867979.777 8
  20793692.748    20793696.465   -14935191.067 8  -7622259.277 8
  20521454.583    20521459.795    -2659854.312 7   -395369.288 6
 86  6 17  0 26 41.0800000  0  4G 6G 8G 9G11
  20222155.387    20222158.711    -3848810.142 9  -1664020.272 8
  23342007.059    23342013.788    13765877.925 7  11884807.367 8
  20791107.916    20791110.878   -14948779.560 9  -7632847.709 8
  20522649.363    20522653.398    -2653572.842 8   -390474.649 7
 86  6 17  0 26 47.0800000  0  4G 6G 8G 9G11
  20222747.919    20222750.466    -3845703.703 8  -1661599.672 7
  23346117.200    23346122.501    13787477.115 7  11901637.895 7
  20788523.781    20788526.606   -14962354.536 9  -7643425.608 7
  20523850.040    20523854.001    -2647272.476 8   -385565.254 7
 86  6 17  0 26 53.0800000  0  4G 6G 8G 9G11
  20223342.457    20223346.596    -3842576.235 8  -1659162.677 7
  23350228.828    23350233.749    13809080.071 7  11918471.344 9
  20785943.537    20785947.602   -14975916.146 9  -7653993.109 6
  20525052.118    20525057.989    -2640953.225 8   -380641.172 8
 86  6 17  0 26 59.0800000  0  4G 6G 8G 9G11
  20223940.599    20223944.430    -3839427.615 8  -1656709.213 8
  23354340.212    23354345.530    13830686.759 7  11935307.721 8
  20783365.230    20783369.424   -14989464.289 8  -7664550.095 7
  20526257.846    20526263.306    -2634615.063 8   -375702.336 8
 86  6 17  0 27  5.0800000  0  4G 6G 8G 9G11
  20224542.540    20224548.421    -3836257.904 8  -1654239.318 6
  23358450.925    23358457.408    13852297.201 6  11952147.014 8
  20780789.862    20780793.784   -15002998.880 9  -7675096.522 7
  20527467.936    20527472.418    -2628257.982 9   -370748.773 8
 86  6 17  0 27 11.0800000  0  4G 6G 8G 9G11
  20225151.053    20225156.799    -3833067.044 8  -1651752.939 7
  23362565.064    23362570.980    13873911.360 7  11968989.213 8
  20778217.107    20778221.325   -15016519.871 8  -7685632.353 9
  20528680.559    20528685.448    -2621882.072 7   -365780.519 6
 86  6 17  0 27 17.0800000  0  4G 6G 8G 9G11
  20225762.927    20225767.990    -3829855.058 8  -1649250.098 8
  23366679.726    23366683.934    13895529.202 7  11985834.271 7
  20775645.716    20775649.436   -15030027.320 9  -7696157.641 7
  20529897.293    20529902.270    -2615487.232 8   -360797.538 7
 86  6 17  0 27 23.0800000  0  4G 6G 8G 9G11
  20226377.905    20226382.618    -3826621.879 8  -1646730.738 8
  23370794.795    23370798.336    13917150.681 8  12002682.175 8
  20773079.191    20773081.884   -15043521.230 9  -7706672.374 7
  20531117.929    20531121.592    -2609073.534 8   -355799.855 7
 86  6 17  0 27 29.0800000  0  4G 6G 8G 9G11
  20226997.949    20227001.410    -3823367.638 9  -1644194.963 8
  23374908.084    23374912.607    13938775.827 7  12019532.917 8
  20770513.944    20770516.459   -15057001.511 8  -7717176.480 7
  20532342.327    20532346.619    -2602641.009 7   -350787.495 8
 86  6 17  0 27 35.0800000  0  4G 6G 8G 9G11
  20227620.522    20227623.885    -3820092.116 7  -1641642.616 8
  23379025.434    23379029.734    13960404.613 7  12036386.512 8
  20767952.007    20767955.314   -15070468.065 9  -7727669.889 7
  20533569.861    20533574.593    -2596189.638 8   -345760.460 8
 86  6 17  0 27 41.0800000  0  4G 6G 8G 9G11
  20228247.674    20228252.360    -3816795.438 9  -1639073.773 8
  23383140.426    23383146.711    13982037.048 7  12053242.947 7
  20765390.214    20765394.249   -15083920.961 8  -7738152.666 7
  20534800.898    20534805.144    -2589719.439 7   -340718.754 7
 86  6 17  0 27 47.0800000  0  4G 6G 8G 9G11
  20228879.788    20228883.830    -3813477.552 8  -1636488.405 7
  23387257.157    23387263.191    14003673.136 7  12070102.212 8
  20762834.067    20762837.258   -15097360.061 8  -7748624.708 8
  20536035.785    20536039.411    -2583230.449 8   -335662.385 8
 86  6 17  0 27 53.0800000  0  4G 6G 8G 9G11
  20229515.218    20229518.809    -3810138.448 9  -1633886.512 8
  23391377.006    23391382.007    14025312.774 8  12086964.263 8
  20760278.866    20760282.012   -15110785.427 8  -7759086.003 7
  20537272.958    20537278.873    -2576722.650 8   -330591.363 7
 86  6 17  0 27 59.0800000  0  4G 6G 8G 9G11
  20230154.711    20230158.365    -3806778.068 8  -1631268.026 7
  23395494.455    23395500.117    14046956.085 7  12103829.181 9
  20757727.420    20757730.452   -15124196.946 8  -7769536.543 7
  20538516.092    20538521.481    -2570196.014 9   -325505.683 7
 86  6 17  0 28  5.0800000  0  4G 6G 8G 9G11
  20230797.601    20230802.762    -3803396.408 8  -1628632.963 7
  23399613.534    23399619.128    14068602.958 7  12120696.867 7
  20755177.169    20755179.989   -15137594.669 9  -7779976.323 8
  20539761.243    20539764.669    -2563650.529 8   -320405.294 6
 86  6 17  0 28 11.0800000  0  4G 6G 8G 9G11
  20231444.542    20231449.304    -3799993.350 9  -1625981.245 7
  23403733.554    23403738.669    14090253.435 7  12137567.366 8
  20752630.496    20752633.868   -15150978.438 8  -7790405.228 7
  20541010.668    20541015.142    -2557086.216 7   -315290.242 7
 86  6 17  0 28 17.0800000  0  4G 6G 8G 9G11
  20232096.512    20232100.859    -3796569.031 9  -1623312.932 7
  23407854.269    23407860.278    14111907.551 8  12154440.675 8
  20750086.875    20750088.502   -15164348.235 9  -7800823.249 7
  20542263.773    20542268.543    -2550503.037 8   -310160.494 7
 86  6 17  0 28 23.0800000  0  4G 6G 8G 9G11
  20232753.762    20232756.425    -3793123.273 8  -1620627.932 6
  23411974.653    23411981.937    14133565.337 8  12171316.861 8
  20747544.684    20747548.545   -15177704.115 9  -7811230.427 7
  20543518.913    20543523.571    -2543900.939 7   -305016.013 6
 86  6 17  0 28 29.0800000  0  4G 6G 8G 9G11
  20233413.019    20233416.038    -3789656.156 9  -1617926.276 7
  23416098.179    23416103.740    14155226.589 8  12188195.740 9
  20745006.340    20745009.173   -15191046.036 8  -7821626.723 7
  20544778.991    20544783.217    -2537280.087 8   -299856.904 8
 86  6 17  0 28 35.0800000  0  4G 6G 8G 9G11
  20234076.671    20234078.884    -3786167.638 8  -1615207.952 8
  23420221.521    23420225.154    14176891.416 8  12205077.430 7
  20742469.852    20742471.758   -15204373.990 8  -7832012.148 7
  20546043.059    20546046.479    -2530640.432 8   -294683.149 7
 86  6 17  0 28 41.0800000  0  4G 6G 8G 9G11
  20234744.743    20234748.142    -3782657.851 8  -1612473.055 7
  23424344.274    23424350.265    14198559.719 8  12221961.809 8
  20739936.162    20739938.220   -15217687.828 9  -7842386.566 8
  20547309.790    20547314.319    -2523982.049 8   -289494.779 7
 86  6 17  0 28 47.0800000  0  4G 6G 8G 9G11
  20235415.478    20235420.485    -3779126.781 9  -1609721.582 8
  23428466.795    23428473.716    14220231.411 7  12238848.850 8
  20737405.419    20737406.938   -15230987.869 9  -7852750.222 7
  20548580.015    20548585.798    -2517305.046 8   -284291.933 8
 86  6 17  0 28 53.0800000  0  4G 6G 8G 9G11
  20236092.114    20236095.745    -3775574.492 9  -1606953.554 8
  23432591.623    23432597.546    14241906.404 9  12255738.414 8
  20734876.308    20734879.562   -15244273.950 9  -7863103.014 7
  20549854.902    20549859.303    -2510609.455 8   -279074.579 7
 86  6 17  0 28 59.0800000  0  4G 6G 8G 9G11
  20236773.192    20236776.809    -3772000.976 8  -1604169.000 7
  23436716.794    23436723.721    14263584.640 8  12272630.563 8
  20732352.203    20732354.952   -15257546.076 8  -7873444.935 8
  20551131.739    20551137.064    -2503895.376 8   -273842.833 7
 86  6 17  0 29  5.0800000  0  4G 6G 8G 9G11
  20237457.083    20237459.558    -3768406.263 9  -1601367.930 7
  23440843.909    23440848.804    14285266.136 9  12289525.189 8
  20729829.475    20729831.510   -15270804.270 9  -7883775.987 8
  20552413.272    20552418.449    -2497162.751 8   -268596.631 7
 86  6 17  0 29 11.0800000  0  4G 6G 8G 9G11
  20238143.326    20238147.896    -3764790.265 9  -1598550.270 8
  23444969.449    23444975.684    14306950.886 8  12306422.419 8
  20727308.529    20727309.984   -15284048.414 8  -7894096.087 8
  20553697.063    20553702.676    -2490411.620 8   -263336.018 7
 86  6 17  0 29 17.0800000  0  4G 6G 8G 9G11
  20238836.635    20238840.297    -3761152.957 8  -1595716.009 7
  23449097.820    23449102.237    14328638.870 8  12323322.127 8
  20724790.549    20724792.783   -15297278.535 9  -7904405.274 8
  20554986.031    20554991.100    -2483641.938 7   -258060.946 8
 86  6 17  0 29 23.0800000  0  4G 6G 8G 9G11
  20239532.501    20239535.860    -3757494.311 7  -1592865.117 8
  23453224.288    23453230.027    14350330.195 8  12340224.445 8
  20722275.803    20722277.756   -15310494.621 9  -7914703.531 7
  20556277.261    20556282.408    -2476853.685 7   -252771.382 8
 86  6 17  0 29 29.0800000  0  4G 6G 8G 9G11
  20240232.533    20240237.058    -3753814.223 8  -1589997.528 8
  23457353.308    23457358.206    14372024.768 8  12357129.310 8
  20719763.596    20719766.492   -15323696.468 8  -7924990.679 7
  20557571.935    20557579.681    -2470046.803 8   -247467.327 7
 86  6 17  0 29 35.0800000  0  4G 6G 8G 9G11
  20240937.292    20240939.861    -3750112.702 9  -1587113.219 7
  23461481.642    23461486.797    14393722.719 8  12374036.791 8
  20717255.328    20717257.561   -15336884.105 8  -7935266.740 8
  20558872.150    20558877.697    -2463221.298 8   -242148.744 7
 86  6 17  0 29 41.0800000  0  4G 6G 8G 9G11
  20241645.764    20241649.866    -3746389.718 9  -1584212.199 7
  23465612.082    23465616.722    14415423.956 8  12390946.834 8
  20714747.308    20714749.246   -15350057.339 8  -7945531.609 7
  20560173.832    20560178.824    -2456377.178 7   -236815.671 8
 86  6 17  0 29 47.0800000  0  4G 6G 8G 9G11
  20242358.135    20242363.114    -3742645.213 8  -1581294.395 7
  23469741.497    23469746.756    14437128.533 9  12407859.487 8
  20712243.352    20712246.086   -15363216.271 8  -7955785.322 8
  20561481.049    20561484.865    -2449514.366 7   -231468.012 8
 86  6 17  0 29 53.0800000  0  4G 6G 8G 9G11
  20243074.581    20243079.421    -3738879.229 8  -1578359.866 7
  23473872.575    23473877.602    14458836.391 8  12424774.704 8
  20709741.267    20709744.286   -15376360.928 9  -7966027.903 7
  20562789.659    20562795.434    -2442633.008 8   -226105.920 7
 86  6 17  0 29 59.0800000  0  4G 6G 8G 9G11
  20243795.733    20243800.693    -3735091.821 8  -1575408.639 7
  23478003.436    23478009.221    14480547.429 9  12441692.393 8
  20707243.319    20707246.507   -15389491.251 9  -7976259.326 6
  20564103.870    20564108.529    -2435733.099 8   -220729.377 7
 86  6 17  0 30  5.0800000  0  4G 6G 8G 9G11
  20244519.877    20244525.050    -3731283.006 9  -1572440.738 7
  23482136.706    23482141.939    14502261.634 9  12458612.532 8
  20704746.671    20704750.039   -15402607.254 8  -7986479.596 8
  20565419.314    20565424.651    -2428814.757 8   -215338.451 7
 86  6 17  0 30 11.0800000  0  4G 6G 8G 9G11
  20245248.986    20245254.733    -3727452.769 8  -1569456.148 8
  23486269.115    23486274.634    14523978.897 9  12475535.070 8
  20702254.065    20702257.149   -15415709.012 8  -7996688.739 7
  20566739.619    20566745.087    -2421877.949 7   -209933.147 7
 86  6 17  0 30 17.0800000  0  4G 6G 8G 9G11
  20245982.186    20245986.812    -3723601.108 8  -1566454.851 7
  23490402.683    23490408.210    14545699.304 8  12492460.055 8
  20699763.197    20699766.143   -15428796.422 9  -8006886.715 8
  20568062.817    20568068.672    -2414922.721 8   -204513.476 8
 86  6 17  0 30 23.0800000  0  4G 6G 8G 9G11
  20246719.018    20246725.460    -3719728.011 9  -1563436.855 8
  23494536.511    23494542.685    14567422.773 9  12509387.431 7
  20697275.097    20697279.348   -15441869.505 9  -8017073.541 7
  20569390.829    20569393.964    -2407949.087 8   -199079.471 7
 86  6 17  0 30 29.0800000  0  4G 6G 8G 9G11
  20247460.586    20247465.238    -3715833.476 8  -1560402.137 8
  23498671.286    23498674.213    14589149.255 8  12526317.143 8
  20694790.839    20694793.478   -15454928.219 8  -8027249.163 8
  20570721.378    20570726.009    -2400957.048 8   -193631.136 7
 86  6 17  0 30 35.0800000  0  4G 6G 8G 9G11
  20248205.658    20248209.091    -3711917.596 8  -1557350.822 8
  23502806.054    23502811.200    14610878.657 9  12543249.153 7
  20692308.156    20692310.919   -15467972.545 8  -8037413.561 8
  20572054.369    20572060.102    -2393946.706 8   -188168.525 8
 86  6 17  0 30 41.0800000  0  4G 6G 8G 9G11
  20248954.888    20248958.786    -3707980.355 9  -1554282.840 7
  23506941.110    23506946.065    14632611.015 9  12560183.458 7
  20689828.163    20689833.363   -15481002.568 9  -8047566.842 8
  20573392.037    20573397.382    -2386917.997 8   -182691.616 8
 86  6 17  0 30 47.0800000  0  4G 6G 8G 9G11
  20249707.649    20249712.525    -3704021.711 8  -1551198.197 8
  23511076.698    23511081.547    14654346.302 9  12577120.039 7
  20687350.537    20687355.479   -15494018.242 8  -8057708.905 8
  20574733.326    20574739.227    -2379871.055 8   -177200.486 7
 86  6 17  0 30 53.0800000  0  4G 6G 8G 9G11
  20250465.560    20250471.195    -3700041.681 8  -1548096.873 8
  23515213.938    23515217.859    14676084.443 9  12594058.831 9
  20684876.496    20684881.664   -15507019.438 8  -8067839.713 7
  20576078.568    20576082.558    -2372805.858 8   -171695.134 8
 86  6 17  0 30 59.0800000  0  4G 6G 8G 9G11
  20251227.265    20251232.451    -3696040.221 9  -1544978.863 8
  23519351.312    23519356.696    14697825.538 9  12610999.942 8
  20682406.140    20682411.652   -15520006.167 8  -8077959.247 8
  20577426.892    20577430.760    -2365722.345 8   -166175.518 7
 86  6 17  0 31  5.0800000  0  4G 6G 8G 9G11
  20251991.439    20251997.892    -3692017.336 9  -1541844.144 8
  23523488.972    23523493.942    14719569.479 9  12627943.252 7
  20679938.185    20679942.462   -15532978.428 8  -8088067.496 8
  20578778.184    20578782.919    -2358620.607 8   -160641.691 6
 86  6 17  0 31 11.0800000  0  4G 6G 8G 9G11
  20252762.506    20252766.529    -3687973.036 9  -1538692.750 7
  23527627.139    23527632.686    14741316.226 9  12644888.799 7
  20677471.889    20677476.793   -15545936.249 9  -8098164.505 8
  20580132.214    20580136.766    -2351500.678 8   -155093.699 8
 86  6 17  0 31 17.0800000  0  4G 6G 8G 9G11
  20253536.178    20253540.227    -3683907.346 8  -1535524.680 8
  23531766.511    23531770.356    14763065.752 9  12661836.474 7
  20675008.617    20675014.234   -15558879.690 8  -8108250.293 8
  20581491.751    20581496.126    -2344362.614 8   -149531.569 7
 86  6 17  0 31 23.0800000  0  4G 6G 8G 9G11
  20254313.220    20254318.393    -3679820.287 9  -1532339.954 8
  23535905.922    23535908.883    14784818.076 8  12678786.317 7
  20672547.723    20672553.329   -15571808.576 8  -8118324.741 8
  20582853.272    20582859.191    -2337206.393 9   -143955.290 8
 86  6 17  0 31 29.0800000  0  4G 6G 8G 9G11
  20255095.105    20255101.057    -3675711.801 8  -1529138.544 8
  23540045.383    23540049.494    14806573.122 9  12695738.293 8
  20670089.956    20670095.419   -15584722.904 8  -8128387.871 7
  20584218.433    20584223.013    -2330031.991 8   -138364.825 7
 86  6 17  0 31 35.0800000  0  4G 6G 8G 9G11
  20255882.318    20255887.086    -3671581.872 8  -1525920.424 7
  23544185.347    23544190.751    14828330.904 9  12712692.414 7
  20667635.503    20667640.511   -15597622.683 9  -8138439.646 8
  20585587.934    20585591.062    -2322839.389 9   -132760.217 7
 86  6 17  0 31 41.0800000  0  4G 6G 8G 9G11
  20256672.185    20256675.085    -3667430.430 8  -1522685.531 7
  23548325.869    23548332.942    14850091.437 8  12729648.679 7
  20665183.897    20665188.642   -15610507.861 8  -8148480.035 8
  20586959.603    20586963.579    -2315628.599 9   -127141.411 8
 86  6 17  0 31 47.0800000  0  4G 6G 8G 9G11
  20257464.894    20257469.466    -3663257.499 9  -1519433.893 8
  23552468.521    23552471.904    14871854.781 9  12746607.120 7
  20662734.442    20662740.142   -15623378.321 8  -8158508.967 8
  20588335.067    20588338.986    -2308399.679 9   -121508.495 7
 86  6 17  0 31 53.0800000  0  4G 6G 8G 9G11
  20258263.072    20258268.029    -3659063.052 9  -1516165.497 8
  23556610.657    23556615.022    14893620.801 9  12763567.658 7
  20660288.341    20660293.617   -15636234.240 8  -8168526.572 8
  20589714.672    20589718.198    -2301152.669 8   -115861.477 7
 86  6 17  0 31 59.0800000  0  4G 6G 8G 9G11
  20259065.558    20259070.824    -3654847.076 9  -1512880.318 7
  23560751.857    23560756.698    14915389.542 8  12780530.299 7
  20657845.572    20657850.065   -15649075.345 9  -8178532.626 8
  20591096.740    20591101.267    -2293887.574 9   -110200.359 7
 86  6 17  0 32  5.0800000  0  4G 6G 8G 9G11
  20259871.351    20259877.030    -3650609.597 8  -1509578.387 7
  23564895.819    23564900.686    14937160.947 8  12797495.030 7
  20655404.176    20655410.196   -15661901.783 7  -8188527.249 7
  20592482.442    20592487.326    -2286604.356 9   -104525.139 8
 86  6 17  0 32 11.0800000  0  4G 6G 8G 9G11
  20260683.850    20260687.926    -3646350.635 9  -1506259.720 7
  23569039.140    23569043.380    14958934.975 8  12814461.799 7
  20652965.468    20652972.581   -15674713.457 7  -8198510.369 9
  20593872.092    20593876.996    -2279303.094 8    -98835.832 7
 86  6 17  0 32 17.0800000  0  4G 6G 8G 9G11
  20261496.683    20261502.340    -3642070.145 8  -1502924.275 7
  23573182.851    23573186.000    14980711.651 8  12831430.645 7
  20650529.491    20650536.718   -15687510.390 8  -8208482.002 9
  20595265.224    20595269.469    -2271983.752 8    -93132.456 7
 86  6 17  0 32 23.0800000  0  4G 6G 8G 9G11
  20262316.927    20262320.372    -3637768.032 9  -1499571.991 6
  23577326.423    23577331.648    15002490.999 9  12848401.558 7
  20648098.188    20648104.318   -15700292.409 9  -8218442.018 7
  20596661.835    20596665.351    -2264646.289 8    -87414.947 7
 86  6 17  0 32 29.0800000  0  4G 6G 8G 9G11
  20263139.270    20263142.849    -3633444.343 8  -1496202.867 7
  23581472.386    23581476.963    15024273.002 8  12865374.537 6
  20645670.480    20645674.594   -15713059.554 7  -8228390.443 8
  20598061.065    20598064.651    -2257290.717 8    -81683.337 8
 86  6 17  0 32 35.0800000  0  4G 6G 8G 9G11
  20263965.527    20263969.740    -3629099.058 9  -1492816.941 7
  23585617.687    23585624.139    15046057.566 7  12882349.515 7
  20643242.486    20643247.715   -15725811.822 9  -8238327.272 7
  20599464.750    20599467.929    -2249917.133 8    -75937.681 7
 86  6 17  0 32 41.0800000  0  4G 6G 8G 9G11
  20264796.937    20264800.556    -3624732.208 8  -1489414.186 8
  23589763.885    23589769.592    15067844.758 7  12899326.544 7
  20640819.367    20640824.955   -15738549.167 9  -8248252.485 9
  20600870.476    20600875.350    -2242525.514 8    -70177.982 7
 86  6 17  0 32 47.0800000  0  4G 6G 8G 9G11
  20265631.621    20265635.482    -3620343.695 8  -1485994.577 8
  23593910.445    23593916.098    15089634.517 7  12916305.567 7
  20638397.517    20638403.047   -15751271.619 9  -8258166.071 7
  20602280.051    20602284.877    -2235115.870 8    -64404.233 8
 86  6 17  0 32 53.0800000  0  4G 6G 8G 9G11
  20266470.635    20266474.422    -3615933.622 8  -1482558.173 7
  23598056.310    23598062.634    15111426.807 8  12933286.576 7
  20635979.453    20635984.470   -15763979.094 7  -8268068.002 8
  20603693.485    20603697.234    -2227688.228 9    -58616.463 7
 86  6 17  0 32 59.0800000  0  4G 6G 8G 9G11
  20267313.125    20267319.290    -3611502.063 8  -1479104.998 7
  23602203.120    23602208.705    15133221.594 8  12950269.512 7
  20633564.769    20633569.479   -15776671.652 8  -8277958.309 8
  20605110.322    20605115.106    -2220242.663 8    -52814.722 8
 86  6 17  0 33  5.0800000  0  4G 6G 8G 9G11
  20268160.946    20268166.062    -3607048.945 8  -1475635.031 7
  23606350.768    23606357.649    15155018.757 7  12967254.288 8
  20631152.240    20631156.696   -15789349.346 8  -8287837.025 8
  20606531.273    20606534.989    -2212779.259 8    -46999.087 8
 86  6 17  0 33 11.0800000  0  4G 6G 8G 9G11
  20269013.466    20269016.642    -3602574.217 8  -1472148.247 7
  23610499.713    23610506.680    15176818.328 7  12984240.959 6
  20628742.247    20628748.153   -15802012.018 8  -8297704.043 8
  20607954.118    20607960.166    -2205297.970 8    -41169.508 8
 86  6 17  0 33 17.0800000  0  4G 6G 8G 9G11
  20269868.302    20269872.426    -3598077.969 8  -1468644.671 8
  23614649.627    23614654.606    15198620.304 7  13001229.522 6
  20626335.975    20626340.327   -15814659.723 8  -8307559.389 8
  20609382.003    20609386.599    -2197798.827 9    -35326.027 7
 86  6 17  0 33 23.0800000  0  4G 6G 8G 9G11
  20270728.079    20270732.981    -3593560.170 8  -1465124.321 7
  23618798.191    23618803.413    15220424.617 7  13018219.890 7
  20623932.764    20623936.973   -15827292.528 8  -8317403.146 8
  20610811.034    20610816.605    -2190281.880 8    -29468.663 7
 86  6 17  0 33 29.0800000  0  4G 6G 8G 9G11
  20271591.208    20271596.901    -3589020.813 8  -1461587.156 7
  23622946.630    23622953.845    15242231.247 7  13035212.060 8
  20621530.556    20621534.975   -15839910.273 8  -8327235.152 8
  20612245.792    20612250.252    -2182747.154 8    -23597.440 8
 86  6 17  0 33 35.0800000  0  4G 6G 8G 9G11
  20272460.018    20272463.991    -3584459.952 8  -1458033.236 7
  23627098.012    23627102.733    15264040.137 7  13052205.997 7
  20619132.823    20619137.441   -15852513.025 8  -8337055.475 7
  20613682.860    20613688.218    -2175194.672 8    -17712.402 7
 86  6 17  0 33 41.0800000  0  4G 6G 8G 9G11
  20273331.641    20273336.592    -3579877.564 9  -1454462.553 7
  23631247.847    23631253.823    15285851.362 8  13069201.754 6
  20616736.920    20616742.062   -15865100.731 8  -8346864.077 8
  20615122.199    20615127.320    -2167624.394 8    -11813.480 7
 86  6 17  0 33 47.0800000  0  4G 6G 8G 9G11
  20274209.319    20274212.473    -3575273.579 8  -1450875.027 7
  23635398.746    23635404.949    15307664.846 6  13086199.243 7
  20614344.443    20614349.861   -15877673.402 8  -8356660.951 8
  20616566.853    20616570.713    -2160036.304 8     -5900.695 8
 86  6 17  0 33 53.0800000  0  4G 6G 8G 9G11
  20275088.370    20275091.593    -3570647.961 8  -1447270.658 7
  23639549.136    23639556.938    15329480.603 7  13103198.522 8
  20611955.054    20611959.310   -15890230.794 8  -8366445.935 8
  20618014.161    20618020.302    -2152430.399 8        25.996 7
 86  6 17  0 33 59.0800000  0  4G 6G 8G 9G11
  20275972.792    20275977.280    -3566000.571 7  -1443649.311 8
  23643699.523    23643708.659    15351298.788 6  13120199.717 8
  20609568.758    20609573.338   -15902773.030 9  -8376219.116 8
  20619464.938    20619471.148    -2144806.641 9      5966.579 7
 86  6 17  0 34  5.0800000  0  4G 6G 8G 9G11
  20276860.103    20276863.917    -3561331.453 9  -1440011.049 7
  23647854.454    23647860.923    15373119.263 6  13137202.669 7
  20607185.151    20607188.897   -15915299.941 9  -8385980.339 7
  20620918.133    20620924.371    -2137165.075 8     11921.050 7
 86  6 17  0 34 11.0800000  0  4G 6G 8G 9G11
  20277753.714    20277757.793    -3556640.652 8  -1436355.878 8
  23652005.729    23652013.857    15394942.095 7  13154207.446 7
  20604804.292    20604808.543   -15927811.589 8  -8395729.668 8
  20622375.539    20622382.246    -2129505.671 9     17889.421 7
 86  6 17  0 34 17.0800000  0  4G 6G 8G 9G11
  20278649.408    20278656.386    -3551928.149 8  -1432683.803 7
  23656161.121    23656166.751    15416767.182 7  13171214.003 7
  20602426.296    20602430.490   -15940307.919 9  -8405467.076 8
  20623837.798    20623842.293    -2121828.473 8     23871.639 8
 86  6 17  0 34 23.0800000  0  4G 6G 8G 9G11
  20279551.813    20279555.621    -3547193.936 8  -1428994.803 8
  23660313.354    23660321.373    15438594.476 7  13188222.282 8
  20600051.236    20600055.126   -15952788.951 8  -8415192.542 8
  20625301.173    20625307.204    -2114133.558 8     29867.688 8
 86  6 17  0 34 29.0800000  0  4G 6G 8G 9G11
  20280457.125    20280460.910    -3542438.104 8  -1425288.964 8
  23664468.076    23664473.878    15460423.942 6  13205232.226 8
  20597680.337    20597682.555   -15965254.727 9  -8424906.130 7
  20626769.073    20626774.875    -2106420.965 7     35877.488 7
 86  6 17  0 34 35.0800000  0  4G 6G 8G 9G11
  20281366.501    20281369.707    -3537660.658 8  -1421566.273 8
  23668621.471    23668628.541    15482255.434 6  13222243.769 7
  20595310.316    20595313.379   -15977705.326 9  -8434607.895 7
  20628240.791    20628244.316    -2098690.825 8     41900.979 7
 86  6 17  0 34 41.0800000  0  4G 6G 8G 9G11
  20282279.407    20282284.241    -3532861.610 8  -1417826.778 8
  23672777.762    23672783.524    15504088.956 5  13239256.900 7
  20592944.003    20592947.691   -15990140.557 9  -8444297.690 8
  20629714.986    20629720.277    -2090943.133 7     47938.152 8
 86  6 17  0 34 47.0800000  0  4G 6G 8G 9G11
  20283197.168    20283200.459    -3528040.977 9  -1414070.433 8
  23676932.742    23676940.087    15525924.568 6  13256271.669 7
  20590579.618    20590584.457   -16002560.540 8  -8453975.593 7
  20631191.668    20631197.989    -2083177.885 8     53988.981 7
 86  6 17  0 34 53.0800000  0  4G 6G 8G 9G11
  20284118.372    20284122.380    -3523198.684 9  -1410297.235 7
  23681087.951    23681095.133    15547762.250 7  13273288.028 7
  20588219.631    20588224.313   -16014965.297 9  -8463641.641 7
  20632673.632    20632679.061    -2075395.035 8     60053.545 8
 86  6 17  0 34 59.0800000  0  4G 6G 8G 9G11
  20285043.855    20285048.863    -3518334.777 8  -1406507.183 7
  23685245.189    23685251.157    15569601.929 7  13290305.938 8
  20585862.583    20585866.114   -16027354.650 9  -8473295.677 8
  20634157.379    20634163.239    -2067594.645 8     66131.779 8
 86  6 17  0 35  5.0800000  0  4G 6G 8G 9G11
  20285973.409    20285977.795    -3513449.233 8  -1402700.265 7
  23689399.734    23689406.535    15591443.587 6  13307325.387 7
  20583506.527    20583511.218   -16039728.501 8  -8482937.629 8
  20635645.029    20635649.716    -2059776.662 8     72223.711 7
 86  6 17  0 35 11.0800000  0  4G 6G 8G 9G11
  20286905.765    20286911.188    -3508542.085 8  -1398876.514 8
  23693556.540    23693564.392    15613287.173 7  13324346.359 7
  20581155.746    20581158.496   -16052087.063 9  -8492567.681 7
  20637137.008    20637141.282    -2051941.219 9     78329.244 8
 86  6 17  0 35 17.0800000  0  4G 6G 8G 9G11
  20287844.523    20287849.332    -3503613.241 8  -1395035.869 7
  23697714.522    23697720.485    15635132.743 7  13341368.884 6
  20578807.217    20578809.717   -16064430.098 9  -8502185.624 7
  20638631.664    20638635.856    -2044088.289 7     84448.434 8
 86  6 17  0 35 23.0800000  0  4G 6G 8G 9G11
  20288786.120    20288792.124    -3498662.648 8  -1391178.266 7
  23701872.021    23701879.326    15656980.275 7  13358392.914 7
  20576461.588    20576464.374   -16076757.761 8  -8511791.586 7
  20640128.660    20640134.330    -2036217.823 8     90581.261 8
 86  6 17  0 35 29.0800000  0  4G 6G 8G 9G11
  20289733.365    20289737.651    -3493690.407 8  -1387303.804 8
  23706029.583    23706036.415    15678829.752 8  13375418.486 7
  20574118.447    20574120.752   -16089069.830 9  -8521385.410 7
  20641629.808    20641635.091    -2028329.840 7     96727.734 8
 86  6 17  0 35 35.0800000  0  4G 6G 8G 9G11
  20290683.966    20290688.222    -3488696.398 8  -1383412.363 8
  23710189.236    23710193.258    15700681.205 7  13392445.589 7
  20571777.644    20571781.137   -16101366.321 9  -8530967.083 8
  20643133.707    20643139.505    -2020424.348 8    102887.865 7
 86  6 17  0 35 41.0800000  0  4G 6G 8G 9G11
  20291637.487    20291642.531    -3483680.544 9  -1379503.903 8
  23714345.522    23714353.106    15722534.704 8  13409474.262 7
  20569439.922    20569444.421   -16113647.130 9  -8540536.544 7
  20644642.434    20644646.736    -2012501.303 8    109061.677 7
 86  6 17  0 35 47.0800000  0  4G 6G 8G 9G11
  20292596.273    20292600.892    -3478642.861 7  -1375578.451 7
  23718505.292    23718511.226    15744390.205 7  13426504.535 8
  20567107.106    20567110.273   -16125912.282 8  -8550093.802 7
  20646153.137    20646157.803    -2004560.644 8    115249.186 8
 86  6 17  0 35 53.0800000  0  4G 6G 8G 9G11
  20293559.048    20293564.583    -3473583.335 8  -1371635.957 8
  23722664.153    23722670.382    15766247.694 8  13443536.319 8
  20564775.584    20564778.303   -16138161.725 8  -8559638.828 9
  20647667.625    20647672.959    -1996602.447 8    121450.376 8
 86  6 17  0 35 59.0800000  0  4G 6G 8G 9G11
  20294526.301    20294530.593    -3468501.956 8  -1367676.465 7
  23726825.378    23726830.087    15788107.149 8  13460569.649 7
  20562446.925    20562451.833   -16150395.377 8  -8569171.537 7
  20649184.656    20649189.299    -1988626.708 8    127665.247 8
 86  6 17  0 36  5.0800000  0  4G 6G 8G 9G11
  20295497.389    20295502.914    -3463398.748 9  -1363699.930 8
  23730985.400    23730990.221    15809968.533 8  13477604.471 7
  20560123.074    20560126.734   -16162613.318 9  -8578691.999 6
  20650706.069    20650711.685    -1980633.508 8    133893.708 8
 86  6 17  0 36 11.0800000  0  4G 6G 8G 9G11
  20296472.474    20296476.729    -3458273.810 8  -1359706.480 7
  23735145.512    23735152.009    15831831.737 8  13494640.727 8
  20557800.234    20557804.900   -16174815.553 8  -8588200.249 7
  20652230.451    20652235.033    -1972622.950 8    140135.708 7
 86  6 17  0 36 17.0800000  0  4G 6G 8G 9G11
  20297451.584    20297455.159    -3453127.140 8  -1355696.078 8
  23739306.344    23739311.892    15853696.692 7  13511678.360 7
  20555480.656    20555483.954   -16187002.107 8  -8597696.252 7
  20653758.446    20653763.611    -1964595.079 8    146391.182 8
 86  6 17  0 36 23.0800000  0  4G 6G 8G 9G11
  20298435.898    20298440.400    -3447958.775 8  -1351668.808 8
  23743467.504    23743472.925    15875563.385 7  13528717.328 8
  20553165.199    20553168.282   -16199173.054 8  -8607180.109 7
  20655289.698    20655294.091    -1956549.898 8    152660.162 8
 86  6 17  0 36 29.0800000  0  4G 6G 8G 9G11
  20299423.759    20299427.697    -3442768.729 8  -1347624.608 7
  23747628.866    23747634.502    15897431.712 8  13545757.567 8
  20550851.632    20550855.471   -16211328.279 9  -8616651.705 7
  20656824.040    20656828.703    -1948487.442 8    158942.587 8
 86  6 17  0 36 35.0800000  0  4G 6G 8G 9G11
  20300415.317    20300419.721    -3437556.911 8  -1343563.463 7
  23751790.562    23751796.651    15919301.772 8  13562799.170 8
  20548542.263    20548546.164   -16223467.826 9  -8626111.099 7
  20658360.794    20658365.720    -1940407.675 8    165238.525 8
 86  6 17  0 36 41.0800000  0  4G 6G 8G 9G11
  20301411.058    20301415.228    -3432323.322 9  -1339485.340 8
  23755952.972    23755958.897    15941173.498 7  13579842.059 8
  20546234.819    20546238.875   -16235591.576 8  -8635558.161 7
  20659901.665    20659906.620    -1932310.605 9    171547.923 8
 86  6 17  0 36 47.0800000  0  4G 6G 8G 9G11
  20302411.126    20302416.243    -3427068.020 8  -1335390.300 8
  23760113.730    23760120.417    15963046.918 7  13596886.280 9
  20543930.581    20543934.594   -16247699.486 8  -8644992.888 8
  20661446.026    20661450.691    -1924196.302 8    177870.755 8
 86  6 17  0 36 53.0800000  0  4G 6G 8G 9G11
  20303415.415    20303419.636    -3421790.996 9  -1331278.340 8
  23764277.943    23764284.151    15984921.972 8  13613931.766 8
  20541628.899    20541633.671   -16259791.608 7  -8654415.320 7
  20662993.790    20662999.101    -1916064.789 9    184207.004 8
 86  6 17  0 36 59.0800000  0  4G 6G 8G 9G11
  20304422.844    20304428.703    -3416492.255 9  -1327149.449 8
  23768440.329    23768446.472    16006798.569 8  13630978.440 8
  20539331.864    20539335.719   -16271867.947 8  -8663825.478 7
  20664544.679    20664550.723    -1907916.172 8    190556.573 8
 86  6 17  0 37  5.0800000  0  4G 6G 8G 9G11
  20305436.642    20305440.175    -3411171.762 9  -1323003.626 8
  23772604.862    23772609.811    16028676.715 9  13648026.343 8
  20537035.696    20537040.067   -16283928.494 7  -8673223.280 8
  20666098.543    20666103.582    -1899750.400 8    196919.506 9
 86  6 17  0 37 11.0800000  0  4G 6G 8G 9G11
  20306452.041    20306457.588    -3405829.501 9  -1318840.820 7
  23776767.283    23776772.991    16050556.485 8  13665075.507 7
  20534743.735    20534748.645   -16295973.132 8  -8682608.718 7
  20667654.009    20667660.414    -1891567.405 8    203295.867 8
 86  6 17  0 37 17.0800000  0  4G 6G 8G 9G11
  20307473.167    20307478.717    -3400465.364 9  -1314660.985 8
  23780931.012    23780937.086    16072437.892 9  13682125.936 8
  20532456.192    20532459.370   -16308001.752 9  -8691981.664 7
  20669215.886    20669220.650    -1883367.194 8    209685.649 8
 86  6 17  0 37 23.0800000  0  4G 6G 8G 9G11
  20308497.793    20308502.707    -3395079.406 8  -1310464.129 8
  23785095.823    23785101.868    16094320.885 8  13699177.615 8
  20530169.889    20530172.979   -16320014.350 8  -8701342.132 7
  20670780.455    20670783.980    -1875149.792 8    216088.815 8
 86  6 17  0 37 29.0800000  0  4G 6G 8G 9G11
  20309527.281    20309532.364    -3389671.687 8  -1306250.321 7
  23789260.307    23789265.889    16116205.411 8  13716230.484 9
  20527886.962    20527890.983   -16332011.051 8  -8710690.208 7
  20672346.380    20672350.757    -1866915.268 8    222505.336 8
 86  6 17  0 37 35.0800000  0  4G 6G 8G 9G11
  20310561.003    20310566.195    -3384242.117 8  -1302019.491 9
  23793424.425    23793429.371    16138091.398 8  13733284.471 7
  20525606.398    20525610.379   -16343991.713 8  -8720025.794 8
  20673917.071    20673920.129    -1858663.588 7    228935.213 8
 86  6 17  0 37 41.0800000  0  4G 6G 8G 9G11
  20311598.406    20311602.659    -3378790.736 8  -1297771.676 7
  23797589.176    23797596.815    16159978.959 8  13750339.729 8
  20523330.695    20523333.802   -16355956.401 9  -8729348.910 8
  20675489.972    20675494.626    -1850394.750 8    235378.465 8
 86  6 17  0 37 47.0800000  0  4G 6G 8G 9G11
  20312638.557    20312643.363    -3373317.548 7  -1293506.849 7
  23801755.709    23801761.168    16181868.008 8  13767396.112 8
  20521056.467    20521060.861   -16367904.930 9  -8738659.442 8
  20677066.897    20677071.538    -1842108.779 9    241835.064 8
 86  6 17  0 37 53.0800000  0  4G 6G 8G 9G11
  20313684.919    20313690.329    -3367822.465 8  -1289224.975 8
  23805921.438    23805927.260    16203758.565 8  13784453.697 8
  20518786.210    20518789.686   -16379837.409 8  -8747957.490 8
  20678647.325    20678652.111    -1833805.762 9    248304.941 8
 86  6 17  0 37 59.0800000  0  4G 6G 8G 9G11
  20314734.774    20314739.303    -3362305.597 7  -1284926.107 8
  23810088.478    23810093.015    16225650.534 8  13801512.358 8
  20516518.431    20516523.879   -16391753.816 8  -8757242.987 7
  20680229.510    20680236.019    -1825485.731 8    254788.092 8
 86  6 17  0 38  5.0800000  0  4G 6G 8G 9G11
  20315788.883    20315793.242    -3356766.958 9  -1280610.302 7
  23814253.623    23814259.560    16247543.849 8  13818572.062 9
  20514253.286    20514258.261   -16403654.120 9  -8766515.943 8
  20681815.948    20681822.476    -1817148.701 8    261284.473 7
 86  6 17  0 38 11.0800000  0  4G 6G 8G 9G11
  20316846.740    20316850.339    -3351206.531 8  -1276277.501 8
  23818418.734    23818425.990    16269438.546 9  13835632.850 8
  20511992.091    20511996.444   -16415538.375 8  -8775776.425 8
  20683406.958    20683411.194    -1808794.723 9    267794.066 8
 86  6 17  0 38 17.0800000  0  4G 6G 8G 9G11
  20317908.764    20317913.226    -3345624.352 8  -1271927.757 8
  23822586.802    23822591.911    16291334.547 8  13852694.675 9
  20509732.914    20509738.879   -16427406.500 8  -8785024.303 8
  20684999.174    20685003.368    -1800423.799 8    274316.861 8
 86  6 17  0 38 23.0800000  0  4G 6G 8G 9G11
  20318974.195    20318980.945    -3340020.345 9  -1267560.992 8
  23826753.653    23826759.406    16313231.854 8  13869757.499 8
  20507477.263    20507481.651   -16439258.480 9  -8794259.611 7
  20686595.645    20686600.026    -1792035.938 8    280852.850 8
 86  6 17  0 38 29.0800000  0  4G 6G 8G 9G11
  20320045.100    20320050.623    -3334394.543 8  -1263177.261 8
  23830920.690    23830926.862    16335130.473 9  13886821.338 9
  20505225.061    20505229.752   -16451094.322 9  -8803482.337 8
  20688194.836    20688199.271    -1783631.050 8    287402.113 7
 86  6 17  0 38 35.0800000  0  4G 6G 8G 9G11
  20321120.777    20321125.472    -3328746.843 8  -1258776.458 8
  23835087.501    23835094.625    16357030.414 9  13903886.216 8
  20502977.202    20502980.528   -16462913.862 9  -8812692.360 7
  20689796.896    20689803.056    -1775209.146 9    293964.635 8
 86  6 17  0 38 41.0800000  0  4G 6G 8G 9G11
  20322198.541    20322203.706    -3323077.263 8  -1254358.597 7
  23839255.743    23839261.096    16378931.720 9  13920952.158 8
  20500731.785    20500735.697   -16474717.107 8  -8821889.696 8
  20691403.714    20691408.866    -1766770.304 9    300540.356 9
 86  6 17  0 38 47.0800000  0  4G 6G 8G 9G11
  20323283.375    20323286.835    -3317385.724 7  -1249923.645 7
  23843423.178    23843430.113    16400834.326 8  13938019.121 8
  20498488.513    20498492.430   -16486503.998 8  -8831074.285 7
  20693012.297    20693017.191    -1758314.515 9    307129.280 7
 86  6 17  0 38 53.0800000  0  4G 6G 8G 9G11
  20324370.356    20324373.969    -3311672.284 9  -1245471.607 8
  23847591.918    23847598.055    16422738.280 9  13955087.123 9
  20496248.742    20496251.974   -16498274.604 9  -8840246.176 8
  20694624.155    20694629.595    -1749841.820 8    313731.387 9
 86  6 17  0 38 59.0800000  0  4G 6G 8G 9G11
  20325461.148    20325465.401    -3305936.913 8  -1241002.501 7
  23851759.278    23851765.498    16444643.486 8  13972156.102 7
  20494011.185    20494014.621   -16510028.806 8  -8849405.286 8
  20696239.551    20696243.945    -1741352.257 9    320346.624 8
 86  6 17  0 39  5.0800000  0  4G 6G 8G 9G11
  20326556.887    20326562.245    -3300179.730 8  -1236516.397 7
  23855928.608    23855935.048    16466549.909 8  13989226.027 9
  20491778.931    20491783.027   -16521766.739 8  -8858551.727 8
  20697858.970    20697863.641    -1732845.884 8    326974.975 7
 86  6 17  0 39 11.0800000  0  4G 6G 8G 9G11
  20327657.039    20327661.073    -3294400.690 8  -1232013.244 7
  23860097.001    23860103.253    16488457.495 9  14006296.867 9
  20489547.794    20489551.384   -16533488.268 8  -8867685.389 8
  20699480.030    20699486.176    -1724322.686 8    333616.421 8
 86  6 17  0 39 17.0800000  0  4G 6G 8G 9G11
  20328760.484    20328764.962    -3288599.821 8  -1227493.087 7
  23864267.275    23864273.112    16510366.237 9  14023368.606 8
  20487320.255    20487323.971   -16545193.369 8  -8876806.248 8
  20701105.894    20701111.198    -1715782.672 8    340270.966 8
 86  6 17  0 39 23.0800000  0  4G 6G 8G 9G11
  20329868.549    20329873.602    -3282777.091 8  -1222955.902 8
  23868435.772    23868442.598    16532276.150 8  14040441.253 8
  20485097.064    20485100.051   -16556882.189 9  -8885914.411 8
  20702734.678    20702739.324    -1707225.942 8    346938.551 8
 86  6 17  0 39 29.0800000  0  4G 6G 8G 9G11
  20330981.443    20330985.745    -3276932.519 7  -1218401.688 8
  23872605.070    23872612.406    16554187.124 8  14057514.724 8
  20482875.553    20482878.386   -16568554.524 8  -8895009.749 8
  20704365.182    20704371.461    -1698652.409 8    353619.234 7
 86  6 17  0 39 35.0800000  0  4G 6G 8G 9G11
  20332096.433    20332101.924    -3271065.972 8  -1213830.365 7
  23876776.174    23876782.997    16576099.221 9  14074589.075 9
  20480657.016    20480661.544   -16580210.507 9  -8904092.314 8
  20705999.233    20706005.594    -1690062.090 9    360312.988 7
 86  6 17  0 39 41.0800000  0  4G 6G 8G 9G11
  20333217.626    20333222.935    -3265177.584 8  -1209241.999 7
  23880945.271    23880950.744    16598012.432 8  14091664.293 8
  20478442.058    20478445.870   -16591849.928 9  -8913161.991 7
  20707637.577    20707643.979    -1681455.012 8    367019.802 7
 86  6 17  0 39 47.0800000  0  4G 6G 8G 9G11
  20334343.015    20334347.506    -3259267.313 7  -1204636.603 8
  23885115.868    23885120.815    16619926.712 9  14108740.364 9
  20476230.830    20476233.741   -16603472.819 8  -8922218.789 8
  20709279.243    20709285.173    -1672831.250 7    373739.602 9
 86  6 17  0 39 53.0800000  0  4G 6G 8G 9G11
  20335470.936    20335476.179    -3253335.171 9  -1200014.163 7
  23889285.879    23889292.110    16641841.986 9  14125817.189 8
  20474021.768    20474025.783   -16615079.194 9  -8931262.708 9
  20710923.484    20710928.555    -1664190.872 8    380472.377 8
 86  6 17  0 39 59.0800000  0  4G 6G 8G 9G11
  20336604.128    20336609.405    -3247381.170 8  -1195374.681 7
  23893456.318    23893462.301    16663758.301 8  14142894.822 8
  20471816.702    20471820.795   -16626669.112 8  -8940293.811 8
  20712571.070    20712575.533    -1655533.834 9    387218.117 9
 86  6 17  0 40  5.0800000  0  4G 6G 8G 9G11
  20337741.596    20337745.006    -3241405.297 8  -1190718.151 8
  23897627.065    23897633.808    16685675.549 8  14159973.187 7
  20469613.553    20469618.147   -16638242.424 9  -8949311.972 8
  20714221.803    20714225.994    -1646860.167 8    393976.824 7
 86  6 17  0 40 11.0800000  0  4G 6G 8G 9G11
  20338882.299    20338886.701    -3235407.495 9  -1186044.543 8
  23901797.293    23901804.314    16707593.794 9  14177052.331 8
  20467415.641    20467418.366   -16649799.190 8  -8958317.233 7
  20715874.922    20715878.858    -1638169.852 8    400748.494 8
 86  6 17  0 40 17.0800000  0  4G 6G 8G 9G11
  20340027.835    20340033.166    -3229387.896 8  -1181353.942 7
  23905969.309    23905975.816    16729512.967 8  14194132.190 9
  20465218.495    20465221.902   -16661339.405 8  -8967309.609 7
  20717531.466    20717537.434    -1629462.934 9    407533.106 9
 86  6 17  0 40 23.0800000  0  4G 6G 8G 9G11
  20341177.191    20341182.149    -3223346.381 8  -1176646.278 7
  23910140.325    23910145.784    16751433.042 8  14211212.771 8
  20463025.601    20463029.256   -16672862.996 8  -8976289.031 8
  20719191.676    20719197.269    -1620739.438 8    414330.629 8
 86  6 17  0 40 29.0800000  0  4G 6G 8G 9G11
  20342331.481    20342336.165    -3217282.923 8  -1171921.507 8
  23914312.129    23914317.073    16773354.086 8  14228294.088 8
  20460836.360    20460838.904   -16684369.922 9  -8985255.465 8
  20720854.404    20720861.028    -1611999.343 8    421141.096 8
 86  6 17  0 40 35.0800000  0  4G 6G 8G 9G11
  20343490.329    20343493.644    -3211197.571 8  -1167179.678 7
  23918482.939    23918489.010    16795276.034 7  14245376.109 7
  20458649.230    20458653.218   -16695860.124 8  -8994208.865 8
  20722522.314    20722526.512    -1603242.648 8    427964.494 8
 86  6 17  0 40 41.0800000  0  4G 6G 8G 9G11
  20344651.945    20344655.772    -3205090.261 8  -1162420.734 7
  23922654.397    23922661.953    16817198.942 8  14262458.895 8
  20456465.952    20456470.114   -16707333.603 9  -9003149.240 7
  20724192.352    20724195.810    -1594469.394 8    434800.791 8
 86  6 17  0 40 47.0800000  0  4G 6G 8G 9G11
  20345818.547    20345821.942    -3198961.004 8  -1157644.689 7
  23926826.597    23926833.209    16839122.724 8  14279542.351 7
  20454285.631    20454290.217   -16718790.380 9  -9012076.583 8
  20725863.386    20725868.503    -1585679.581 9    441650.010 8
 86  6 17  0 40 53.0800000  0  4G 6G 8G 9G11
  20346989.437    20346992.177    -3192809.748 9  -1152851.513 8
  23930999.140    23931004.201    16861047.432 8  14296626.523 9
  20452109.194    20452112.332   -16730230.305 9  -9020990.801 7
  20727540.617    20727544.173    -1576873.155 8    448512.154 8
 86  6 17  0 40 59.0800000  0  4G 6G 8G 9G11
  20348163.632    20348167.174    -3186636.440 8  -1148041.143 8
  23935172.396    23935178.633    16882973.113 7  14313711.449 7
  20449935.112    20449938.642   -16741653.352 8  -9029891.891 8
  20729217.242    20729223.252    -1568050.098 8    455387.244 8
 86  6 17  0 41  5.0800000  0  4G 6G 8G 9G11
  20349342.346    20349346.766    -3180441.145 8  -1143213.626 8
  23939343.019    23939350.318    16904899.619 8  14330797.044 8
  20447764.636    20447769.139   -16753059.558 8  -9038779.849 9
  20730900.620    20730905.461    -1559210.538 8    462275.220 7
 86  6 17  0 41 11.0800000  0  4G 6G 8G 9G11
  20350525.375    20350529.744    -3174223.912 8  -1138369.044 7
  23943516.135    23943523.382    16926826.927 7  14347883.234 8
  20445597.537    20445601.408   -16764448.939 9  -9047654.670 8
  20732586.300    20732590.665    -1550354.539 9    469176.018 8
 86  6 17  0 41 17.0800000  0  4G 6G 8G 9G11
  20351713.344    20351716.847    -3167984.759 8  -1133507.370 7
  23947688.761    23947695.880    16948754.979 8  14364970.023 8
  20443433.464    20443437.407   -16775821.516 9  -9056516.426 8
  20734274.615    20734279.485    -1541482.102 8    476089.576 8
 86  6 17  0 41 23.0800000  0  4G 6G 8G 9G11
  20352904.481    20352908.803    -3161723.725 8  -1128628.636 7
  23951863.044    23951869.545    16970683.741 8  14382057.370 7
  20441272.164    20441275.648   -16787177.302 9  -9065365.080 8
  20735966.123    20735971.271    -1532593.235 9    483015.971 8
 86  6 17  0 41 29.0800000  0  4G 6G 8G 9G11
  20354099.748    20354104.807    -3155440.761 8  -1123732.821 7
  23956035.464    23956041.842    16992613.175 8  14399145.219 8
  20439114.222    20439118.568   -16798516.115 8  -9074200.523 8
  20737660.565    20737665.336    -1523688.002 9    489955.117 8
 86  6 17  0 41 35.0800000  0  4G 6G 8G 9G11
  20355299.839    20355304.869    -3149135.887 8  -1118819.926 8
  23960207.942    23960215.461    17014543.362 8  14416233.668 7
  20436960.720    20436963.686   -16809838.085 9  -9083022.813 8
  20739356.606    20739362.992    -1514766.424 9    496906.996 8
 86  6 17  0 41 41.0800000  0  4G 6G 8G 9G11
  20356503.048    20356508.727    -3142809.085 9  -1113889.953 8
  23964382.228    23964388.142    17036474.198 8  14433322.624 7
  20434809.283    20434812.767   -16821143.161 8  -9091831.978 7
  20741058.454    20741062.695    -1505828.473 9    503871.638 8
 86  6 17  0 41 47.0800000  0  4G 6G 8G 9G11
  20357711.440    20357716.945    -3136460.328 8  -1108942.882 7
  23968555.656    23968561.463    17058405.659 8  14450412.066 7
  20432660.958    20432663.959   -16832431.314 9  -9100627.935 8
  20742762.339    20742768.491    -1496874.234 9    510848.965 8
 86  6 17  0 41 53.0800000  0  4G 6G 8G 9G11
  20358924.111    20358928.991    -3130089.686 8  -1103978.742 8
  23972729.172    23972736.136    17080337.773 7  14467502.012 8
  20430515.648    20430519.512   -16843702.516 9  -9109410.700 7
  20744470.253    20744474.045    -1487903.707 9    517838.985 8
 86  6 17  0 41 59.0800000  0  4G 6G 8G 9G11
  20360140.071    20360144.346    -3123697.064 8  -1098997.490 8
  23976901.870    23976908.078    17102270.480 7  14484592.417 8
  20428373.028    20428377.622   -16854956.745 8  -9118180.212 7
  20746180.059    20746185.087    -1478916.874 9    524841.704 9
 86  6 17  0 42  5.0800000  0  4G 6G 8G 9G11
  20361359.597    20361365.111    -3117282.483 8  -1093999.101 8
  23981075.878    23981082.092    17124203.808 7  14501683.321 7
  20426235.091    20426239.532   -16866193.895 8  -9126936.442 8
  20747892.180    20747898.006    -1469913.769 9    531857.116 7
